[[{"header":{"parameterUnit":"m.s-1","parameterCategory":1,"la1":31.0,"la2":29.5877,"lo1":-88.7671,"lo2":-86.6584,"dy":0.0162,"dx":0.0185,"nx":115,"ny":88,"refTime":"2024-06-30T00:00:00:Z","depth":0,"parameterNumber":2,"parameterNumberName":"U-component_of_WINDS"},"data":[0.0,0.0,0.0,0.0,0.0,0.0,0.0,0.0,0.0,0.0,0.0,0.0,0.0,0.0,0.0,0.0,0.0,0.0,0.0,0.0,0.0,0.0,0.0,0.0,0.0,0.0,0.0,0.0,0.0,0.0,0.0,0.0,0.0,0.0,0.0,0.0,0.0,0.0,0.0,0.0,0.0,0.0,0.0,0.0,0.0,0.0,0.0,0.0,0.0,0.0,0.0,0.0,0.0,0.0,0.0,0.0,0.0,0.0,0.0,0.0,0.0,0.0,0.0,0.0,0.0,0.0,0.0,0.0,0.0,0.0,0.0,0.0,0.0,0.0,0.0,0.0,0.0,0.0,0.0,0.0,0.0,0.0,0.0,0.0,0.0,0.0,0.0,0.0,0.0,0.0,0.0,0.0,0.0,0.0,0.0,0.0,0.0,0.0,0.0,0.0,0.0,0.0,0.0,0.0,0.0,0.0,0.0,0.0,0.0,0.0,0.0,0.0,0.0,0.0,0.0,0.0,0.0,0.0,0.0,0.0,0.0,0.0,0.0,0.0,0.0,0.0,0.0,0.0,0.0,0.0,0.0,0.0,0.0,0.0,0.0,0.0,0.0,0.0,0.0,0.0,0.0,0.0,0.0,0.0,0.0,0.0,0.0,0.0,0.0,0.0,0.0,0.0,0.0,0.0,0.0,0.0,0.0,0.0,0.0,0.0,0.0,0.0,0.0,0.0,0.0,0.0,0.0,0.0,0.0,0.0,0.0,0.0,0.0,0.0,0.0,0.0,0.0,0.0,0.0,0.0,0.0,0.0,0.0,0.0,0.0,0.0,0.0,0.0,0.0,0.0,0.0,0.0,0.0,0.0,0.0,0.0,0.0,0.0,0.0,0.0,0.0,0.0,0.0,0.0,0.0,0.0,0.0,0.0,0.0,0.0,0.0,0.0,0.0,0.0,0.0,0.0,0.0,0.0,0.0,0.0,0.0,0.0,0.0,0.0,0.0,0.0,0.0,0.0,0.0,0.0,0.0,0.0,0.0,0.0,0.0,0.0,0.0,0.0,0.0,0.0,0.0,0.0,0.0,0.0,0.0,0.0,0.0,0.0,0.0,0.0,0.0,0.0,0.0,0.0,0.0,0.0,0.0,0.0,0.0,0.0,0.0,0.0,0.0,0.0,0.0,0.0,0.0,0.0,0.0,0.0,0.0,0.0,0.0,0.0,0.0,0.0,0.0,0.0,0.0,0.0,0.0,0.0,0.0,0.0,0.0,0.0,0.0,0.0,0.0,0.0,0.0,0.0,0.0,0.0,0.0,0.0,0.0,0.0,0.0,0.0,0.0,0.0,0.0,0.0,0.0,0.0,0.0,0.0,0.0,0.0,0.0,0.0,0.0,0.0,0.0,0.0,0.0,0.0,0.0,0.0,0.0,0.0,0.0,0.0,0.0,0.0,0.0,0.0,0.0,0.0,0.0,0.0,0.0,0.0,0.0,0.0,0.0,0.0,0.0,0.0,0.0,0.0,0.0,0.0,0.0,0.0,0.0,0.0,0.0,0.0,0.0,0.0,0.0,0.0,0.0,0.0,0.0,0.0,0.0,0.0,0.0,0.0,0.0,0.0,0.0,0.0,0.0,0.0,0.0,0.0,0.0,0.0,0.0,0.0,0.0,0.0,0.0,0.0,0.0,0.0,0.0,0.0,0.0,0.0,0.0,0.0,0.0,0.0,0.0,0.0,0.0,0.0,0.0,0.0,0.0,0.0,0.0,0.0,0.0,0.0,0.0,0.0,0.0,0.0,0.0,0.0,0.0,0.0,0.0,0.0,0.0,0.0,0.0,0.0,0.0,0.0,0.0,0.0,0.0,0.0,0.0,0.0,0.0,0.0,0.0,0.0,0.0,0.0,0.0,0.0,0.0,0.0,0.0,0.0,0.0,0.0,0.0,0.0,0.0,0.0,0.0,0.0,0.0,0.0,0.0,0.0,0.0,0.0,0.0,0.0,0.0,0.0,0.0,0.0,0.0,0.0,0.0,0.0,0.0,0.0,0.0,0.0,0.0,0.0,0.0,0.0,0.0,0.0,0.0,0.0,0.0,0.0,0.0,0.0,0.0,0.0,0.0,0.0,0.0,0.0,0.0,0.0,0.0,0.0,0.0,0.0,0.0,0.0,0.0,0.0,0.0,0.0,0.0,0.0,0.0,0.0,0.0,0.0,0.0,0.0,0.0,0.0,0.0,0.0,0.0,0.0,0.0,0.0,0.0,0.0,0.0,0.0,0.0,0.0,0.0,0.0,0.0,0.0,0.0,0.0,0.0,0.0,0.0,0.0,0.0,0.0,0.0,0.0,0.0,0.0,0.0,0.0,0.0,0.0,0.0,0.0,0.0,0.0,0.0,0.0,0.0,0.0,0.0,0.0,0.0,0.0,0.0,0.0,0.0,0.0,0.0,0.0,0.0,0.0,0.0,0.0,0.0,0.0,0.0,0.0,0.0,0.0,0.0,0.0,0.0,0.0,0.0,0.0,0.0,0.0,0.0,0.0,0.0,0.0,0.0,0.0,0.0,0.0,0.0,0.0,0.0,0.0,0.0,0.0,0.0,0.0,0.0,0.0,0.0,0.0,0.0,0.0,0.0,0.0,0.0,0.0,0.0,0.0,0.0,0.0,0.0,0.0,0.0,0.0,0.0,0.0,0.0,0.0,0.0,0.0,0.0,0.0,0.0,0.0,0.0,0.0,0.0,0.0,0.0,0.0,0.0,0.0,0.0,0.0,0.0,0.0,0.0,0.0,0.0,0.0,0.0,0.0,0.0,0.0,0.0,0.0,0.0,0.0,0.0,0.0,0.0,0.0,0.0,0.0,0.0,0.0,0.0,0.0,0.0,0.0,0.0,0.0,0.0,0.0,0.0,0.0,0.0,0.0,0.0,0.0,0.0,0.0,0.0,0.0,0.0,0.0,0.0,0.0,0.0,0.0,0.0,0.0,0.0,0.0,0.0,0.0,0.0,0.0,0.0,0.0,0.0,0.0,0.0,0.0,0.0,0.0,0.0,0.0,0.0,0.0,0.0,0.0,0.0,0.0,0.0,0.0,0.0,0.0,0.0,0.0,0.0,0.0,0.0,0.0,0.0,0.0,0.0,0.0,0.0,0.0,0.0,0.0,0.0,0.0,0.0,0.0,0.0,0.0,0.0,0.0,0.0,0.0,0.0,0.0,0.0,0.0,0.0,0.0,0.0,0.0,0.0,0.0,0.0,0.0,0.0,0.0,0.0,0.0,0.0,0.0,0.0,0.0,0.0,0.0,0.0,0.0,0.0,0.0,0.0,0.0,0.0,0.0,0.0,0.0,0.0,0.0,0.0,0.0,0.0,0.0,0.0,0.0,0.0,0.0,0.0,0.0,0.0,0.0,0.0,0.0,0.0,0.0,0.0,0.0,0.0,0.0,0.0,0.0,0.0,0.0,0.0,0.0,0.0,0.0,0.0,0.0,0.0,0.0,0.0,0.0,0.0,0.0,0.0,0.0,0.0,0.0,0.0,0.0,0.0,0.0,0.0,0.0,0.0,0.0,0.0,0.0,0.0,0.0,0.0,0.0,0.0,0.0,0.0,0.0,0.0,0.0,0.0,0.0,0.0,0.0,0.0,0.0,0.0,0.0,0.0,0.0,0.0,0.0,0.0,0.0,0.0,0.0,0.0,0.0,0.0,0.0,0.0,0.0,0.0,0.0,0.0,0.0,0.0,0.0,0.0,0.0,0.0,0.0,0.0,0.0,0.0,0.0,0.0,0.0,0.0,0.0,0.0,0.0,0.0,0.0,0.0,0.0,0.0,0.0,0.0,0.0,0.0,0.0,0.0,0.0,0.0,0.0,0.0,0.0,0.0,0.0,0.0,0.0,0.0,0.0,0.0,0.0,0.0,0.0,0.0,0.0,0.0,0.0,0.0,0.0,0.0,0.0,0.0,0.0,0.0,0.0,0.0,0.0,0.0,0.0,0.0,0.0,0.0,0.0,0.0,0.0,0.0,0.0,0.0,0.0,0.0,0.0,0.0,0.0,0.0,0.0,0.0,0.0,0.0,0.0,0.0,0.0,0.0,0.0,0.0,0.0,0.0,0.0,0.0,0.0,0.0,0.0,0.0,0.0,0.0,0.0,0.0,0.0,0.0,0.0,0.0,0.0,0.0,0.0,0.0,0.0,0.0,0.0,0.0,0.0,0.0,0.0,0.0,0.0,0.0,0.0,0.0,0.0,0.0,0.0,0.0,0.0,0.0,0.0,0.0,0.0,-0.5069,0.0,0.0,0.0,0.0,0.0,0.0,0.0,0.0,0.0,0.0,0.0,0.0,0.0,0.0,0.0,0.0,0.0,0.0,0.0,0.0,0.0,0.0,0.0,0.0,0.0,0.0,0.0,0.0,0.0,0.0,0.0,0.0,0.0,0.0,0.0,0.0,0.0,0.0,0.0,0.0,0.0,0.0,0.0,0.0,0.0,0.0,0.0,0.0,0.0,0.0,0.0,0.0,0.0,0.0,0.0,0.0,0.0,0.0,0.0,0.0,0.0,0.0,0.0,0.0,0.0,0.0,0.0,0.0,0.0,0.0,0.0,0.0,0.0,0.0,0.0,0.0,0.0,0.0,0.0,0.0,0.0,0.0,0.0,0.0,0.0,0.0,0.0,0.0,0.0,0.0,0.0,0.0,0.0,0.0,0.0,0.0,0.0,0.0,0.0,0.0,0.0,0.0,0.0,0.0,0.0,0.0,0.0,0.0,0.0,0.0,-0.3965,-0.4089,-0.4232,-0.4486,-0.4853,0.0,0.0,0.0,0.0,0.0,0.0,0.0,0.0,0.0,0.0,0.0,0.0,0.0,0.0,0.0,0.0,0.0,0.0,0.0,0.0,0.0,0.0,0.0,0.0,0.0,0.0,0.0,0.0,0.0,0.0,0.0,0.0,0.0,0.0,0.0,0.0,0.0,0.0,0.0,0.0,0.0,0.0,0.0,0.0,0.0,0.0,0.0,0.0,0.0,0.0,0.0,0.0,0.0,0.0,0.0,0.0,0.0,0.0,0.0,0.0,0.0,0.0,0.0,0.0,0.0,0.0,0.0,0.0,0.0,0.0,0.0,0.0,0.0,0.0,0.0,0.0,0.0,0.0,0.0,0.0,0.0,0.0,0.0,0.0,0.0,0.0,0.0,0.0,0.0,0.0,0.0,0.0,0.0,0.0,0.0,0.0,0.0,0.0,0.0,0.0,0.0,0.0,0.0,0.0,0.0,0.0,0.0,0.0,0.0,0.0,0.0,0.0,-0.4235,-0.4401,-0.4522,0.0,0.0,0.0,0.0,0.0,0.0,0.0,0.0,0.0,0.0,0.0,0.0,0.0,0.0,0.0,0.0,0.0,0.0,0.0,0.0,0.0,0.0,0.0,0.0,0.0,0.0,0.0,0.0,0.0,0.0,0.0,0.0,0.0,0.0,0.0,0.0,0.0,0.0,0.0,0.0,0.0,0.0,0.0,0.0,0.0,0.0,0.0,0.0,0.0,0.0,0.0,0.0,0.0,0.0,0.0,0.0,0.0,0.0,0.0,0.0,0.0,0.0,0.0,0.0,0.0,0.0,0.0,0.0,0.0,0.0,0.0,0.0,0.0,0.0,0.0,0.0,0.0,0.0,0.0,0.0,0.0,0.0,0.0,0.0,0.0,0.0,0.0,0.0,0.0,0.0,0.0,0.0,0.0,0.0,0.0,0.0,0.0,0.0,0.0,0.0,0.0,0.0,0.0,0.0,0.0,0.0,0.0,0.0,0.0,0.0,-0.391,-0.4679,-0.4489,0.0,-0.4101,0.0,0.0,0.0,0.0,0.0,0.0,0.0,0.0,0.0,0.0,0.0,0.0,0.0,0.0,0.0,0.0,0.0,0.0,0.0,0.0,0.0,0.0,0.0,0.0,0.0,0.0,0.0,0.0,0.0,0.0,0.0,0.0,0.0,0.0,0.0,0.0,0.0,0.0,0.0,0.0,0.0,0.0,0.0,0.0,0.0,0.0,0.0,0.0,0.0,0.0,0.0,0.0,0.0,0.0,0.0,0.0,0.0,0.0,0.0,0.0,0.0,0.0,0.0,0.0,0.0,0.0,0.0,0.0,0.0,0.0,0.0,0.0,0.0,0.0,0.0,0.0,0.0,0.0,0.0,0.0,0.0,0.0,0.0,0.0,0.0,0.0,0.0,0.0,0.0,0.0,0.0,0.0,0.0,0.0,0.0,0.0,0.0,0.0,0.0,0.0,0.0,0.0,0.0,0.0,0.0,0.0,0.0,0.0,0.0,0.0,-0.4205,-0.4546,-0.4606,-0.4448,0.0,0.0,0.0,0.0,0.0,0.0,0.0,0.0,0.0,0.0,0.0,0.0,0.0,0.0,0.0,0.0,0.0,0.0,0.0,0.0,0.0,0.0,0.0,0.0,0.0,0.0,0.0,0.0,0.0,0.0,0.0,0.0,0.0,0.0,0.0,0.0,0.0,0.0,0.0,0.0,0.0,0.0,0.0,0.0,0.0,0.0,0.0,0.0,0.0,0.0,0.0,0.0,0.0,0.0,0.0,0.0,0.0,0.0,0.0,0.0,0.0,0.0,0.0,0.0,0.0,0.0,0.0,0.0,0.0,0.0,0.0,0.0,0.0,0.0,0.0,0.0,0.0,0.0,0.0,0.0,0.0,0.0,0.0,0.0,0.0,0.0,0.0,0.0,0.0,0.0,0.0,0.0,0.0,0.0,0.0,0.0,0.0,0.0,0.0,0.0,0.0,0.0,0.0,0.0,0.0,0.0,0.0,0.0,0.0,0.0,-0.4275,0.0,-0.4636,-0.4608,-0.4358,-0.3885,0.0,0.0,0.0,0.0,0.0,0.0,0.0,0.0,0.0,0.0,0.0,0.0,0.0,0.0,0.0,0.0,0.0,0.0,0.0,0.0,0.0,0.0,0.0,0.0,0.0,0.0,0.0,0.0,0.0,0.0,0.0,0.0,0.0,0.0,0.0,0.0,0.0,0.0,0.0,0.0,0.0,0.0,0.0,0.0,0.0,0.0,0.0,0.0,0.0,0.0,0.0,0.0,0.0,0.0,0.0,0.0,0.0,0.0,0.0,0.0,0.0,0.0,0.0,0.0,0.0,0.0,0.0,0.0,0.0,0.0,0.0,0.0,0.0,0.0,0.0,0.0,0.0,0.0,0.0,0.0,0.0,0.0,0.0,0.0,0.0,0.0,0.0,0.0,0.0,0.0,0.0,0.0,0.0,0.0,0.0,0.0,0.0,0.0,0.0,0.0,0.0,0.0,0.0,0.0,0.0,0.0,0.0,0.0,0.0,-0.4635,-0.4676,-0.5217,-0.4471,-0.3878,0.0,0.0,0.0,0.0,0.0,0.0,0.0,0.0,0.0,0.0,0.0,0.0,0.0,0.0,0.0,0.0,0.0,0.0,0.0,0.0,0.0,0.0,0.0,0.0,0.0,0.0,0.0,0.0,0.0,0.0,0.0,0.0,0.0,0.0,0.0,0.0,0.0,0.0,0.0,0.0,0.0,0.0,0.0,0.0,0.0,0.0,0.0,0.0,0.0,0.0,0.0,0.0,0.0,0.0,0.0,0.0,0.0,0.0,0.0,0.0,0.0,0.0,0.0,0.0,0.0,0.0,0.0,0.0,0.0,0.0,0.0,0.0,0.0,0.0,0.0,0.0,0.0,0.0,0.0,0.0,0.0,0.0,0.0,0.0,0.0,0.0,0.0,0.0,0.0,0.0,0.0,0.0,0.0,0.0,0.0,0.0,0.0,0.0,0.0,0.0,0.0,0.0,0.0,0.0,0.0,0.0,0.0,0.0,0.0,-0.3637,-0.3959,-0.4711,-0.5799,-0.4834,-0.4205,0.0,0.0,0.0,0.0,0.0,0.0,0.0,0.0,0.0,0.0,0.0,0.0,0.0,0.0,0.0,0.0,0.0,0.0,0.0,0.0,0.0,0.0,0.0,0.0,0.0,0.0,0.0,0.0,0.0,0.0,0.0,0.0,0.0,0.0,0.0,0.0,0.0,0.0,0.0,0.0,0.0,0.0,0.0,0.0,0.0,0.0,0.0,0.0,0.0,0.0,0.0,0.0,0.0,0.0,0.0,0.0,0.0,0.0,0.0,0.0,0.0,0.0,0.0,0.0,0.0,0.0,0.0,0.0,0.0,0.0,0.0,0.0,0.0,0.0,0.0,0.0,0.0,0.0,0.0,0.0,0.0,0.0,0.0,0.0,0.0,0.0,0.0,0.0,0.0,0.0,0.0,0.0,0.0,0.0,0.0,0.0,0.0,0.0,0.0,0.0,0.0,0.0,0.0,0.0,0.0,0.0,0.0,0.0,0.0,-0.3148,0.0,-0.4903,0.0,-0.4759,-0.4146,0.0,0.0,0.0,0.0,0.0,0.0,0.0,0.0,0.0,0.0,0.0,0.0,0.0,0.0,0.0,0.0,0.0,0.0,0.0,0.0,0.0,0.0,0.0,0.0,0.0,0.0,0.0,0.0,0.0,0.0,0.0,0.0,0.0,0.0,0.0,0.0,0.0,0.0,0.0,0.0,0.0,0.0,0.0,0.0,0.0,0.0,0.0,0.0,0.0,0.0,0.0,0.0,0.0,0.0,0.0,0.0,0.0,0.0,0.0,0.0,0.0,0.0,0.0,0.0,0.0,0.0,0.0,0.0,0.0,0.0,0.0,0.0,0.0,0.0,0.0,0.0,0.0,0.0,0.0,0.0,0.0,0.0,0.0,0.0,0.0,0.0,0.0,0.0,0.0,0.0,0.0,0.0,0.0,0.0,0.0,0.0,0.0,0.0,0.0,0.0,0.0,0.0,0.0,0.0,0.0,0.0,0.0,0.0,-0.3124,-0.3965,-0.5045,-0.5257,-0.4469,-0.4199,-0.3627,0.0,0.0,0.0,0.0,0.0,0.0,0.0,0.0,0.0,0.0,0.0,0.0,0.0,0.0,0.0,0.0,0.0,0.0,0.0,0.0,0.0,0.0,0.0,0.0,0.0,0.0,0.0,0.0,0.0,0.0,0.0,0.0,0.0,0.0,0.0,0.0,0.0,0.0,0.0,0.0,0.0,0.0,0.0,0.0,0.0,0.0,0.0,0.0,0.0,0.0,0.0,0.0,0.0,0.0,0.0,0.0,0.0,0.0,0.0,0.0,0.0,0.0,0.0,0.0,0.0,0.0,0.0,0.0,0.0,0.0,0.0,0.0,0.0,0.0,0.0,0.0,0.0,0.0,0.0,0.0,0.0,0.0,0.0,0.0,0.0,0.0,0.0,0.0,0.0,0.0,0.0,0.0,0.0,0.0,0.0,0.0,0.0,0.0,0.0,0.0,0.0,0.0,0.0,0.0,0.0,0.0,0.0,0.0,0.0,-0.3974,-0.4438,-0.5071,-0.5831,-0.4658,-0.4083,0.0,0.0,0.0,0.0,0.0,0.0,0.0,0.0,0.0,0.0,0.0,0.0,0.0,0.0,0.0,0.0,0.0,0.0,0.0,0.0,0.0,0.0,0.0,0.0,0.0,0.0,0.0,0.0,0.0,0.0,0.0,0.0,0.0,0.0,0.0,0.0,0.0,0.0,0.0,0.0,0.0,0.0,0.0,0.0,0.0,0.0,0.0,0.0,0.0,0.0,0.0,0.0,0.0,0.0,0.0,0.0,0.0,0.0,0.0,0.0,0.0,0.0,0.0,0.0,0.0,0.0,0.0,0.0,0.0,0.0,0.0,0.0,0.0,0.0,0.0,0.0,0.0,0.0,0.0,0.0,0.0,0.0,0.0,0.0,0.0,0.0,0.0,0.0,0.0,0.0,0.0,0.0,0.0,0.0,0.0,0.0,0.0,0.0,0.0,0.0,0.0,0.0,0.0,0.0,0.0,0.0,0.0,0.0,0.0,-0.4081,-0.4548,-0.5014,-0.5539,-0.4802,-0.4334,-0.4127,0.0,0.0,0.0,0.0,0.0,0.0,0.0,0.0,0.0,0.0,0.0,0.0,0.0,0.0,0.0,0.0,0.0,0.0,0.0,0.0,0.0,0.0,0.0,0.0,0.0,0.0,0.0,0.0,0.0,0.0,0.0,0.0,0.0,0.0,0.0,0.0,0.0,0.0,0.0,0.0,0.0,0.0,0.0,0.0,0.0,0.0,0.0,0.0,0.0,0.0,0.0,0.0,0.0,0.0,0.0,0.0,0.0,0.0,0.0,0.0,0.0,0.0,0.0,0.0,0.0,0.0,0.0,0.0,0.0,0.0,0.0,0.0,0.0,0.0,0.0,0.0,0.0,0.0,0.0,0.0,0.0,0.0,0.0,0.0,0.0,0.0,0.0,0.0,0.0,0.0,0.0,0.0,0.0,0.0,0.0,0.0,0.0,0.0,0.0,0.0,0.0,0.0,0.0,0.0,0.0,0.0,0.0,0.0,-0.4156,-0.5199,-0.5139,-0.4047,-0.468,-0.4398,0.0,0.0,0.0,0.0,0.0,0.0,0.0,0.0,0.0,0.0,0.0,0.0,0.0,0.0,0.0,0.0,0.0,0.0,0.0,0.0,0.0,0.0,0.0,0.0,0.0,0.0,0.0,0.0,0.0,0.0,0.0,0.0,0.0,0.0,0.0,0.0,0.0,0.0,0.0,0.0,0.0,0.0,0.0,0.0,0.0,0.0,0.0,0.0,0.0,0.0,0.0,0.0,0.0,0.0,0.0,0.0,0.0,0.0,0.0,0.0,0.0,0.0,0.0,0.0,0.0,0.0,0.0,0.0,0.0,0.0,0.0,0.0,0.0,0.0,0.0,0.0,0.0,0.0,0.0,0.0,0.0,0.0,0.0,0.0,0.0,0.0,0.0,0.0,0.0,0.0,0.0,0.0,0.0,0.0,0.0,0.0,0.0,0.0,0.0,0.0,0.0,0.0,0.0,0.0,0.0,0.0,0.0,0.0,0.0,-0.3907,-0.4517,-0.506,-0.5513,-0.4837,-0.4297,0.0,0.0,0.0,0.0,0.0,0.0,0.0,0.0,0.0,0.0,0.0,0.0,0.0,0.0,0.0,0.0,0.0,0.0,0.0,0.0,0.0,0.0,0.0,0.0,0.0,0.0,0.0,0.0,0.0,0.0,0.0,0.0,0.0,0.0,0.0,0.0,0.0,0.0,0.0,0.0,0.0,0.0,0.0,0.0,0.0,0.0,0.0,0.0,0.0,0.0,0.0,0.0,0.0,0.0,0.0,0.0,0.0,0.0,0.0,0.0,0.0,0.0,0.0,0.0,0.0,0.0,0.0,0.0,0.0,0.0,0.0,0.0,0.0,0.0,0.0,0.0,0.0,0.0,0.0,0.0,0.0,0.0,0.0,0.0,0.0,0.0,0.0,0.0,0.0,0.0,0.0,0.0,0.0,0.0,0.0,0.0,0.0,0.0,0.0,0.0,0.0,0.0,0.0,0.0,0.0,0.0,0.0,0.0,-0.3991,-0.3975,-0.4297,-0.4798,-0.5492,-0.4776,-0.4275,0.0,0.0,0.0,0.0,0.0,0.0,0.0,0.0,0.0,0.0,0.0,0.0,0.0,0.0,0.0,0.0,0.0,0.0,0.0,0.0,0.0,0.0,0.0,0.0,0.0,0.0,0.0,0.0,0.0,0.0,0.0,0.0,0.0,0.0,0.0,0.0,0.0,0.0,0.0,0.0,0.0,0.0,0.0,0.0,0.0,0.0,0.0,0.0,0.0,0.0,0.0,0.0,0.0,0.0,0.0,0.0,0.0,0.0,0.0,0.0,0.0,0.0,0.0,0.0,0.0,0.0,0.0,0.0,0.0,0.0,0.0,0.0,0.0,0.0,0.0,0.0,0.0,0.0,0.0,0.0,0.0,0.0,0.0,0.0,0.0,0.0,0.0,0.0,0.0,0.0,0.0,0.0,0.0,0.0,0.0,0.0,0.0,0.0,0.0,0.0,0.0,0.0,0.0,0.0,0.0,0.0,0.0,0.0,-0.4109,-0.426,-0.4412,-0.4543,-0.4536,-0.4606,-0.4258,0.0,0.0,0.0,0.0,0.0,0.0,0.0,0.0,0.0,0.0,0.0,0.0,0.0,0.0,0.0,0.0,0.0,0.0,0.0,0.0,0.0,0.0,0.0,0.0,0.0,0.0,0.0,0.0,0.0,0.0,0.0,0.0,0.0,0.0,0.0,0.0,0.0,0.0,0.0,0.0,0.0,0.0,0.0,0.0,0.0,0.0,0.0,0.0,0.0,0.0,0.0,0.0,0.0,0.0,0.0,0.0,0.0,0.0,0.0,0.0,0.0,0.0,0.0,0.0,0.0,0.0,0.0,0.0,0.0,0.0,0.0,0.0,0.0,0.0,0.0,0.0,0.0,0.0,0.0,0.0,0.0,0.0,0.0,0.0,0.0,0.0,0.0,0.0,0.0,0.0,0.0,0.0,0.0,0.0,0.0,0.0,0.0,0.0,0.0,0.0,0.0,0.0,0.0,0.0,0.0,0.0,0.0,0.0,-0.4421,-0.446,-0.4562,-0.4643,-0.4643,-0.4462,-0.4139,0.0,0.0,0.0,0.0,0.0,0.0,0.0,0.0,0.0,0.0,0.0,0.0,0.0,0.0,0.0,0.0,0.0,0.0,0.0,0.0,0.0,0.0,0.0,0.0,0.0,0.0,0.0,0.0,0.0,0.0,0.0,0.0,0.0,0.0,0.0,0.0,0.0,0.0,0.0,0.0,0.0,0.0,0.0,0.0,0.0,0.0,0.0,0.0,-0.2536,0.0,0.0,0.0,0.0,0.0,0.0,0.0,0.0,0.0,0.0,0.0,0.0,0.0,0.0,0.0,0.0,0.0,0.0,0.0,0.0,0.0,0.0,0.0,0.0,0.0,0.0,0.0,0.0,0.0,0.0,0.0,0.0,0.0,0.0,0.0,0.0,0.0,0.0,0.0,0.0,0.0,0.0,0.0,0.0,0.0,0.0,0.0,0.0,0.0,0.0,0.0,0.0,0.0,0.0,0.0,0.0,0.0,0.0,0.0,-0.4535,-0.4611,-0.465,-0.4694,-0.4687,-0.4538,-0.425,0.0,0.0,0.0,0.0,0.0,0.0,0.0,0.0,0.0,0.0,0.0,0.0,0.0,0.0,0.0,0.0,0.0,0.0,0.0,0.0,0.0,0.0,0.0,0.0,0.0,0.0,0.0,0.0,0.0,0.0,0.0,0.0,0.0,0.0,0.0,0.0,0.0,0.0,0.0,0.0,0.0,0.0,0.0,0.0,0.0,0.0,0.0,0.0,0.0,0.0,0.0,0.0,0.0,0.0,0.0,0.0,0.0,0.0,0.0,0.0,0.0,0.0,0.0,0.0,0.0,0.0,0.0,0.0,0.0,0.0,0.0,0.0,0.0,0.0,0.0,0.0,0.0,0.0,0.0,0.0,0.0,0.0,0.0,0.0,0.0,0.0,0.0,0.0,0.0,0.0,0.0,0.0,0.0,0.0,0.0,0.0,0.0,0.0,0.0,0.0,0.0,0.0,0.0,0.0,0.0,0.0,0.0,-0.4146,-0.455,-0.4701,-0.4728,-0.4728,-0.4724,-0.4724,-0.4443,-0.3849,0.0,0.0,0.0,0.0,0.0,0.0,0.0,0.0,0.0,0.0,0.0,0.0,0.0,0.0,0.0,0.0,0.0,0.0,0.0,0.0,0.0,0.0,0.0,0.0,0.0,0.0,0.0,0.0,0.0,0.0,0.0,0.0,0.0,0.0,0.0,0.0,0.0,0.0,-0.1929,-0.2339,0.0,0.0,0.0,0.0,0.0,0.0,0.0,0.0,-0.355,0.0,0.0,0.0,0.0,0.0,0.0,0.0,0.0,0.0,0.0,0.0,0.0,0.0,0.0,0.0,0.0,0.0,0.0,0.0,0.0,0.0,0.0,0.0,0.0,0.0,0.0,0.0,0.0,0.0,0.0,0.0,0.0,0.0,0.0,0.0,0.0,0.0,0.0,0.0,0.0,0.0,0.0,0.0,0.0,0.0,0.0,0.0,0.0,0.0,0.0,0.0,0.0,0.0,0.0,0.0,0.0,-0.3849,-0.4304,-0.465,-0.486,-0.488,-0.488,-0.488,-0.4884,-0.4599,-0.4005,0.0,0.0,0.0,0.0,0.0,0.0,0.0,0.0,0.0,0.0,0.0,0.0,0.0,0.0,0.0,0.0,0.0,0.0,0.0,0.0,0.0,0.0,0.0,0.0,0.0,0.0,0.0,0.0,0.0,0.0,0.0,0.0,0.0,0.0,0.0,0.0,0.0,0.0,0.0,-0.2899,-0.3097,0.0,0.0,0.0,0.0,0.0,0.0,0.0,0.0,-0.3483,0.0,0.0,0.0,0.0,0.0,0.0,0.0,0.0,0.0,0.0,0.0,0.0,0.0,0.0,0.0,0.0,0.0,0.0,0.0,0.0,0.0,0.0,0.0,0.0,0.0,0.0,0.0,0.0,0.0,0.0,0.0,0.0,0.0,0.0,0.0,0.0,0.0,0.0,0.0,0.0,0.0,0.0,0.0,0.0,0.0,0.0,0.0,0.0,0.0,0.0,0.0,0.0,0.0,0.0,0.0,-0.3768,-0.4412,-0.4761,-0.4901,-0.4989,-0.4992,-0.4918,-0.4765,-0.4436,0.0,0.0,0.0,0.0,0.0,0.0,0.0,0.0,0.0,0.0,0.0,0.0,0.0,0.0,0.0,0.0,0.0,0.0,0.0,0.0,0.0,0.0,0.0,0.0,0.0,0.0,0.0,0.0,0.0,0.0,0.0,0.0,0.0,0.0,0.0,0.0,0.0,0.0,0.0,0.0,-0.2979,-0.3162,-0.3033,0.0,0.0,0.0,0.0,0.0,0.0,-0.2751,-0.2688,0.0,0.0,0.0,0.0,0.0,0.0,0.0,0.0,0.0,0.0,0.0,0.0,0.0,0.0,0.0,0.0,0.0,0.0,0.0,0.0,0.0,0.0,0.0,0.0,0.0,0.0,0.0,0.0,0.0,0.0,0.0,0.0,0.0,0.0,0.0,0.0,0.0,0.0,0.0,0.0,0.0,0.0,0.0,0.0,0.0,0.0,0.0,0.0,0.0,0.0,0.0,0.0,0.0,0.0,0.0,-0.3588,-0.447,-0.4889,-0.4914,-0.4994,-0.5064,-0.4921,-0.468,-0.4314,0.0,0.0,0.0,0.0,0.0,0.0,0.0,0.0,0.0,0.0,0.0,0.0,0.0,0.0,0.0,0.0,0.0,0.0,0.0,0.0,0.0,0.0,0.0,0.0,0.0,0.0,0.0,0.0,0.0,0.0,0.0,0.0,0.0,0.0,0.0,0.0,0.0,0.0,0.0,0.0,0.0,-0.3256,-0.3259,-0.3442,0.0,0.0,0.0,0.0,-0.3604,-0.2696,0.0,0.0,0.0,0.0,0.0,0.0,0.0,0.0,0.0,0.0,0.0,0.0,0.0,0.0,0.0,0.0,0.0,0.0,0.0,0.0,0.0,0.0,0.0,0.0,0.0,0.0,0.0,0.0,0.0,0.0,0.0,0.0,0.0,0.0,0.0,0.0,0.0,0.0,0.0,0.0,0.0,0.0,0.0,0.0,0.0,0.0,0.0,0.0,0.0,0.0,0.0,0.0,0.0,0.0,0.0,0.0,-0.3571,-0.4468,-0.4905,-0.4901,-0.5057,-0.506,-0.4921,-0.4884,-0.4528,0.0,0.0,0.0,0.0,0.0,0.0,0.0,0.0,0.0,0.0,0.0,0.0,0.0,0.0,0.0,0.0,0.0,0.0,0.0,0.0,0.0,0.0,0.0,0.0,0.0,0.0,0.0,0.0,0.0,0.0,0.0,0.0,0.0,0.0,0.0,0.0,0.0,0.0,0.0,0.0,0.0,-0.3806,-0.4046,-0.3823,-0.366,0.0,0.0,-0.2685,-0.415,-0.3945,0.0,0.0,0.0,0.0,0.0,0.0,0.0,0.0,0.0,0.0,0.0,0.0,0.0,0.0,0.0,0.0,0.0,0.0,0.0,0.0,0.0,0.0,0.0,0.0,0.0,0.0,0.0,0.0,0.0,0.0,0.0,0.0,0.0,0.0,0.0,0.0,0.0,0.0,0.0,0.0,0.0,0.0,0.0,0.0,0.0,0.0,0.0,0.0,0.0,0.0,0.0,0.0,0.0,0.0,0.0,-0.2665,-0.3585,-0.4439,-0.4903,-0.4918,-0.5145,-0.5152,-0.4921,-0.4748,-0.4351,0.0,0.0,0.0,0.0,0.0,0.0,0.0,0.0,0.0,0.0,0.0,0.0,0.0,0.0,0.0,0.0,0.0,0.0,0.0,0.0,0.0,0.0,0.0,0.0,0.0,0.0,0.0,0.0,0.0,0.0,0.0,0.0,0.0,0.0,0.0,0.0,0.0,0.0,0.0,0.0,0.0,0.0,-0.4159,-0.4143,0.0,0.0,0.0,-0.3676,-0.425,0.0,0.0,0.0,0.0,0.0,0.0,0.0,0.0,0.0,0.0,0.0,0.0,0.0,0.0,0.0,0.0,0.0,0.0,0.0,0.0,0.0,0.0,0.0,0.0,0.0,0.0,0.0,0.0,0.0,0.0,0.0,0.0,0.0,0.0,0.0,0.0,0.0,0.0,0.0,0.0,0.0,0.0,0.0,0.0,0.0,0.0,0.0,0.0,0.0,0.0,0.0,0.0,0.0,0.0,0.0,0.0,0.0,-0.3588,-0.4463,-0.4918,-0.4928,-0.5209,-0.522,-0.4925,-0.4694,0.0,0.0,0.0,0.0,0.0,0.0,0.0,0.0,0.0,0.0,0.0,0.0,0.0,0.0,0.0,0.0,0.0,0.0,0.0,0.0,0.0,0.0,0.0,0.0,0.0,0.0,0.0,-0.223,0.0,0.0,0.0,0.0,0.0,0.0,0.0,0.0,0.0,0.0,0.0,0.0,0.0,0.0,-0.3865,-0.4164,-0.4389,-0.4386,0.0,0.0,-0.4442,-0.4319,-0.3804,-0.3519,0.0,0.0,0.0,0.0,0.0,0.0,0.0,0.0,0.0,0.0,0.0,0.0,0.0,0.0,0.0,0.0,0.0,0.0,0.0,0.0,0.0,0.0,0.0,0.0,0.0,0.0,0.0,0.0,0.0,0.0,0.0,0.0,0.0,0.0,0.0,0.0,0.0,0.0,0.0,0.0,0.0,0.0,0.0,0.0,0.0,0.0,0.0,0.0,0.0,0.0,0.0,0.0,0.0,0.0,0.0,-0.3595,-0.4463,-0.4921,-0.4928,-0.5209,-0.522,-0.4931,-0.4897,-0.4477,0.0,0.0,0.0,0.0,0.0,0.0,0.0,0.0,0.0,0.0,0.0,0.0,0.0,0.0,0.0,0.0,0.0,0.0,0.0,0.0,0.0,0.0,0.0,0.0,0.0,0.0,0.0,0.0,0.0,0.0,0.0,0.0,0.0,0.0,0.0,0.0,0.0,0.0,0.0,0.0,0.0,-0.4177,-0.4212,-0.4351,-0.4513,0.0,0.0,-0.446,-0.4484,-0.4446,-0.4414,-0.4442,0.0,0.0,0.0,0.0,0.0,0.0,0.0,0.0,0.0,0.0,0.0,0.0,0.0,0.0,0.0,0.0,0.0,0.0,0.0,0.0,0.0,0.0,0.0,0.0,0.0,0.0,0.0,0.0,0.0,0.0,0.0,0.0,0.0,0.0,0.0,0.0,0.0,0.0,0.0,0.0,0.0,0.0,0.0,0.0,0.0,0.0,0.0,0.0,0.0,0.0,0.0,0.0,0.0,-0.2766,-0.3849,-0.4555,-0.4962,-0.5053,-0.5254,-0.5223,-0.4925,-0.4918,-0.4706,0.0,0.0,0.0,0.0,0.0,0.0,0.0,0.0,0.0,0.0,0.0,0.0,0.0,0.0,0.0,0.0,0.0,0.0,0.0,0.0,0.0,0.0,0.0,0.0,0.0,0.0,0.0,0.0,-0.208,-0.2384,-0.339,0.0,0.0,0.0,0.0,0.0,0.0,0.0,0.0,0.0,0.0,-0.4418,-0.449,-0.4498,0.0,0.0,-0.4671,-0.4622,-0.4529,-0.4608,-0.4612,-0.4364,-0.378,0.0,0.0,0.0,0.0,0.0,0.0,0.0,0.0,0.0,0.0,0.0,0.0,0.0,0.0,0.0,0.0,0.0,0.0,0.0,0.0,0.0,0.0,0.0,0.0,0.0,0.0,0.0,0.0,0.0,0.0,0.0,0.0,0.0,0.0,0.0,0.0,0.0,0.0,0.0,0.0,0.0,0.0,0.0,0.0,0.0,0.0,0.0,0.0,0.0,0.0,0.0,0.0,-0.2893,-0.3966,-0.473,-0.5054,-0.5128,-0.5281,-0.524,-0.4996,-0.4942,-0.4773,0.0,0.0,0.0,0.0,0.0,0.0,0.0,0.0,0.0,0.0,0.0,0.0,0.0,0.0,0.0,0.0,0.0,0.0,0.0,0.0,0.0,0.0,0.0,0.0,0.0,0.0,0.0,0.0,-0.218,-0.2412,-0.2929,0.0,0.0,0.0,0.0,0.0,0.0,0.0,0.0,0.0,0.0,-0.4583,-0.4657,-0.4643,-0.4643,-0.4634,-0.4666,-0.466,-0.4611,-0.469,-0.4539,-0.3915,0.0,0.0,0.0,0.0,0.0,0.0,0.0,0.0,0.0,0.0,0.0,0.0,0.0,0.0,0.0,0.0,0.0,0.0,0.0,0.0,0.0,0.0,0.0,0.0,0.0,0.0,0.0,-0.0929,0.0,0.0,-0.0923,0.0,0.0,0.0,0.0,0.0,0.0,0.0,0.0,0.0,0.0,0.0,0.0,0.0,0.0,0.0,0.0,0.0,0.0,0.0,0.0,0.0,0.0,-0.3117,-0.4026,-0.4916,-0.5308,-0.5131,-0.5281,-0.5284,-0.5065,-0.4992,-0.4704,-0.4239,0.0,0.0,0.0,0.0,0.0,0.0,0.0,0.0,0.0,0.0,0.0,0.0,0.0,0.0,0.0,0.0,0.0,0.0,0.0,0.0,0.0,0.0,0.0,0.0,0.0,0.0,-0.1854,-0.1806,-0.1835,0.0,0.0,0.0,0.0,0.0,0.0,0.0,0.0,0.0,0.0,-0.4672,-0.4706,-0.4516,-0.471,-0.4793,-0.4568,-0.4508,-0.4591,-0.4766,-0.4759,-0.4298,0.0,0.0,0.0,0.0,0.0,0.0,0.0,0.0,0.0,0.0,0.0,0.0,0.0,0.0,0.0,0.0,0.0,0.0,0.0,0.0,0.0,0.0,0.0,0.0,0.0,0.0,0.0,-0.1898,-0.2229,0.0,0.0,0.0,0.0,0.0,0.0,0.0,0.0,0.0,0.0,0.0,-0.4187,-0.4403,0.0,0.0,0.0,0.0,0.0,0.0,0.0,0.0,0.0,0.0,0.0,0.0,-0.329,-0.444,-0.5067,-0.5359,-0.5277,-0.5401,-0.5287,-0.5131,-0.5417,-0.5392,-0.4813,0.0,0.0,0.0,0.0,0.0,0.0,0.0,0.0,0.0,0.0,0.0,0.0,0.0,0.0,0.0,0.0,0.0,0.0,0.0,0.0,0.0,0.0,0.0,0.0,0.0,-0.2322,0.0,0.0,0.0,0.0,0.0,0.0,0.0,0.0,0.0,0.0,0.0,-0.4641,-0.4535,-0.4709,-0.4889,-0.4917,-0.4894,-0.4897,0.0,0.0,0.0,0.0,0.0,0.0,0.0,0.0,0.0,0.0,0.0,0.0,0.0,0.0,-0.4737,-0.4529,-0.4108,-0.3753,-0.3576,0.0,0.0,0.0,0.0,0.0,0.0,0.0,0.0,0.0,0.0,0.0,0.0,0.0,0.0,-0.389,0.0,-0.5286,0.0,0.0,0.0,0.0,0.0,0.0,0.0,0.0,-0.4581,-0.45,-0.4357,-0.4799,-0.505,0.0,-0.4738,-0.4284,0.0,0.0,0.0,0.0,0.0,0.0,0.0,0.0,-0.3544,-0.4606,-0.514,-0.5375,-0.5415,-0.5686,-0.5763,-0.5649,-0.6174,-0.6212,-0.571,-0.525,-0.4426,0.0,0.0,0.0,0.0,0.0,0.0,0.0,0.0,0.0,0.0,0.0,0.0,0.0,0.0,0.0,0.0,0.0,0.0,0.0,0.0,0.0,0.0,0.0,-0.2332,0.0,0.0,0.0,0.0,0.0,0.0,0.0,0.0,0.0,-0.4506,-0.4766,-0.4882,-0.4749,-0.4874,-0.4988,-0.5074,0.0,0.0,0.0,0.0,0.0,0.0,0.0,-0.5108,-0.5206,-0.5294,-0.5349,-0.5279,-0.528,-0.5288,-0.5098,0.0,0.0,-0.4757,-0.4392,-0.4285,-0.4392,-0.4732,-0.4975,-0.4911,-0.4942,-0.4965,0.0,0.0,0.0,0.0,0.0,0.0,0.0,0.0,-0.6064,-0.6671,0.0,-0.6828,0.0,0.0,0.0,0.0,0.0,-0.5075,0.0,0.0,-0.5717,-0.5299,-0.4964,-0.5302,-0.5579,-0.5803,-0.5644,-0.5342,-0.4887,-0.3966,0.0,0.0,0.0,0.0,0.0,0.0,-0.3899,-0.4529,-0.5112,-0.5406,-0.5484,-0.6268,-0.6715,-0.6759,-0.7088,-0.714,-0.6815,-0.642,-0.5555,-0.4152,-0.4471,0.0,0.0,0.0,0.0,0.0,0.0,0.0,0.0,0.0,0.0,0.0,0.0,0.0,0.0,0.0,0.0,0.0,0.0,0.0,0.0,-0.2137,0.0,0.0,0.0,0.0,0.0,0.0,0.0,0.0,0.0,0.0,-0.4883,-0.4997,-0.5079,-0.5108,0.0,0.0,0.0,0.0,-0.5755,-0.5769,-0.5762,-0.5679,-0.5679,-0.5593,-0.5538,-0.541,0.0,0.0,-0.5637,-0.5725,-0.5708,-0.5494,-0.555,-0.5483,-0.5055,-0.4902,-0.4854,-0.4928,-0.5033,-0.5138,-0.5155,-0.5257,-0.5362,-0.9659,0.0,0.0,0.0,0.0,-0.7602,-0.7741,-0.783,-0.7421,-0.7506,-0.8122,-0.9405,0.0,0.0,0.0,0.0,0.0,0.0,-0.7424,-0.7852,-0.7721,-0.689,-0.5587,-0.6386,-0.6553,-0.6151,-0.5794,-0.5525,-0.5382,-0.4986,-0.444,-0.3778,0.0,0.0,0.0,0.0,-0.4017,-0.4921,-0.522,-0.5788,-0.6601,-0.6662,-0.7164,-0.8153,-0.7617,-0.7449,-0.7778,-0.6977,-0.6273,-0.5883,-0.5859,0.0,0.0,0.0,0.0,0.0,0.0,0.0,0.0,0.0,0.0,0.0,0.0,0.0,0.0,0.0,0.0,0.0,0.0,0.0,-0.2898,-0.271,-0.2779,0.0,0.0,0.0,0.0,0.0,0.0,0.0,0.0,0.0,-0.5315,-0.5315,-0.5315,0.0,0.0,-0.563,-0.5758,-0.5725,-0.5749,-0.5823,-0.5749,0.0,-0.5749,-0.5657,-0.5647,-0.581,-0.6003,-0.6115,-0.6153,-0.618,-0.6115,-0.6067,-0.6053,-0.604,-0.5902,-0.5508,-0.5294,-0.5372,-0.5433,-0.5494,-0.5589,-0.5647,-0.5674,-1.165,-1.0492,-1.004,-0.9693,-0.9461,-0.9634,-0.9844,-1.0107,-0.933,-0.9495,-1.0251,-1.1038,-1.0322,-0.8496,-0.8392,0.0,0.0,0.0,-0.901,-0.9619,-0.9251,-0.8446,-0.7311,-0.8045,-0.8107,-0.7509,-0.7335,-0.6957,-0.6324,-0.6293,-0.5683,-0.466,0.0,0.0,-0.4691,-0.4282,-0.44,-0.5029,-0.6172,-0.6968,-0.7465,-0.7625,-0.8281,-0.9463,-0.8669,-0.841,-0.8783,-0.7966,-0.7466,-0.7448,-0.7187,-0.6693,0.0,0.0,0.0,0.0,0.0,0.0,0.0,0.0,0.0,0.0,0.0,-0.44,0.0,0.0,0.0,0.0,-0.235,-0.2804,-0.3297,-0.32,0.0,0.0,0.0,0.0,0.0,0.0,0.0,-0.4921,-0.5213,-0.5488,-0.5728,-0.5735,-0.5732,-0.5626,-0.5714,-0.5827,-0.5967,0.0,-0.5891,-0.5891,-0.5945,-0.5983,-0.5983,-0.5911,-0.5918,-0.6091,-0.6196,-0.6257,-0.6261,-0.6261,-0.6261,-0.6247,-0.6263,-0.6277,-0.628,-0.5971,-0.5694,-0.5681,-0.5725,-0.5793,-0.5881,-0.5942,-0.5983,-1.33,-1.3186,-1.2098,-1.161,-1.159,-1.1857,-1.1892,-1.1814,-1.1644,-1.2032,-1.2795,-1.1925,-1.1516,-1.1408,-1.0547,0.0,-1.1467,-1.0318,-1.0381,-1.1301,-1.0512,-0.9974,-0.9661,-1.01,-1.0088,-0.9718,-0.9724,-0.9053,-0.772,-0.769,-0.7078,-0.594,-0.5777,-0.5614,-0.5393,-0.5105,-0.4963,-0.496,-0.7517,-0.8599,-0.8157,-0.898,-0.981,-1.0555,-0.9993,-0.9686,-0.9673,-0.9118,-0.8804,-0.8791,-0.8297,-0.7711,-0.7156,0.0,0.0,0.0,0.0,0.0,0.0,0.0,0.0,0.0,0.0,0.0,0.0,0.0,0.0,0.0,-0.2768,0.0,-0.35,-0.3792,0.0,0.0,0.0,-0.4542,-0.5354,-0.5264,-0.5237,-0.548,0.0,0.0,-0.6064,-0.6207,-0.6321,-0.6177,-0.6033,-0.5925,-0.6061,-0.6091,-0.6084,-0.6098,-0.6207,-0.6373,-0.6295,-0.6288,-0.6288,-0.6305,-0.6295,-0.6312,-0.6312,-0.639,-0.6302,-0.6312,-0.6298,-0.6376,-0.6295,-0.6362,-0.6283,-0.5939,-0.5966,-0.6044,-0.6054,-0.6146,-0.623,-1.4082,-1.3854,-1.3574,-1.3193,-1.2792,-1.2859,-1.2886,-1.2809,-1.2802,-1.2792,-1.2797,-1.2825,-1.2553,-1.2098,-1.2104,-1.2216,-1.2445,-1.2363,-1.2486,-1.2693,-1.2536,-1.2403,-1.2215,-1.1662,-1.192,-1.2763,-1.0964,-0.9902,-0.9557,-0.9316,-0.9029,-0.8699,-0.8496,-0.7444,-0.5621,-0.5607,-0.5587,-0.5624,-0.7938,-0.9232,-0.9344,-1.0126,-1.0588,-1.0561,-0.9993,-0.9686,-0.9679,-0.9125,-0.8804,-0.8804,-0.8677,-0.8507,-0.8359,-0.7055,0.0,0.0,0.0,0.0,0.0,0.0,0.0,0.0,0.0,-0.406,-0.542,0.0,-0.3364,0.0,-0.3881,-0.4737,-0.4713,-0.4956,0.0,0.0,-0.4743,-0.5027,-0.5755,-0.5644,-0.5627,-0.6003,-0.6184,-0.6251,-0.6508,-0.6573,-0.6901,-0.7652,-0.706,-0.6502,-0.6455,-0.6461,-0.6539,-0.6451,-0.6556,-0.6597,-0.6586,-0.6597,-0.659,-0.6597,-0.659,-0.6593,-0.6597,-0.6678,-0.6597,-0.6342,-0.643,-0.6597,-0.6586,-0.6597,-0.6573,-0.6488,-0.6342,-0.6207,-0.621,-0.624,-0.6261,-1.4623,-1.4476,-1.4476,-1.4289,-1.3968,-1.3714,-1.3601,-1.3607,-1.3601,-1.3427,-1.314,-1.3182,-1.3033,-1.2732,-1.3013,-1.3146,-1.3166,-1.346,-1.3601,-1.3601,-1.3601,-1.3601,-1.3601,-1.3009,-1.3241,-1.404,-1.245,-1.1445,-1.0847,-1.0715,-1.0327,-0.9925,-0.9632,-0.8803,-0.7457,-0.6467,-0.6005,-0.6051,-0.9067,-1.0661,-1.0692,-1.0922,-1.0855,-1.0624,-0.9987,-0.9619,-0.9486,-0.9045,-0.8804,-0.8804,-0.8804,-0.881,-0.8779,-0.7634,-0.6747,0.0,0.0,0.0,0.0,0.0,0.0,0.0,0.0,0.0,0.0,0.0,-0.426,-0.3985,-0.546,-0.6415,-0.6391,-0.6257,-0.6153,-0.6043,-0.5684,-0.5569,-0.604,-0.6067,-0.6105,-0.6417,-0.6454,-0.6546,-0.6766,-0.7213,-0.7823,-0.856,-0.8489,-0.8178,-0.7458,-0.7026,-0.6698,-0.6615,-0.6698,-0.6702,-0.6702,-0.6702,-0.6702,-0.6702,-0.6698,-0.6698,-0.6698,-0.6785,-0.6702,-0.6529,-0.6615,-0.6702,-0.6871,-0.6785,-0.6702,-0.6681,-0.6573,-0.6468,-0.6458,-0.6454,-0.6458,-1.4997,-1.506,-1.506,-1.506,-1.4923,-1.4416,-1.4202,-1.4195,-1.4155,-1.3968,-1.3605,-1.3434,-1.332,-1.3333,-1.3587,-1.3701,-1.3721,-1.3968,-1.4088,-1.4088,-1.4088,-1.4088,-1.4088,-1.4088,-1.4135,-1.4084,-1.3796,-1.3065,-1.2011,-1.1974,-1.1468,-1.0638,-1.0333,-1.0126,-1.0,-0.8102,-0.706,-0.7124,-1.0522,-1.2155,-1.187,-1.1336,-1.0909,-1.0672,-1.0007,-0.9559,-0.925,-0.8985,-0.8804,-0.8804,-0.8804,-0.8808,-0.8774,-0.801,-0.7395,0.0,-0.6606,0.0,0.0,0.0,0.0,0.0,0.0,0.0,0.0,-0.5073,-0.5275,-0.5937,-0.7432,-0.8327,-0.8234,-0.7631,-0.7337,-0.7334,-0.6559,-0.6125,-0.6298,-0.6427,-0.6559,-0.6712,-0.6729,-0.6787,-0.6929,-0.7885,-0.8541,-0.9091,-0.963,-0.9681,-0.8888,-0.7764,-0.7028,-0.684,-0.6756,-0.6793,-0.6787,-0.6773,-0.6773,-0.6766,-0.678,-0.6843,-0.6773,-0.6857,-0.685,-0.6766,-0.678,-0.6857,-0.7101,-0.6937,-0.6766,-0.678,-0.6766,-0.6739,-0.6692,-0.6675,-0.6702,-1.517,-1.497,-1.506,-1.506,-1.4957,-1.4843,-1.4796,-1.4783,-1.4342,-1.4078,-1.4001,-1.3941,-1.3921,-1.3928,-1.3981,-1.4008,-1.4008,-1.4062,-1.4088,-1.4088,-1.4088,-1.4088,-1.4088,-1.4088,-1.4062,-1.4099,-1.4008,-1.3884,-1.3658,-1.3346,-1.3147,-1.2971,-1.2702,-1.2433,-1.2203,0.0,0.0,0.0,-1.1916,-1.2197,-1.1942,-1.153,-1.1202,-1.0902,-1.0114,0.0,-0.9586,-0.9092,-0.8804,-0.8804,-0.8804,0.0,0.0,0.0,0.0,0.0,0.0,0.0,0.0,0.0,0.0,0.0,-0.7061,-0.7626,-0.9208,-0.6913,-0.6206,-0.8391,-0.9888,-1.0365,-0.9449,-0.8748,-0.816,-0.7705,-0.6801,-0.6322,-0.6576,-0.6641,-0.6715,-0.6865,-0.6885,-0.6939,-0.7068,-0.7271,-0.8146,-0.9826,-0.9662,-0.9552,-1.0062,-0.9099,-0.8092,-0.7229,-0.7031,-0.7051,-0.7054,-0.7044,-0.7027,-0.7058,-0.7058,-0.7051,-0.7041,-0.7048,-0.7051,-0.7044,-0.7054,-0.7051,-0.7051,-0.7058,-0.7037,-0.7051,-0.7051,-0.6987,-0.6753,-0.6702,-0.6702,-1.5524,0.0,-1.5391,-1.5391,0.0,-1.5398,-1.5391,-1.5357,-1.4821,-1.4555,-1.4522,-1.4522,-1.4442,-1.4295,-1.4302,-1.4229,-1.4088,-1.4088,-1.4088,-1.4088,-1.4088,-1.4088,-1.4088,-1.4088,-1.4088,-1.4088,-1.4088,-1.4088,-1.4075,-1.3935,-1.3861,-1.3861,-1.3567,-1.334,-1.3186,-1.2628,-1.2283,-1.2291,-1.2325,-1.2231,-1.2078,-1.1797,-1.1436,-1.0995,-1.0428,0.0,0.0,0.0,0.0,0.0,0.0,0.0,0.0,0.0,0.0,-0.8557,-0.8424,-0.8404,-0.855,-0.8711,-0.881,-0.8789,-0.9337,-1.0014,-1.0951,-0.964,-0.9029,-0.9628,-1.1011,-1.1526,-1.0842,-0.9713,-0.8905,-0.8585,-0.7449,-0.6654,-0.679,-0.6875,-0.6946,-0.7014,-0.6947,-0.7065,-0.7129,-0.7665,-0.836,-0.9579,-0.9749,-0.9666,-0.9666,-0.9323,-0.8452,-0.7316,-0.7139,-0.7139,-0.7139,-0.7139,-0.7139,-0.7139,-0.7139,-0.7139,-0.7139,-0.7139,-0.7139,-0.7139,-0.7139,-0.7139,-0.7139,-0.7139,-0.7139,-0.7139,-0.7139,-0.7102,-0.6943,-0.6919,-0.6915,-1.5825,-1.5825,-1.5825,-1.5825,-1.5825,-1.5825,-1.5825,-1.5792,0.0,0.0,0.0,-1.506,-1.483,-1.4603,-1.4596,-1.4469,-1.4249,-1.4188,-1.4168,-1.4162,-1.4115,-1.4088,-1.4088,-1.4088,-1.4088,-1.4088,-1.4088,-1.4088,-1.4088,-1.4088,-1.4088,-1.4062,-1.3841,-1.3667,-1.3459,-1.2752,-1.2332,-1.2318,-1.2305,-1.2305,-1.2298,-1.2017,-1.1637,-1.1156,-1.0826,-1.0396,-0.986,-0.974,-0.9502,-0.9019,-0.9131,-0.9388,-0.9695,-0.9451,-0.9426,-0.9659,-0.9686,-0.9706,-0.9753,-0.9813,-0.988,-0.9847,-1.0912,-1.1567,-1.1528,-1.1876,-1.165,-1.0557,-1.1674,-1.2345,-1.2064,-1.0574,-0.9612,-0.9572,-0.8014,-0.6932,-0.6966,-0.7065,-0.7129,-0.7139,-0.7132,-0.7139,-0.7139,-0.7837,-0.8715,-0.8978,-0.9666,-1.0009,-0.9148,-0.8715,-0.8189,-0.7316,-0.7139,-0.7139,-0.7139,-0.7139,-0.7139,-0.7139,-0.7139,-0.7139,-0.7139,-0.7139,-0.7139,-0.7139,-0.7139,-0.7139,-0.7139,-0.7139,-0.7139,-0.7139,-0.7139,-0.7139,-0.7139,-0.7139,-0.7126,-1.5825,-1.5825,-1.5825,-1.5825,-1.5825,-1.5825,-1.5825,-1.5805,-1.5478,-1.5504,-1.5673,-1.517,-1.4943,-1.4903,-1.4903,-1.4883,-1.483,-1.4583,-1.4462,-1.4442,-1.4202,-1.4088,-1.4088,-1.4088,-1.4088,-1.4088,-1.4088,-1.4088,-1.4088,-1.4088,-1.4088,-1.4082,-1.4041,-1.3774,-1.328,-1.2654,-1.2332,-1.2311,-1.2305,-1.2305,-1.2298,-1.2017,-1.1837,-1.1724,-1.1041,-1.0591,-1.0497,-0.996,-0.9666,-0.9562,-0.9426,-0.9491,-0.9684,-0.9819,-0.9833,-0.9744,-0.9686,-0.9793,-1.0047,-1.0356,-1.0437,-1.0536,-1.1496,-1.2199,-1.2134,-1.1764,-1.1653,-1.1906,-1.2553,-1.2959,-1.2609,-1.0931,-0.9806,-0.9893,-0.8151,-0.6976,-0.7088,-0.7122,-0.7139,-0.7139,-0.7139,-0.7139,-0.7139,-0.7316,-0.7841,-0.8627,-0.8973,-0.9065,-0.8711,-0.8013,-0.7404,-0.7139,-0.7139,-0.7139,-0.7139,-0.7139,-0.7139,-0.7139,-0.7139,-0.7139,-0.7139,-0.7139,-0.7139,-0.7139,-0.7139,-0.7139,-0.7139,-0.7139,-0.7139,-0.7139,-0.7139,-0.7139,-0.7139,-0.7139,-0.7139,-1.5825,-1.5825,-1.5825,-1.5825,-1.5825,-1.5825,-1.5825,-1.5818,-1.5691,-1.5671,-1.5756,-1.5537,-1.5344,-1.5204,-1.5204,-1.5117,-1.4957,-1.4823,-1.4763,-1.4736,-1.4462,-1.4223,-1.4111,-1.4064,-1.4088,-1.4088,-1.4088,-1.4088,-1.4088,-1.4088,-1.4088,-1.4088,-1.4088,-1.3868,-1.338,-1.3034,-1.2733,-1.2552,-1.2385,-1.2305,-1.2298,-1.2171,-1.2031,-1.1877,-1.1463,-1.1116,-1.0802,-1.0534,-1.0322,-1.0198,-0.9854,-0.9854,-1.0185,-1.0052,-1.0053,-1.0147,-1.0307,-1.0454,-1.0581,-1.0862,-1.1055,-1.1077,-1.179,-1.2285,-1.2317,-1.2089,-1.2084,-1.2505,-1.1835,-1.1523,-1.1969,-1.0319,-0.9345,-1.0104,-0.8267,-0.7327,-0.7822,-0.7401,-0.7139,-0.7139,-0.7139,-0.7139,-0.7139,-0.7139,-0.7228,-0.7841,-0.7929,-0.7929,-0.7925,-0.7492,-0.7139,-0.7139,-0.7139,-0.7139,-0.7139,-0.7139,-0.7139,-0.7139,-0.7139,-0.7139,-0.7139,-0.7139,-0.7139,-0.7139,-0.7139,-0.7139,-0.7139,-0.7139,-0.7139,-0.7139,-0.7139,-0.7139,-0.7139,-0.7139,-0.7139,-1.5825,-1.5825,-1.5825,-1.5825,-1.5825,-1.5825,-1.5825,-1.5825,-1.5825,-1.5825,-1.5825,-1.5825,-1.5698,-1.5504,-1.5498,-1.5371,-1.517,-1.509,-1.5064,-1.5037,-1.4756,-1.4394,-1.4115,-1.4183,-1.4148,-1.4095,-1.4088,-1.4088,-1.4088,-1.4088,-1.4088,-1.4088,-1.4088,-1.3935,-1.3654,-1.3464,-1.3173,-1.2849,-1.2512,-1.2284,-1.2305,-1.2305,-1.2191,-1.1984,-1.1897,-1.1727,-1.1223,-1.1122,-1.0954,-1.06,-1.0338,-1.0345,-1.0767,-1.0483,-1.0445,-1.0748,-1.0969,-1.1122,-1.1196,-1.1321,-1.149,-1.1618,-1.2042,-1.2308,-1.2271,-1.2305,-1.2425,-1.2573,-1.1688,-1.1246,-1.1705,-1.0226,-0.9262,-1.003,-0.8348,-0.7643,-0.8536,-0.783,-0.7217,-0.7397,-0.7316,-0.7139,-0.7139,-0.7139,-0.7139,-0.7139,-0.7139,-0.7139,-0.7139,-0.7139,-0.7139,-0.7139,-0.7139,-0.7139,-0.7139,-0.7139,-0.7139,-0.7139,-0.7139,-0.7139,-0.7139,-0.7139,-0.7139,-0.7139,-0.7139,-0.7139,-0.7139,-0.7139,-0.7139,-0.7139,-0.7139,-0.7139,-0.7139,-0.7139,-0.7139,-1.5825,-1.5825,-1.5825,-1.5825,-1.5825,-1.5825,-1.5825,-1.5825,-1.5825,-1.5825,-1.5825,-1.5825,-1.5812,-1.5792,-1.5778,-1.5745,-1.5705,-1.5478,-1.5351,-1.5317,-1.5057,-1.4674,-1.4241,-1.4382,-1.4342,-1.4115,-1.4088,-1.4088,-1.4088,-1.4088,-1.4088,-1.4088,-1.4088,-1.3941,-1.3687,-1.3851,-1.3627,-1.2842,-1.2457,-1.2313,-1.2318,-1.2305,-1.2291,-1.2258,-1.2011,-1.185,-1.175,-1.153,-1.1132,-1.0634,-1.0596,-1.0763,-1.1215,-1.1289,-1.1309,-1.1323,-1.1369,-1.1503,-1.175,-1.1571,-1.1625,-1.2145,-1.2245,-1.2265,-1.2298,-1.2305,-1.2425,-1.2722,-1.3345,-1.3406,-1.332,-1.1466,-1.0211,-1.0206,-0.8475,-0.7614,-0.8611,-0.78,-0.753,-0.8623,-0.7749,-0.7139,-0.7228,-0.7228,-0.7228,-0.7316,-0.7312,-0.7228,-0.7143,-0.7071,-0.7163,-0.7156,-0.7149,-0.7149,-0.7146,-0.7139,-0.7139,-0.7139,-0.7139,-0.7139,-0.7139,-0.7139,-0.7139,-0.7139,-0.7139,-0.7139,-0.7139,-0.7139,-0.7139,-0.7139,-0.7139,-0.7139,-0.7139,-0.7139,-0.7139,-1.5825,-1.5825,-1.5825,-1.5825,-1.5825,-1.5825,-1.5825,-1.5825,-1.5825,-1.5825,-1.5825,-1.5825,-1.5825,-1.5825,-1.5825,-1.5825,-1.5818,-1.5705,-1.5558,-1.5378,-1.5097,-1.5007,-1.5033,-1.4435,-1.4195,-1.4095,-1.4088,-1.4088,-1.4088,-1.4088,-1.4088,-1.4088,-1.4088,-1.4021,-1.3915,-1.4005,-1.3716,-1.3039,-1.257,-1.2273,-1.2284,-1.2305,-1.2305,-1.2298,-1.2184,-1.2031,-1.1884,-1.175,-1.152,-1.1136,-1.1198,-1.1436,-1.1902,-1.1737,-1.1512,-1.1436,-1.1597,-1.1817,-1.2111,-1.2038,-1.2012,-1.2291,-1.2305,-1.2305,-1.2305,-1.2305,-1.2492,-1.3013,-1.3674,-1.351,-1.2035,-1.0474,-0.9579,-0.9401,-0.8078,-0.7815,-0.9657,-1.0712,-1.1009,-1.0033,-0.8245,-0.746,-0.8009,-0.8193,-0.8193,-0.8193,-0.8105,-0.7937,-0.7323,-0.7121,-0.7178,-0.7288,-0.735,-0.7319,-0.72,-0.7139,-0.7143,-0.7143,-0.7139,-0.7139,-0.7139,-0.7139,-0.7139,-0.7139,-0.7139,-0.7139,-0.7139,-0.7139,-0.7139,-0.7139,-0.7139,-0.7139,-0.7139,-0.7139,-0.7139,-1.6292,-1.6298,-1.6298,-1.6109,-1.5825,-1.5825,-1.5825,-1.5825,-1.5825,-1.5825,-1.5825,-1.5825,-1.5825,-1.5825,-1.5825,-1.5825,-1.5825,-1.5825,-1.5718,-1.5504,-1.5291,-1.5314,-1.5455,-1.4736,-1.4235,-1.4108,-1.4088,-1.4088,-1.4088,-1.4088,-1.4088,-1.4088,-1.4088,-1.4088,-1.4088,-1.4088,-1.3841,-1.3287,-1.2632,-1.2337,-1.241,-1.2345,-1.2305,-1.2305,-1.2305,-1.2198,-1.2004,-1.1991,-1.1891,-1.1677,-1.1753,-1.199,-1.2228,-1.199,-1.1823,-1.1683,-1.187,-1.2078,-1.2291,-1.2305,-1.2305,-1.2305,-1.2305,-1.2338,-1.2472,-1.2432,-1.2625,-1.3273,-1.3788,-1.3209,-1.1386,-1.0009,-0.9318,-0.8886,-0.8181,-0.8603,-1.0361,-1.2724,-1.3194,-1.1246,-0.9474,-0.8074,-0.836,-0.8627,-0.8819,-0.8962,-0.8882,-0.8823,-0.7971,-0.7538,-0.7152,-0.7434,-0.7622,-0.7595,-0.7309,-0.7234,-0.721,-0.7187,-0.719,-0.7139,-0.7139,-0.7139,-0.7139,-0.7139,-0.7139,-0.7139,-0.7139,-0.7139,-0.7139,-0.7139,-0.7139,-0.7139,-0.7139,-0.7139,-0.7139,-1.7591,-1.7598,-1.7591,-1.6857,-1.5825,-1.5825,-1.5825,-1.5825,-1.5825,-1.5825,-1.5825,-1.5825,-1.5825,-1.5825,-1.5825,-1.5825,-1.5825,-1.5825,-1.5798,-1.5758,-1.5745,-1.5471,-1.506,-1.4923,-1.4623,-1.4148,-1.4095,-1.4088,-1.4088,-1.4088,-1.4088,-1.4088,-1.4088,-1.4088,-1.4088,-1.4088,-1.3928,-1.3519,-1.2821,-1.244,-1.2719,-1.2445,-1.2325,-1.2305,-1.2305,-1.2285,-1.2271,-1.2278,-1.2258,-1.2251,-1.2225,-1.2245,-1.2325,-1.2245,-1.2225,-1.2238,-1.2265,-1.2278,-1.2298,-1.2305,-1.2305,-1.2305,-1.2338,-1.2513,-1.2982,-1.2675,-1.2752,-1.3459,-1.3888,-1.3555,-1.2242,-1.0956,-1.0009,-0.9144,-0.9196,-0.9712,-1.0519,-1.2697,-1.3389,-1.2369,-1.1003,-0.9533,-0.7753,-0.8189,-0.889,-0.9174,-0.9139,-0.9104,-0.9054,-0.8109,-0.7486,-0.759,-0.7802,-0.7889,-0.7664,-0.7448,-0.737,-0.735,-0.7285,-0.7166,-0.7146,-0.7139,-0.7146,-0.7139,-0.7139,-0.7139,-0.7139,-0.7139,-0.7139,-0.7139,-0.7139,-0.7139,-0.7139,-0.7139,-0.7139,-1.8864,-1.8772,-1.8048,-1.7412,-1.6943,-1.6197,-1.5825,-1.5825,-1.5825,-1.5825,-1.5825,-1.5825,-1.5825,-1.5825,-1.5825,-1.5825,-1.5825,-1.5825,-1.5732,-1.5571,-1.5551,-1.5344,-1.4983,-1.4872,-1.4589,-1.4177,-1.4083,-1.4088,-1.4088,-1.4088,-1.4088,-1.4088,-1.4088,-1.4088,-1.4088,-1.4088,-1.3941,-1.3585,-1.3446,-1.3247,-1.2882,-1.2714,-1.2498,-1.2318,-1.2305,-1.2305,-1.2305,-1.2305,-1.2305,-1.2305,-1.2305,-1.2305,-1.2305,-1.2305,-1.2305,-1.2305,-1.2305,-1.2305,-1.2305,-1.2305,-1.2305,-1.2325,-1.2655,-1.2962,-1.3092,-1.3006,-1.3106,-1.3567,-1.3915,-1.3548,-1.2419,-1.13,-1.0438,-1.0096,-0.9753,-1.0178,-1.1569,-1.3101,-1.392,-1.3234,-1.1854,-1.0202,-0.9432,-0.9155,-0.908,-0.9152,-0.9167,-0.8999,-0.8423,-0.7756,-0.7538,-0.7654,-0.7818,-0.7983,-0.7885,-0.7665,-0.7519,-0.7512,-0.7461,-0.7377,-0.7333,-0.7282,-0.7278,-0.7156,-0.7139,-0.7139,-0.7139,-0.7139,-0.7139,-0.7143,-0.7143,-0.7173,-0.7139,-0.7193,-0.718,-1.9852,-1.9405,-1.8596,-1.7777,-1.7037,-1.6204,-1.5825,-1.5825,-1.5825,-1.5825,-1.5825,-1.5825,-1.5825,-1.5825,-1.5825,-1.5825,-1.5825,-1.5825,-1.5718,-1.5551,-1.5538,-1.5384,-1.5214,-1.4999,-1.4661,-1.4427,-1.4269,-1.4182,-1.4095,-1.4088,-1.4088,-1.4088,-1.4088,-1.4088,-1.4088,-1.4088,-1.3975,-1.3808,-1.3981,-1.3709,-1.3151,-1.3017,-1.2759,-1.2498,-1.2445,-1.2392,-1.2318,-1.2305,-1.2305,-1.2305,-1.2305,-1.2305,-1.2305,-1.2305,-1.2305,-1.2305,-1.2305,-1.2305,-1.2305,-1.2305,-1.2271,-1.235,-1.2879,-1.3237,-1.3443,-1.3378,-1.3447,-1.3741,-1.3948,-1.3646,-1.2948,-1.1821,-1.1037,-1.0697,-1.0458,-1.0895,-1.2163,-1.3338,-1.3698,-1.3124,-1.1643,-1.0611,-1.0028,-0.9487,-0.9251,-0.9224,-0.9317,-0.8977,-0.8596,-0.8004,-0.7784,-0.7791,-0.7858,-0.8004,-0.7997,-0.7845,-0.7706,-0.7682,-0.76,-0.7536,-0.7465,-0.7417,-0.7336,-0.7204,-0.7139,-0.7139,-0.7143,-0.7143,-0.7149,-0.7156,-0.721,-0.7261,-0.7261,-0.7282,-0.7282,-2.0576,-1.967,-1.9497,-1.8033,-1.6292,-1.592,-1.5825,-1.5825,-1.5825,-1.5825,-1.5825,-1.5825,-1.5825,-1.5825,-1.5825,-1.5825,-1.5825,-1.5825,-1.5812,-1.5785,-1.5792,-1.5765,-1.5715,-1.5337,-1.5124,-1.487,-1.4623,-1.4349,-1.4095,-1.4088,-1.4088,-1.4088,-1.4088,-1.4088,-1.4088,-1.4088,-1.4082,-1.4092,-1.409,-1.3926,-1.3614,-1.334,-1.3066,-1.2786,-1.2802,-1.2592,-1.2338,-1.2318,-1.2305,-1.2305,-1.2305,-1.2305,-1.2305,-1.2305,-1.2305,-1.2305,-1.2305,-1.2305,-1.2305,-1.2325,-1.2302,-1.2398,-1.2849,-1.3491,-1.3884,-1.373,-1.3674,-1.3961,-1.3886,-1.3906,-1.3737,-1.2857,-1.1815,-1.0956,-1.1563,-1.2072,-1.2595,-1.3385,-1.3548,-1.2389,-1.137,-1.0265,-0.9358,-0.9072,-0.9146,-0.9208,-0.921,-0.9388,-0.951,-0.8678,-0.8124,-0.8024,-0.8024,-0.8035,-0.8038,-0.8021,-0.7929,-0.7841,-0.7733,-0.7641,-0.7553,-0.7492,-0.7404,-0.7282,-0.7156,-0.7153,-0.7214,-0.7217,-0.7231,-0.7248,-0.7305,-0.7373,-0.739,-0.7414,-0.7431,-2.1114,-2.0576,-1.8956,-1.7863,-1.7037,-1.6197,-1.5825,-1.5825,-1.5825,-1.5825,-1.5825,-1.5825,-1.5825,-1.5825,-1.5825,-1.5825,-1.5825,-1.5825,-1.5825,-1.5825,-1.5825,-1.5785,-1.5779,-1.5697,-1.5436,-1.498,-1.4462,-1.4182,-1.4108,-1.4088,-1.4088,-1.4088,-1.4088,-1.4088,-1.4088,-1.4088,-1.4088,-1.4075,-1.4092,-1.3958,-1.3667,-1.3561,-1.3367,-1.3086,-1.2866,-1.2768,-1.2681,-1.2418,-1.2311,-1.2305,-1.2305,-1.2305,-1.2305,-1.2305,-1.2305,-1.2305,-1.2305,-1.2305,-1.2331,-1.2315,-1.2277,-1.2453,-1.3198,-1.3783,-1.4097,-1.3993,-1.3935,-1.399,-1.3215,-1.2869,-1.3652,-1.3033,-1.251,-1.2954,-1.2601,-1.2681,-1.3294,-1.3822,-1.3815,-1.3372,-1.2419,-1.1295,-1.0246,-0.975,-0.8991,-0.8442,-0.8472,-0.8674,-0.8715,-0.8535,-0.8038,-0.8038,-0.8038,-0.8038,-0.8038,-0.8038,-0.7994,-0.7943,-0.7868,-0.7756,-0.7662,-0.7594,-0.7495,-0.7377,-0.7161,-0.7217,-0.7275,-0.7309,-0.7333,-0.74,-0.7489,-0.7522,-0.7529,-0.7556,-0.7597,-2.1025,-2.0395,-1.8503,-1.7412,-1.6943,-1.6109,-1.5825,-1.5825,-1.5825,-1.5825,-1.5825,-1.5825,-1.5825,-1.5825,-1.5825,-1.5825,-1.5825,-1.5825,-1.5825,-1.5825,-1.5825,-1.5825,-1.5785,-1.5538,-1.5164,-1.4716,-1.4389,-1.4188,-1.4088,-1.4088,-1.4088,-1.4088,-1.4088,-1.4088,-1.4088,-1.4088,-1.4088,-1.4088,-1.4082,-1.3988,-1.3848,-1.3808,-1.3667,-1.338,-1.3073,-1.2872,-1.2746,-1.2458,-1.2305,-1.2305,-1.2305,-1.2305,-1.2305,-1.2305,-1.2305,-1.2305,-1.2305,-1.2305,-1.2325,-1.2282,-1.2437,-1.2751,-1.3539,-1.4056,-1.4138,-1.4105,-1.4082,-1.3913,-1.3307,-1.3045,-1.3737,-1.347,-1.3379,-1.3997,-1.347,-1.3379,-1.3997,-1.4088,-1.4088,-1.3822,-1.3027,-1.2118,-1.1401,-1.003,-0.9185,-0.8536,-0.8171,-0.8038,-0.8038,-0.8038,-0.8038,-0.8038,-0.8038,-0.8038,-0.8038,-0.8038,-0.8038,-0.8024,-0.8004,-0.7889,-0.7784,-0.7746,-0.7675,-0.7439,-0.7217,-0.7315,-0.7451,-0.7455,-0.7478,-0.7573,-0.7655,-0.7672,-0.7689,-0.7767,-0.7794,-2.0486,-1.9405,-1.8133,-1.685,-1.6015,-1.5825,-1.5825,-1.5825,-1.5825,-1.5825,-1.5825,-1.5825,-1.5825,-1.5825,-1.5825,-1.5825,-1.5825,-1.5825,-1.5825,-1.5825,-1.5825,-1.5825,-1.5785,-1.5279,-1.476,-1.4308,-1.43,-1.4322,-1.4095,-1.4088,-1.4088,-1.4088,-1.4088,-1.4088,-1.4088,-1.4088,-1.4088,-1.4088,-1.4088,-1.4068,-1.4055,-1.4062,-1.3921,-1.3539,-1.3327,-1.3039,-1.2822,-1.2465,-1.2311,-1.2311,-1.2325,-1.2318,-1.2305,-1.2305,-1.2305,-1.2305,-1.2305,-1.2305,-1.2305,-1.2311,-1.251,-1.2948,-1.3512,-1.4093,-1.4088,-1.4119,-1.4088,-1.4082,-1.3828,-1.3822,-1.3997,-1.3815,-1.3822,-1.4082,-1.3913,-1.3997,-1.4082,-1.4088,-1.4088,-1.3919,-1.3137,-1.2525,-1.2774,-1.1061,-1.0175,-0.9676,-0.9092,-0.8799,-0.8329,-0.8326,-0.8031,-0.8035,-0.8038,-0.8038,-0.8038,-0.8038,-0.8038,-0.8038,-0.8038,-0.7977,-0.7882,-0.7848,-0.7804,-0.757,-0.7386,-0.7493,-0.7607,-0.7611,-0.7641,-0.7716,-0.7773,-0.7807,-0.7855,-0.7913,-0.7923,-1.8956,-1.9214,-1.721,-1.6109,-1.5825,-1.5825,-1.5825,-1.5825,-1.5825,-1.5825,-1.5825,-1.5825,-1.5825,-1.5825,-1.5825,-1.5825,-1.5825,-1.5825,-1.5825,-1.5825,-1.5825,-1.5825,-1.5712,-1.5219,-1.4727,-1.4187,-1.4169,-1.4162,-1.4088,-1.4088,-1.4088,-1.4088,-1.4088,-1.4088,-1.4088,-1.4088,-1.4088,-1.4088,-1.4088,-1.4088,-1.4088,-1.4088,-1.3941,-1.3654,-1.3367,-1.306,-1.2829,-1.2458,-1.2264,-1.2317,-1.2324,-1.2291,-1.2305,-1.2305,-1.2305,-1.2305,-1.2305,-1.2305,-1.2264,-1.2315,-1.2361,-1.2524,-1.3088,-1.3601,-1.4104,-1.4065,-1.4068,-1.3913,-1.3385,-1.3203,-1.3737,-1.3294,-1.3203,-1.3913,-1.4088,-1.4095,-1.4088,-1.4088,-1.4088,-1.4102,-1.3906,-1.3883,-1.3749,-1.3018,-1.1885,-1.1347,-1.083,-1.0386,-0.96,-0.8393,-0.7994,-0.8028,-0.8038,-0.8038,-0.8038,-0.8038,-0.8038,-0.8038,-0.8038,-0.8031,-0.7953,-0.7899,-0.7845,-0.7756,-0.7597,-0.7685,-0.7729,-0.7852,-0.7811,-0.7855,-0.7902,-0.7943,-0.7963,-0.8007,-0.8001,-1.8596,-1.8596,-1.7217,-1.6292,-1.5825,-1.5825,-1.5825,-1.5825,-1.5825,-1.5825,-1.5825,-1.5825,-1.5825,-1.5825,-1.5825,-1.5825,-1.5825,-1.5825,-1.5825,-1.5805,-1.5597,-1.5645,-1.5631,-1.5261,-1.4691,-1.4134,-1.4111,-1.4115,-1.4088,-1.4088,-1.4088,-1.4088,-1.4088,-1.4088,-1.4088,-1.4088,-1.4088,-1.4088,-1.4088,-1.4088,-1.4088,-1.4088,-1.4015,-1.3768,-1.344,-1.3026,-1.2612,-1.2418,-1.1961,-1.1471,-1.1793,-1.2277,-1.2311,-1.2305,-1.2305,-1.2305,-1.2305,-1.2305,-1.2331,-1.2309,-1.2329,-1.2312,-1.2683,-1.3202,-1.389,-1.4099,-1.4088,-1.3997,-1.2942,-1.2766,-1.2942,-1.2248,-1.2157,-1.2936,-1.3672,-1.4037,-1.4088,-1.4088,-1.4088,-1.4128,-1.4235,-1.4482,-1.473,-1.3938,-1.3229,-1.2663,-1.2052,-1.1444,-1.0774,-0.9257,-0.8361,-0.8601,-0.8435,-0.8336,-0.8237,-0.8137,-0.8038,-0.8038,-0.8038,-0.8038,-0.8007,-0.7953,-0.7929,-0.7879,-0.7818,-0.7794,-0.7845,-0.7896,-0.7929,-0.7974,-0.8028,-0.8038,-0.8038,-0.8038,-0.8038,-1.8688,-1.7684,-1.7591,-1.685,-1.592,-1.5825,-1.5825,-1.5825,-1.5825,-1.5825,-1.5927,-1.613,-1.6414,-1.6008,-1.6197,-1.6109,-1.6103,-1.5853,-1.5712,-1.5524,-1.5365,-1.5324,-1.5531,-1.5003,-1.4559,-1.4154,-1.413,-1.4108,-1.4088,-1.4088,-1.4088,-1.4088,-1.4088,-1.4088,-1.4088,-1.4088,-1.4088,-1.4088,-1.4088,-1.4088,-1.4088,-1.4082,-1.4035,-1.3868,-1.3373,-1.2872,-1.2498,-1.2197,-1.1639,-0.978,-1.1396,-1.217,-1.2331,-1.2331,-1.2305,-1.2305,-1.2305,-1.2305,-1.2305,-1.2264,-1.2293,-1.2291,-1.2346,-1.2804,-1.3758,-1.4119,-1.3899,-1.3353,-1.2838,-1.2413,-1.2328,-1.1558,-1.1809,-1.2583,-1.3521,-1.3972,-1.4108,-1.4088,-1.4088,-1.4095,-1.4108,-1.4416,-1.4504,-1.4113,-1.351,-1.401,-1.3465,-1.2898,-1.2436,-1.1536,-1.0547,-1.0079,-0.9612,-0.8832,-0.8535,-0.8333,-0.8237,-0.8137,-0.8038,-0.8038,-0.8038,-0.8011,-0.8024,-0.7994,-0.7926,-0.7923,-0.797,-0.8014,-0.8028,-0.8028,-0.8038,-0.8038,-0.8038,-0.8038,-0.8038,-1.7956,-1.7591,-1.6574,-1.6015,-1.5825,-1.5825,-1.5825,-1.5825,-1.5825,-1.5825,-1.6224,-1.7834,-1.8085,-1.7318,-1.7217,-1.7318,-1.7001,-1.6071,-1.5378,-1.5137,-1.4903,-1.491,-1.5055,-1.4629,-1.4287,-1.4143,-1.4123,-1.4095,-1.4088,-1.4088,-1.4088,-1.4088,-1.4088,-1.4088,-1.4088,-1.4088,-1.4088,-1.4088,-1.4088,-1.4088,-1.4088,-1.4075,-1.3975,-1.3728,-1.3186,-1.2712,-1.2398,-1.2325,-1.2077,-1.1903,-1.2035,-1.2337,-1.2296,-1.2297,-1.2311,-1.2305,-1.2305,-1.2305,-1.2311,-1.2331,-1.2289,-1.2325,-1.2431,-1.2814,-1.3967,-1.4072,-1.3243,-1.2099,-1.1849,-1.2237,-1.2157,-1.2948,-1.2948,-1.3209,-1.3659,-1.4024,-1.4095,-1.4088,-1.4088,-1.4128,-1.4282,-1.4609,-1.5084,-1.5002,-1.4836,-1.5253,-1.4949,-1.4465,-1.3878,-1.3392,-1.2533,-1.1556,-1.1082,-1.0207,-0.9122,-0.8825,-0.8333,-0.8137,-0.8038,-0.8038,-0.8038,-0.8038,-0.8038,-0.8038,-0.8028,-0.8038,-0.8038,-0.8038,-0.8031,-0.8038,-0.8038,-0.8038,-0.8038,-0.8038,-0.8038,-1.7684,-1.7591,-1.6951,-1.6386,-1.5825,-1.5825,-1.5825,-1.5825,-1.5825,-1.6211,-1.7203,-1.8832,-1.9063,-1.8519,-1.7956,-1.7684,-1.7331,-1.616,-1.5164,-1.485,-1.4641,-1.4596,-1.4561,-1.4315,-1.4124,-1.4104,-1.4077,-1.4088,-1.4088,-1.4088,-1.4088,-1.4088,-1.4088,-1.4088,-1.4088,-1.4088,-1.4088,-1.4088,-1.4088,-1.4088,-1.4088,-1.4082,-1.3848,-1.3507,-1.3106,-1.2772,-1.2358,-1.2305,-1.2305,-1.2311,-1.2271,-1.2317,-1.2289,-1.2291,-1.2311,-1.2305,-1.2305,-1.2305,-1.2311,-1.2445,-1.2474,-1.2324,-1.279,-1.3439,-1.3966,-1.4105,-1.3613,-1.2547,-1.2304,-1.2157,-1.1643,-1.1906,-1.251,-1.3021,-1.3203,-1.347,-1.3913,-1.4088,-1.4088,-1.4108,-1.4202,-1.4469,-1.4783,-1.507,-1.5211,-1.5074,-1.5468,-1.5,-1.4697,-1.4141,-1.3674,-1.3022,-1.2554,-1.1585,-1.0203,-0.9217,-0.8428,-0.8134,-0.8038,-0.8038,-0.8038,-0.8038,-0.8038,-0.8038,-0.8038,-0.8038,-0.8038,-0.8038,-0.8038,-0.8038,-0.8038,-0.8038,-0.8038,-0.8038,-0.8038,-1.7598,-1.7412,-1.7412,-1.6763,-1.592,-1.5825,-1.5825,-1.5825,-1.5798,-1.6648,-1.8334,-1.9398,-2.0163,-1.953,-1.8596,-1.7933,-1.6885,-1.5979,-1.4903,-1.4502,-1.4449,-1.4335,-1.4168,-1.4128,-1.4128,-1.4088,-1.4088,-1.4088,-1.4088,-1.4088,-1.4088,-1.4088,-1.4088,-1.4088,-1.4088,-1.4088,-1.4088,-1.4088,-1.4088,-1.4088,-1.4088,-1.4075,-1.3814,-1.3447,-1.3307,-1.3033,-1.2645,-1.2512,-1.2452,-1.2291,-1.2365,-1.2338,-1.2305,-1.2305,-1.2305,-1.2305,-1.2305,-1.2305,-1.2338,-1.2518,-1.2593,-1.2457,-1.3407,-1.4001,-1.4065,-1.4068,-1.4004,-1.3574,-1.3052,-1.1986,-1.1037,-1.1649,-1.1895,-1.2225,-1.2498,-1.3027,-1.373,-1.4088,-1.4088,-1.4088,-1.4142,-1.4329,-1.4549,-1.479,-1.4877,-1.5023,-1.5431,-1.5571,-1.5052,-1.4765,-1.4206,-1.3736,-1.3171,-1.1955,-1.0489,-0.9118,-0.8333,-0.8134,-0.8038,-0.8038,-0.8038,-0.8038,-0.8038,-0.8038,-0.8038,-0.8038,-0.8038,-0.8038,-0.8038,-0.8038,-0.8038,-0.8038,-0.8038,-0.8038,-0.8028,-1.7037,-1.6109,-1.6109,-1.592,-1.5825,-1.5825,-1.5805,-1.5798,-1.5839,-1.6528,-1.8149,-2.0993,-2.1671,-2.0854,-1.9761,-1.7925,-1.5951,-1.4959,-1.4549,-1.4235,-1.4195,-1.4128,-1.4108,-1.4088,-1.4088,-1.4088,-1.4088,-1.4088,-1.4088,-1.4088,-1.4088,-1.4088,-1.4088,-1.4088,-1.4088,-1.4088,-1.4088,-1.4088,-1.4088,-1.4088,-1.4088,-1.4062,-1.3921,-1.3567,-1.352,-1.3333,-1.3113,-1.3019,-1.2855,-1.2444,-1.2583,-1.2532,-1.2365,-1.2305,-1.2305,-1.2305,-1.2305,-1.2305,-1.2331,-1.2398,-1.2692,-1.3053,-1.3694,-1.4062,-1.4122,-1.4088,-1.4115,-1.3789,-1.3149,-1.2242,-1.2066,-1.2601,-1.3385,-1.3639,-1.3639,-1.3737,-1.3997,-1.4088,-1.4088,-1.4088,-1.4115,-1.4162,-1.4376,-1.4556,-1.4663,-1.4803,-1.5084,-1.5035,-1.4566,-1.4583,-1.4484,-1.4026,-1.3648,-1.2083,-1.0485,-0.9118,-0.8038,-0.8038,-0.8038,-0.8038,-0.8038,-0.8038,-0.8038,-0.8038,-0.8038,-0.8038,-0.8038,-0.8031,-0.8007,-0.7987,-0.8007,-0.8024,-0.797,-0.7919,-0.7963,-1.6756,-1.6662,-1.6109,-1.5738,-1.5618,-1.5605,-1.5518,-1.5483,-1.5698,-1.6679,-1.858,-2.104,-2.2197,-2.1222,-1.9641,-1.7401,-1.53,-1.4609,-1.4355,-1.4142,-1.4088,-1.4088,-1.4088,-1.4088,-1.4088,-1.4088,-1.4088,-1.4088,-1.4088,-1.4088,-1.4088,-1.4088,-1.4088,-1.4088,-1.4088,-1.4088,-1.4088,-1.4088,-1.4088,-1.4088,-1.4088,-1.4088,-1.3928,-1.3734,-1.3634,-1.3487,-1.3273,-1.3206,-1.3053,-1.2806,-1.2739,-1.2654,-1.2405,-1.2305,-1.2305,-1.2305,-1.2305,-1.2305,-1.2392,-1.2538,-1.2771,-1.2818,-1.3541,-1.4042,-1.4092,-1.4088,-1.4108,-1.3952,-1.3776,-1.3203,-1.3288,-1.3815,-1.3997,-1.4088,-1.4088,-1.4088,-1.4088,-1.4088,-1.4088,-1.4088,-1.4102,-1.4142,-1.4222,-1.4376,-1.4476,-1.4623,-1.479,-1.451,-1.4008,-1.3935,-1.3878,-1.3197,-1.2565,-1.1405,-0.9998,-0.892,-0.8038,-0.8038,-0.8038,-0.8038,-0.8038,-0.8038,-0.8038,-0.8038,-0.8038,-0.8011,-0.8004,-0.7984,-0.796,-0.7916,-0.7858,-0.7818,-0.7807,-0.7811,-0.7845,-1.6535,-1.7035,-1.6026,-1.5518,-1.5331,-1.5311,-1.519,-1.5087,-1.5432,-1.6477,-1.8205,-2.0015,-2.0985,-2.0549,-1.8931,-1.6703,-1.4596,-1.4476,-1.4275,-1.4135,-1.4088,-1.4088,-1.4088,-1.4088,-1.4088,-1.4088,-1.4088,-1.4088,-1.4088,-1.4088,-1.4088,-1.4088,-1.4088,-1.4088,-1.4088,-1.4088,-1.4088,-1.4088,-1.4088,-1.4088,-1.4088,-1.4075,-1.3988,-1.3768,-1.3734,-1.3634,-1.3487,-1.3467,-1.3333,-1.3169,-1.3006,-1.2685,-1.2385,-1.2305,-1.2305,-1.2305,-1.2305,-1.2305,-1.235,-1.2343,-1.2459,-1.2718,-1.3441,-1.3878,-1.4102,-1.4108,-1.4088,-1.4088,-1.4088,-1.3997,-1.3906,-1.4088,-1.4088,-1.4088,-1.4088,-1.4088,-1.4088,-1.4088,-1.4088,-1.4088,-1.4088,-1.4115,-1.4182,-1.4202,-1.4309,-1.4051,-1.4115,-1.3592,-1.3136,-1.2796,-1.2489,-1.189,-1.112,-1.0253,-0.9316,-0.8726,-0.8137,-0.8038,-0.8038,-0.8038,-0.8038,-0.8038,-0.8021,-0.7987,-0.7963,-0.794,-0.794,-0.7929,-0.7892,-0.7821,-0.7689,-0.7645,-0.7685,-0.7689,-0.7699,-1.6349,-1.5341,-1.5167,-1.5044,-1.5017,-1.51,-1.5087,-1.5006,-1.5103,-1.576,-1.7361,-1.7698,-1.8471,-1.8616,-1.752,-1.5891,-1.4781,-1.4275,-1.4155,-1.4088,-1.4088,-1.4088,-1.4088,-1.4088,-1.4088,-1.4088,-1.4088,-1.4088,-1.4088,-1.4088,-1.4088,-1.4088,-1.4088,-1.4088,-1.4088,-1.4088,-1.4088,-1.4088,-1.4088,-1.4088,-1.4088,-1.4088,-1.4055,-1.4028,-1.4001,-1.3968,-1.3881,-1.3848,-1.3743,-1.3464,-1.3317,-1.2872,-1.2432,-1.2305,-1.2305,-1.2305,-1.2305,-1.2311,-1.223,-1.2075,-1.1909,-1.2449,-1.3041,-1.3561,-1.3899,-1.4115,-1.4088,-1.4088,-1.4088,-1.4088,-1.4088,-1.4088,-1.4088,-1.4088,-1.4088,-1.4088,-1.4088,-1.4088,-1.4088,-1.4088,-1.4088,-1.4088,-1.4115,-1.4115,-1.4122,-1.377,-1.3345,-1.2765,-1.2065,-1.1379,-1.1,-1.0272,-0.9914,-0.9053,-0.8784,-0.822,-0.8069,-0.7991,-0.8001,-0.8001,-0.7991,-0.7967,-0.8024,-0.7993,-0.7868,-0.7768,-0.7774,-0.7758,-0.7821,-0.7712,-0.7567,-0.7563,-0.7607,-0.759,-0.7536,-1.7502,-1.591,-1.591,-1.5464,-1.4804,-1.5304,-1.554,-1.5283,-1.4781,-1.5873,-1.7572,-1.7441,-1.7549,-1.7597,-1.7028,-1.592,-1.4576,-1.4142,-1.4088,-1.4088,-1.4088,-1.4088,-1.4088,-1.4088,-1.4088,-1.4088,-1.4088,-1.4088,-1.4088,-1.4088,-1.4088,-1.4088,-1.4088,-1.4088,-1.4088,-1.4088,-1.4088,-1.4088,-1.4088,-1.4088,-1.4088,-1.4088,-1.4088,-1.4088,-1.4088,-1.4088,-1.4088,-1.4075,-1.4069,-1.3815,-1.3566,-1.3026,-1.2505,-1.2305,-1.2305,-1.2305,-1.2305,-1.2466,-1.2654,-1.2363,-1.2043,-1.1427,-1.1752,-1.2331,-1.3548,-1.4115,-1.4088,-1.4088,-1.4088,-1.4088,-1.4088,-1.4088,-1.4088,-1.4088,-1.4088,-1.4088,-1.4088,-1.4088,-1.4088,-1.4088,-1.4082,-1.3906,-1.3822,-1.3652,-1.3483,-1.3045,-1.2443,-1.1596,-1.0455,-0.917,-0.884,-0.8594,-0.8287,-0.8034,-0.8027,-0.7839,-0.7911,-0.7845,-0.7882,-0.7885,-0.7896,-0.7875,-0.7921,-0.7859,-0.7808,-0.7729,-0.7584,-0.7607,-0.7597,-0.7516,-0.7438,-0.7424,-0.7411,-0.7356,-0.7326,-1.8562,-1.7204,-1.686,-1.613,-1.5255,-1.5808,-1.5859,-1.5628,-1.5245,-1.6121,-1.7421,-1.721,-1.6904,-1.674,-1.6468,-1.5423,-1.4179,-1.4088,-1.4088,-1.4088,-1.4088,-1.4088,-1.4088,-1.4088,-1.4088,-1.4088,-1.4088,-1.4088,-1.4088,-1.4088,-1.4088,-1.4088,-1.4088,-1.4088,-1.4088,-1.4088,-1.4088,-1.4088,-1.4088,-1.4088,-1.4088,-1.4088,-1.4088,-1.4088,-1.4088,-1.4088,-1.4088,-1.4088,-1.4083,-1.3822,-1.3586,-1.3033,-1.2438,-1.2305,-1.2305,-1.2305,-1.2305,-1.2587,-1.2786,-1.2667,-1.195,-1.1303,-1.1149,-1.2681,-1.3698,-1.4088,-1.4088,-1.4088,-1.4088,-1.4088,-1.4088,-1.4088,-1.4088,-1.4088,-1.4088,-1.4088,-1.4088,-1.3997,-1.3913,-1.3997,-1.3822,-1.3379,-1.3294,-1.3124,-1.2857,-1.2328,-1.1552,-1.0524,-0.9297,-0.78,-0.7699,-0.7696,-0.7626,-0.7547,-0.7641,-0.7638,-0.7685,-0.7706,-0.774,-0.7756,-0.776,-0.774,-0.7787,-0.7725,-0.765,-0.7506,-0.7406,-0.7339,-0.7373,-0.7377,-0.7353,-0.7234,-0.7177,-0.7139,-0.7156,-1.8931,-1.8789,-1.775,-1.7188,-1.6902,-1.6064,-1.5809,-1.5869,-1.6554,-1.6507,-1.6683,-1.6003,-1.6234,-1.5779,-1.5304,-1.4657,-1.4088,-1.4088,-1.4088,-1.4088,-1.4088,-1.4088,-1.4088,-1.4088,-1.4088,-1.4088,-1.4088,-1.4088,-1.4088,-1.4088,-1.4088,-1.4088,-1.4088,-1.4088,-1.4088,-1.4088,-1.4088,-1.4088,-1.4088,-1.4088,-1.4088,-1.4088,-1.4088,-1.4088,-1.4088,-1.4088,-1.4088,-1.4088,-1.4007,-1.3712,-1.3398,-1.2973,-1.2432,-1.2318,-1.2305,-1.2305,-1.2305,-1.2654,-1.2986,-1.2692,-1.2302,-1.2744,-1.3252,-1.3483,-1.3997,-1.4088,-1.4088,-1.4088,-1.4088,-1.4088,-1.4088,-1.4088,-1.4088,-1.4088,-1.3997,-1.3822,-1.3737,-1.3652,-1.3652,-1.3737,-1.3379,-1.2681,-1.2077,-1.1826,-1.1649,-1.1123,-1.0082,-0.9052,-0.848,-0.7324,-0.7385,-0.7377,-0.729,-0.7363,-0.7573,-0.7573,-0.7536,-0.7556,-0.76,-0.7611,-0.7614,-0.7584,-0.7653,-0.7554,-0.7471,-0.7299,-0.7158,-0.7275,-0.7299,-0.7316,-0.7275,-0.7183,-0.7139,-0.7139,-0.7139,-2.0001,-1.9923,-1.9511,-1.8132,-1.6429,-1.7326,-1.7326,-1.6545,-1.5751,-1.6846,-1.8621,-1.806,-1.7326,-1.6519,-1.5545,-1.465,-1.4166,-1.4088,-1.4088,-1.4088,-1.4088,-1.4088,-1.4088,-1.4088,-1.4088,-1.4088,-1.4088,-1.4088,-1.4088,-1.4088,-1.4088,-1.4088,-1.4166,-1.4088,-1.4088,-1.4088,-1.4088,-1.4088,-1.4088,-1.4088,-1.4088,-1.4088,-1.4088,-1.4088,-1.4088,-1.4088,-1.4088,-1.4088,-1.4008,-1.3808,-1.3317,-1.2856,-1.2418,-1.2338,-1.2318,-1.2331,-1.2338,-1.2735,-1.3192,-1.2942,-1.293,-1.3509,-1.3977,-1.4122,-1.4088,-1.4088,-1.4088,-1.4088,-1.4088,-1.4088,-1.4088,-1.4088,-1.4088,-1.4088,-1.3913,-1.3646,-1.33,-1.313,-1.2693,-1.2516,-1.1992,-1.13,-1.0783,-1.0269,-1.0183,-0.9836,-0.8707,-0.7669,-0.7347,-0.7098,-0.7151,-0.7178,-0.7168,-0.709,-0.738,-0.737,-0.7363,-0.7411,-0.7458,-0.7458,-0.7461,-0.7458,-0.7417,-0.7399,-0.7244,-0.721,-0.7197,-0.7207,-0.7221,-0.7234,-0.7214,-0.716,-0.7139,-0.7139,-0.7139,-2.0576,-2.0576,-2.0576,-1.9344,-1.7479,-1.847,-1.855,-1.7582,-1.5919,-1.7029,-2.0479,-1.9399,-1.8264,-1.7188,-1.5711,-1.4817,-1.425,-1.4088,-1.4088,-1.4088,-1.4088,-1.4088,-1.4088,-1.4088,-1.4088,-1.4088,-1.4088,-1.4088,-1.4088,-1.4088,-1.4412,-1.4489,-1.425,-1.4173,-1.4088,-1.4088,-1.4088,-1.4088,-1.4088,-1.4088,-1.4088,-1.4088,-1.4088,-1.4088,-1.4088,-1.4088,-1.4088,-1.4068,-1.413,-1.3837,-1.3509,-1.2839,-1.247,-1.2291,-1.2358,-1.2472,-1.2567,-1.2802,-1.3344,-1.3662,-1.3647,-1.4001,-1.4068,-1.4095,-1.4088,-1.4088,-1.4088,-1.4088,-1.4088,-1.4088,-1.4088,-1.4088,-1.4088,-1.4088,-1.3379,-1.3033,-1.251,-1.2169,-1.1563,-1.1042,-1.0524,-1.0091,-0.9662,-0.9144,-0.8794,-0.8619,-0.8097,-0.7401,-0.7234,-0.7068,-0.7163,-0.7177,-0.7104,-0.7091,-0.7156,-0.721,-0.7261,-0.7265,-0.7302,-0.7302,-0.7302,-0.7312,-0.7302,-0.7227,-0.7177,-0.7146,-0.7153,-0.7173,-0.7163,-0.7149,-0.7139,-0.7139,-0.7139,-0.7139,-0.7139,-2.0576,-2.0576,-2.0576,-2.0489,-2.0001,-1.9362,-1.8957,-1.8683,-1.7828,-1.8469,-2.0323,-1.9163,-1.801,-1.6952,-1.5311,-1.4334,-1.4166,-1.4088,-1.4088,-1.4088,-1.4088,-1.4088,-1.4088,-1.4088,-1.4088,-1.4088,-1.4088,-1.4088,-1.4088,-1.4088,-1.4573,-1.5025,-1.4685,-1.421,-1.4159,-1.4088,-1.4088,-1.4088,-1.4088,-1.4088,-1.4088,-1.4088,-1.4088,-1.4088,-1.4088,-1.4088,-1.4088,-1.4088,-1.4068,-1.3973,-1.3639,-1.3057,-1.2378,-1.2311,-1.2412,-1.2688,-1.2728,-1.3142,-1.3885,-1.4027,-1.4058,-1.4048,-1.4088,-1.4088,-1.4088,-1.4088,-1.4088,-1.4088,-1.4088,-1.4088,-1.4088,-1.4088,-1.4088,-1.3646,-1.2942,-1.2334,-1.1815,-1.1214,-1.0611,-1.0438,-0.9666,-0.889,-0.854,-0.8105,-0.7577,-0.7312,-0.7228,-0.7139,-0.7139,-0.7139,-0.7139,-0.7139,-0.7139,-0.7139,-0.7139,-0.7139,-0.716,-0.7156,-0.717,-0.7197,-0.72,-0.7204,-0.718,-0.7139,-0.7139,-0.7139,-0.7139,-0.7143,-0.7139,-0.7139,-0.7139,-0.7139,-0.7139,-0.7139,-0.7139,-2.0576,-2.0576,-2.0576,-2.0576,-2.0566,-2.0245,-1.9678,-1.9186,-1.9358,-1.9925,-2.0177,-1.903,-1.8036,-1.6804,-1.5311,-1.425,-1.4166,-1.4088,-1.4088,-1.4173,-1.4166,-1.4088,-1.4082,-1.4082,-1.4088,-1.4088,-1.4088,-1.4146,-1.4088,-1.4266,-1.4789,-1.5191,-1.5071,-1.4634,-1.4273,-1.4088,-1.4088,-1.4088,-1.4088,-1.4088,-1.4082,-1.4088,-1.4088,-1.4088,-1.4088,-1.4088,-1.4082,-1.4075,-1.4034,-1.4033,-1.3698,-1.3064,-1.2428,-1.2325,-1.2365,-1.2546,-1.2478,-1.2701,-1.3287,-1.3586,-1.407,-1.4088,-1.4062,-1.4055,-1.4082,-1.4088,-1.4088,-1.4088,-1.4088,-1.4088,-1.4088,-1.4088,-1.3906,-1.2942,-1.2242,-1.1643,-1.1128,-1.0351,-0.9831,-1.0091,-0.9662,-0.8623,-0.8017,-0.7753,-0.7316,-0.7139,-0.7139,-0.7139,-0.7139,-0.7139,-0.7139,-0.7139,-0.7139,-0.7139,-0.7139,-0.7139,-0.7139,-0.7146,-0.7149,-0.7156,-0.7146,-0.7139,-0.7139,-0.7139,-0.7139,-0.7139,-0.7139,-0.7139,-0.7139,-0.7139,-0.7139,-0.7139,-0.7139,-0.7139,-0.7139,-2.0127,-2.0117,-2.0127,-2.0117,-2.0176,-2.043,-2.0167,-1.9766,-2.0333,-2.0576,-2.0371,-1.9528,-1.8709,-1.7619,-1.6206,-1.5228,-1.5228,-1.5228,-1.5228,-1.5144,-1.4817,-1.4531,-1.4266,-1.4126,-1.4082,-1.4146,-1.4379,-1.449,-1.4531,-1.4686,-1.4932,-1.5167,-1.5165,-1.4458,-1.4111,-1.3919,-1.3993,-1.402,-1.3985,-1.4072,-1.4126,-1.4088,-1.4088,-1.4088,-1.4088,-1.4088,-1.4055,-1.4032,-1.3953,-1.3776,-1.3475,-1.2976,-1.2532,-1.2277,-1.2371,-1.2412,-1.2599,-1.2726,-1.3155,-1.3369,-1.3729,-1.3763,-1.3951,-1.4115,-1.4065,-1.4105,-1.4068,-1.4088,-1.4082,-1.4088,-1.4088,-1.4088,-1.3555,-1.2589,-1.198,-1.1466,-1.0864,-1.0173,-0.9995,-1.0168,-1.0279,-0.9152,-0.7841,-0.7401,-0.7139,-0.7139,-0.7139,-0.7139,-0.7139,-0.7139,-0.7139,-0.7139,-0.7139,-0.7139,-0.7139,-0.7139,-0.7139,-0.7139,-0.7139,-0.7139,-0.7139,-0.7139,-0.7139,-0.7139,-0.7139,-0.7139,-0.7139,-0.7139,-0.7139,-0.7139,-0.7139,-0.7139,-0.7139,-0.7139,-0.7139,-1.9287,-1.9277,-1.9277,-1.9326,-1.9443,-2.0127,-2.0469,-2.0518,-2.0595,-2.0575,-2.0488,-2.0341,-1.9529,-1.8717,-1.7582,-1.6887,-1.6774,-1.679,-1.6774,-1.6629,-1.5812,-1.5056,-1.4406,-1.4289,-1.4538,-1.4531,-1.476,-1.5123,-1.5173,-1.5489,-1.5405,-1.494,-1.4925,-1.4316,-1.3973,-1.3663,-1.3755,-1.3709,-1.3763,-1.3917,-1.4008,-1.4035,-1.4001,-1.3995,-1.3995,-1.3961,-1.3881,-1.3728,-1.3601,-1.3433,-1.3138,-1.2742,-1.2447,-1.2282,-1.2532,-1.2692,-1.2939,-1.2979,-1.3006,-1.3118,-1.3151,-1.3206,-1.3615,-1.3919,-1.4001,-1.3978,-1.4021,-1.4041,-1.4035,-1.4068,-1.4088,-1.3737,-1.3379,-1.2674,-1.1975,-1.1461,-1.0945,-1.0595,-1.0499,-1.0773,-1.1165,-1.0299,-0.8715,-0.8013,-0.7139,-0.7139,-0.7139,-0.7139,-0.7139,-0.7139,-0.7139,-0.7139,-0.7139,-0.7139,-0.7139,-0.7139,-0.7139,-0.7139,-0.7139,-0.7139,-0.7139,-0.7139,-0.7139,-0.7139,-0.7139,-0.7139,-0.7139,-0.7139,-0.7139,-0.7139,-0.7139,-0.7139,-0.7139,-0.7139,-0.7139,-1.9277,-1.9277,-1.9277,-1.9277,-1.9316,-1.9551,-2.0013,-2.0556,-2.0601,-2.0346,-1.9668,-1.9676,-1.9155,-1.7975,-1.6859,-1.6566,-1.6489,-1.6387,-1.6301,-1.6264,-1.6274,-1.52,-1.4877,-1.5031,-1.5321,-1.5479,-1.5615,-1.5777,-1.5761,-1.6051,-1.6027,-1.5771,-1.4683,-1.4175,-1.3715,-1.323,-1.3328,-1.346,-1.3494,-1.3722,-1.3841,-1.3854,-1.3814,-1.3774,-1.3774,-1.3707,-1.3527,-1.342,-1.3273,-1.324,-1.3027,-1.2679,-1.2324,-1.2264,-1.2385,-1.2405,-1.2512,-1.2552,-1.2565,-1.2572,-1.2605,-1.2609,-1.2795,-1.3041,-1.3373,-1.3763,-1.3901,-1.3915,-1.4001,-1.4068,-1.373,-1.3294,-1.2687,-1.1986,-1.1461,-1.1117,-1.0864,-1.1386,-1.1375,-1.1547,-1.194,-1.0554,-0.9061,-0.7841,-0.7139,-0.7139,-0.7139,-0.7139,-0.7139,-0.7139,-0.7139,-0.7139,-0.7139,-0.7139,-0.7139,-0.7139,-0.7139,-0.7139,-0.7139,-0.7139,-0.7139,-0.7139,-0.7139,-0.7139,-0.7139,-0.7139,-0.7139,-0.7139,-0.7139,-0.7139,-0.7139,-0.7139,-0.7139,-0.7139,-0.7139,-1.8779,-1.8779,-1.8789,-1.8867,-1.8994,-1.8857,-1.9308,-2.0015,-2.0099,-1.9574,-1.8826,-1.8803,-1.8591,-1.8434,-1.7803,-1.7486,-1.7495,-1.7614,-1.7605,-1.753,-1.6798,-1.6708,-1.6455,-1.6016,-1.6239,-1.6436,-1.6514,-1.6404,-1.6295,-1.5931,-1.5782,-1.5593,-1.4385,-1.3777,-1.3266,-1.2784,-1.2775,-1.3071,-1.3279,-1.3447,-1.3494,-1.3587,-1.3514,-1.3474,-1.3474,-1.3347,-1.32,-1.312,-1.3081,-1.3064,-1.2851,-1.2587,-1.2311,-1.2305,-1.2305,-1.2331,-1.2345,-1.2365,-1.2371,-1.2351,-1.2318,-1.2264,-1.2296,-1.2536,-1.2868,-1.3273,-1.3527,-1.3701,-1.3838,-1.3913,-1.3294,-1.2681,-1.1815,-1.095,-1.0778,-1.0692,-1.1305,-1.2095,-1.2345,-1.2583,-1.1729,-1.0356,-0.8969,-0.7837,-0.7139,-0.7139,-0.7139,-0.7139,-0.7139,-0.7139,-0.7139,-0.7139,-0.7139,-0.7139,-0.7139,-0.7139,-0.7139,-0.7139,-0.7139,-0.7139,-0.7139,-0.7139,-0.7139,-0.7139,-0.7139,-0.7139,-0.7139,-0.7139,-0.7139,-0.7139,-0.7139,-0.7139,-0.7139,-0.7139,-0.7139,-1.8027,-1.8047,-1.8008,-1.8271,-1.8436,-1.8223,-1.8478,-1.9183,-1.9167,-1.8774,-1.8169,-1.8024,-1.8442,-1.8605,-1.8543,-1.8562,-1.8451,-1.8451,-1.836,-1.9088,-1.7953,-1.7633,-1.7658,-1.7375,-1.7068,-1.7418,-1.7523,-1.7054,-1.6741,-1.6054,-1.5345,-1.5092,-1.3419,-1.2661,-1.258,-1.2479,-1.2498,-1.2755,-1.2973,-1.3094,-1.3166,-1.322,-1.3173,-1.3173,-1.3166,-1.3133,-1.3046,-1.2899,-1.2788,-1.2694,-1.2587,-1.2331,-1.2318,-1.2305,-1.2305,-1.2305,-1.2305,-1.2305,-1.2305,-1.2305,-1.2305,-1.2305,-1.2311,-1.2378,-1.2645,-1.2859,-1.3093,-1.346,-1.3687,-1.3394,-1.2837,-1.2134,-1.13,-1.0428,-0.999,-1.0082,-1.0611,-1.1402,-1.1923,-1.1821,-1.095,-0.9662,-0.9056,-0.7929,-0.7139,-0.7139,-0.7139,-0.7139,-0.7139,-0.7139,-0.7139,-0.7139,-0.7139,-0.7139,-0.7139,-0.7139,-0.7139,-0.7139,-0.7139,-0.7139,-0.7139,-0.7139,-0.7139,-0.7139,-0.7139,-0.7139,-0.7139,-0.7139,-0.7139,-0.7139,-0.7139,-0.7139,-0.7139,-0.7139,-0.7139,-1.8008,-1.8008,-1.8008,-1.8066,-1.8154,-1.8057,-1.8076,-1.8272,-1.835,-1.8251,-1.8045,-1.8054,-1.8083,-1.8339,-1.8428,-1.8428,-1.8398,-1.8496,-1.834,-1.8389,-1.798,-1.801,-1.8302,-1.7759,-1.766,-1.7826,-1.7843,-1.7641,-1.7186,-1.6149,-1.5092,-1.495,-1.331,-1.2305,-1.2305,-1.2305,-1.2371,-1.2465,-1.2573,-1.2788,-1.3046,-1.2953,-1.2859,-1.2859,-1.2852,-1.2746,-1.2645,-1.2505,-1.2418,-1.2371,-1.2351,-1.2311,-1.2305,-1.2305,-1.2305,-1.2305,-1.2305,-1.2305,-1.2305,-1.2305,-1.2305,-1.2305,-1.2305,-1.2305,-1.2371,-1.2465,-1.2712,-1.3113,-1.3239,-1.2788,-1.2242,-1.156,-1.0778,-0.999,-0.9205,-0.9474,-0.9831,-1.0534,-1.1235,-1.0707,-0.9923,-0.9314,-0.8711,-0.8101,-0.7404,-0.7139,-0.7139,-0.7139,-0.7139,-0.7139,-0.7139,-0.7139,-0.7139,-0.7139,-0.7139,-0.7139,-0.7139,-0.7139,-0.7139,-0.7139,-0.7139,-0.7139,-0.7139,-0.7139,-0.7139,-0.7139,-0.7139,-0.7139,-0.7139,-0.7139,-0.7139,-0.7139,-0.7139,-0.7139,-0.7139,-1.8008,-1.8008,-1.8008,-1.8008,-1.8008,-1.8008,-1.8008,-1.8008,-1.8008,-1.8008,-1.8008,-1.8008,-1.8008,-1.8008,-1.8008,-1.8008,-1.8008,-1.8018,-1.8086,-1.8047,-1.8018,-1.7968,-1.8008,-1.7988,-1.7919,-1.7988,-1.7939,-1.7745,-1.7217,-1.6088,-1.5021,-1.445,-1.3025,-1.2305,-1.2305,-1.2305,-1.2305,-1.2311,-1.2305,-1.2518,-1.2846,-1.2665,-1.2552,-1.2545,-1.2518,-1.2425,-1.2398,-1.2305,-1.2305,-1.2305,-1.2305,-1.2305,-1.2305,-1.2305,-1.2305,-1.2305,-1.2305,-1.2305,-1.2305,-1.2305,-1.2305,-1.2305,-1.2305,-1.2305,-1.2305,-1.2412,-1.2538,-1.2879,-1.2812,-1.2505,-1.1728,-1.1,-1.0439,-0.9707,-0.8752,-0.8408,-0.9043,-0.9763,-1.0024,-0.9758,-0.9144,-0.8711,-0.8189,-0.7665,-0.7139,-0.7139,-0.7139,-0.7139,-0.7139,-0.7139,-0.7139,-0.7139,-0.7139,-0.7139,-0.7139,-0.7139,-0.7139,-0.7139,-0.7139,-0.7139,-0.7139,-0.7139,-0.7139,-0.7139,-0.7139,-0.7139,-0.7139,-0.7139,-0.7139,-0.7139,-0.7139,-0.7139,-0.7139,-0.7139,-0.7139,-1.8008,-1.8008,-1.8008,-1.8008,-1.8008,-1.8008,-1.8008,-1.8008,-1.8008,-1.8008,-1.8008,-1.8008,-1.8008,-1.8008,-1.8008,-1.8008,-1.8008,-1.8008,-1.8008,-1.8008,-1.8008,-1.8037,-1.8027,-1.8018,-1.7716,-1.7569,-1.756,-1.6991,-1.6358,-1.5305,-1.4386,-1.3593,-1.2952,-1.2305,-1.2305,-1.2305,-1.2305,-1.2305,-1.2305,-1.2305,-1.2325,-1.2305,-1.2331,-1.2325,-1.2305,-1.2305,-1.2305,-1.2305,-1.2305,-1.2305,-1.2305,-1.2305,-1.2305,-1.2305,-1.2305,-1.2305,-1.2305,-1.2305,-1.2305,-1.2305,-1.2305,-1.2305,-1.2305,-1.2305,-1.2305,-1.2365,-1.2485,-1.2492,-1.2425,-1.2081,-1.1335,-1.0961,-1.0329,-0.9584,-0.8636,-0.7618,-0.8348,-0.8986,-0.8807,-0.8715,-0.8452,-0.8101,-0.7837,-0.7316,-0.7139,-0.7139,-0.7139,-0.7139,-0.7139,-0.7139,-0.7139,-0.7139,-0.7139,-0.7139,-0.7139,-0.7139,-0.7139,-0.7139,-0.7139,-0.7139,-0.7139,-0.7139,-0.7139,-0.7139,-0.7139,-0.7139,-0.7139,-0.7139,-0.7139,-0.7139,-0.7139,-0.7139,-0.7139,-0.7139,-0.7139,-1.8008,-1.8008,-1.8008,-1.7998,-1.8008,-1.7998,-1.8008,-1.8008,-1.8008,-1.8008,-1.8008,-1.8008,-1.8008,-1.8008,-1.8008,-1.8008,-1.8008,-1.8008,-1.8008,-1.8008,-1.8008,-1.8008,-1.8008,-1.793,-1.7045,-1.6762,-1.6729,-1.628,-1.572,-1.4665,-1.3882,-1.3528,-1.2732,-1.2305,-1.2305,-1.2305,-1.2305,-1.2305,-1.2305,-1.2305,-1.2305,-1.2305,-1.2305,-1.2305,-1.2305,-1.2305,-1.2305,-1.2305,-1.2305,-1.2305,-1.2305,-1.2305,-1.2305,-1.2305,-1.2305,-1.2305,-1.2305,-1.2305,-1.2305,-1.2305,-1.2305,-1.2305,-1.2305,-1.2305,-1.2305,-1.2311,-1.2385,-1.2385,-1.2223,-1.1878,-1.1365,-1.1653,-1.1277,-1.0234,-0.9262,-0.8134,-0.7925,-0.7933,-0.7757,-0.7841,-0.7841,-0.7753,-0.7837,-0.7485,-0.7401,-0.7312,-0.7139,-0.7139,-0.7139,-0.7139,-0.7139,-0.7139,-0.7139,-0.7139,-0.7139,-0.7139,-0.7139,-0.7139,-0.7139,-0.7139,-0.7139,-0.7139,-0.7139,-0.7139,-0.7139,-0.7139,-0.7139,-0.7139,-0.7139,-0.7139,-0.7139,-0.7139,-0.7139,-0.7139,-0.7139]},{"header":{"parameterUnit":"m.s-1","parameterCategory":1,"la1":31.0,"la2":29.5877,"lo1":-88.7671,"lo2":-86.6584,"dy":0.0162,"dx":0.0185,"nx":115,"ny":88,"refTime":"2024-06-30T00:00:00:Z","depth":0,"parameterNumber":3,"parameterNumberName":"V-component_of_WINDS"},"data":[0.0,0.0,0.0,0.0,0.0,0.0,0.0,0.0,0.0,0.0,0.0,0.0,0.0,0.0,0.0,0.0,0.0,0.0,0.0,0.0,0.0,0.0,0.0,0.0,0.0,0.0,0.0,0.0,0.0,0.0,0.0,0.0,0.0,0.0,0.0,0.0,0.0,0.0,0.0,0.0,0.0,0.0,0.0,0.0,0.0,0.0,0.0,0.0,0.0,0.0,0.0,0.0,0.0,0.0,0.0,0.0,0.0,0.0,0.0,0.0,0.0,0.0,0.0,0.0,0.0,0.0,0.0,0.0,0.0,0.0,0.0,0.0,0.0,0.0,0.0,0.0,0.0,0.0,0.0,0.0,0.0,0.0,0.0,0.0,0.0,0.0,0.0,0.0,0.0,0.0,0.0,0.0,0.0,0.0,0.0,0.0,0.0,0.0,0.0,0.0,0.0,0.0,0.0,0.0,0.0,0.0,0.0,0.0,0.0,0.0,0.0,0.0,0.0,0.0,0.0,0.0,0.0,0.0,0.0,0.0,0.0,0.0,0.0,0.0,0.0,0.0,0.0,0.0,0.0,0.0,0.0,0.0,0.0,0.0,0.0,0.0,0.0,0.0,0.0,0.0,0.0,0.0,0.0,0.0,0.0,0.0,0.0,0.0,0.0,0.0,0.0,0.0,0.0,0.0,0.0,0.0,0.0,0.0,0.0,0.0,0.0,0.0,0.0,0.0,0.0,0.0,0.0,0.0,0.0,0.0,0.0,0.0,0.0,0.0,0.0,0.0,0.0,0.0,0.0,0.0,0.0,0.0,0.0,0.0,0.0,0.0,0.0,0.0,0.0,0.0,0.0,0.0,0.0,0.0,0.0,0.0,0.0,0.0,0.0,0.0,0.0,0.0,0.0,0.0,0.0,0.0,0.0,0.0,0.0,0.0,0.0,0.0,0.0,0.0,0.0,0.0,0.0,0.0,0.0,0.0,0.0,0.0,0.0,0.0,0.0,0.0,0.0,0.0,0.0,0.0,0.0,0.0,0.0,0.0,0.0,0.0,0.0,0.0,0.0,0.0,0.0,0.0,0.0,0.0,0.0,0.0,0.0,0.0,0.0,0.0,0.0,0.0,0.0,0.0,0.0,0.0,0.0,0.0,0.0,0.0,0.0,0.0,0.0,0.0,0.0,0.0,0.0,0.0,0.0,0.0,0.0,0.0,0.0,0.0,0.0,0.0,0.0,0.0,0.0,0.0,0.0,0.0,0.0,0.0,0.0,0.0,0.0,0.0,0.0,0.0,0.0,0.0,0.0,0.0,0.0,0.0,0.0,0.0,0.0,0.0,0.0,0.0,0.0,0.0,0.0,0.0,0.0,0.0,0.0,0.0,0.0,0.0,0.0,0.0,0.0,0.0,0.0,0.0,0.0,0.0,0.0,0.0,0.0,0.0,0.0,0.0,0.0,0.0,0.0,0.0,0.0,0.0,0.0,0.0,0.0,0.0,0.0,0.0,0.0,0.0,0.0,0.0,0.0,0.0,0.0,0.0,0.0,0.0,0.0,0.0,0.0,0.0,0.0,0.0,0.0,0.0,0.0,0.0,0.0,0.0,0.0,0.0,0.0,0.0,0.0,0.0,0.0,0.0,0.0,0.0,0.0,0.0,0.0,0.0,0.0,0.0,0.0,0.0,0.0,0.0,0.0,0.0,0.0,0.0,0.0,0.0,0.0,0.0,0.0,0.0,0.0,0.0,0.0,0.0,0.0,0.0,0.0,0.0,0.0,0.0,0.0,0.0,0.0,0.0,0.0,0.0,0.0,0.0,0.0,0.0,0.0,0.0,0.0,0.0,0.0,0.0,0.0,0.0,0.0,0.0,0.0,0.0,0.0,0.0,0.0,0.0,0.0,0.0,0.0,0.0,0.0,0.0,0.0,0.0,0.0,0.0,0.0,0.0,0.0,0.0,0.0,0.0,0.0,0.0,0.0,0.0,0.0,0.0,0.0,0.0,0.0,0.0,0.0,0.0,0.0,0.0,0.0,0.0,0.0,0.0,0.0,0.0,0.0,0.0,0.0,0.0,0.0,0.0,0.0,0.0,0.0,0.0,0.0,0.0,0.0,0.0,0.0,0.0,0.0,0.0,0.0,0.0,0.0,0.0,0.0,0.0,0.0,0.0,0.0,0.0,0.0,0.0,0.0,0.0,0.0,0.0,0.0,0.0,0.0,0.0,0.0,0.0,0.0,0.0,0.0,0.0,0.0,0.0,0.0,0.0,0.0,0.0,0.0,0.0,0.0,0.0,0.0,0.0,0.0,0.0,0.0,0.0,0.0,0.0,0.0,0.0,0.0,0.0,0.0,0.0,0.0,0.0,0.0,0.0,0.0,0.0,0.0,0.0,0.0,0.0,0.0,0.0,0.0,0.0,0.0,0.0,0.0,0.0,0.0,0.0,0.0,0.0,0.0,0.0,0.0,0.0,0.0,0.0,0.0,0.0,0.0,0.0,0.0,0.0,0.0,0.0,0.0,0.0,0.0,0.0,0.0,0.0,0.0,0.0,0.0,0.0,0.0,0.0,0.0,0.0,0.0,0.0,0.0,0.0,0.0,0.0,0.0,0.0,0.0,0.0,0.0,0.0,0.0,0.0,0.0,0.0,0.0,0.0,0.0,0.0,0.0,0.0,0.0,0.0,0.0,0.0,0.0,0.0,0.0,0.0,0.0,0.0,0.0,0.0,0.0,0.0,0.0,0.0,0.0,0.0,0.0,0.0,0.0,0.0,0.0,0.0,0.0,0.0,0.0,0.0,0.0,0.0,0.0,0.0,0.0,0.0,0.0,0.0,0.0,0.0,0.0,0.0,0.0,0.0,0.0,0.0,0.0,0.0,0.0,0.0,0.0,0.0,0.0,0.0,0.0,0.0,0.0,0.0,0.0,0.0,0.0,0.0,0.0,0.0,0.0,0.0,0.0,0.0,0.0,0.0,0.0,0.0,0.0,0.0,0.0,0.0,0.0,0.0,0.0,0.0,0.0,0.0,0.0,0.0,0.0,0.0,0.0,0.0,0.0,0.0,0.0,0.0,0.0,0.0,0.0,0.0,0.0,0.0,0.0,0.0,0.0,0.0,0.0,0.0,0.0,0.0,0.0,0.0,0.0,0.0,0.0,0.0,0.0,0.0,0.0,0.0,0.0,0.0,0.0,0.0,0.0,0.0,0.0,0.0,0.0,0.0,0.0,0.0,0.0,0.0,0.0,0.0,0.0,0.0,0.0,0.0,0.0,0.0,0.0,0.0,0.0,0.0,0.0,0.0,0.0,0.0,0.0,0.0,0.0,0.0,0.0,0.0,0.0,0.0,0.0,0.0,0.0,0.0,0.0,0.0,0.0,0.0,0.0,0.0,0.0,0.0,0.0,0.0,0.0,0.0,0.0,0.0,0.0,0.0,0.0,0.0,0.0,0.0,0.0,0.0,0.0,0.0,0.0,0.0,0.0,0.0,0.0,0.0,0.0,0.0,0.0,0.0,0.0,0.0,0.0,0.0,0.0,0.0,0.0,0.0,0.0,0.0,0.0,0.0,0.0,0.0,0.0,0.0,0.0,0.0,0.0,0.0,0.0,0.0,0.0,0.0,0.0,0.0,0.0,0.0,0.0,0.0,0.0,0.0,0.0,0.0,0.0,0.0,0.0,0.0,0.0,0.0,0.0,0.0,0.0,0.0,0.0,0.0,0.0,0.0,0.0,0.0,0.0,0.0,0.0,0.0,0.0,0.0,0.0,0.0,0.0,0.0,0.0,0.0,0.0,0.0,0.0,0.0,0.0,0.0,0.0,0.0,0.0,0.0,0.0,0.0,0.0,0.0,0.0,0.0,0.0,0.0,0.0,0.0,0.0,0.0,0.0,0.0,0.0,0.0,0.0,0.0,0.0,0.0,0.0,0.0,0.0,0.0,0.0,0.0,0.0,0.0,0.0,0.0,0.0,0.0,0.0,0.0,0.0,0.0,0.0,0.0,0.0,0.0,0.0,0.0,0.0,0.0,0.0,0.0,0.0,0.0,0.0,0.0,0.0,0.0,0.0,0.0,0.0,0.0,0.0,0.0,0.0,0.0,0.0,0.0,0.0,0.0,0.0,0.0,0.0,0.0,0.0,0.0,0.0,0.0,0.0,0.0,0.0,0.0,0.0,0.0,0.0,0.0,0.0,0.0,0.0,0.0,0.0,0.0,0.0,0.0,0.0,0.0,0.0,0.0,0.0,0.0,0.0,0.0,0.0,0.0,0.0,0.0,0.0,0.0,-0.8913,0.0,0.0,0.0,0.0,0.0,0.0,0.0,0.0,0.0,0.0,0.0,0.0,0.0,0.0,0.0,0.0,0.0,0.0,0.0,0.0,0.0,0.0,0.0,0.0,0.0,0.0,0.0,0.0,0.0,0.0,0.0,0.0,0.0,0.0,0.0,0.0,0.0,0.0,0.0,0.0,0.0,0.0,0.0,0.0,0.0,0.0,0.0,0.0,0.0,0.0,0.0,0.0,0.0,0.0,0.0,0.0,0.0,0.0,0.0,0.0,0.0,0.0,0.0,0.0,0.0,0.0,0.0,0.0,0.0,0.0,0.0,0.0,0.0,0.0,0.0,0.0,0.0,0.0,0.0,0.0,0.0,0.0,0.0,0.0,0.0,0.0,0.0,0.0,0.0,0.0,0.0,0.0,0.0,0.0,0.0,0.0,0.0,0.0,0.0,0.0,0.0,0.0,0.0,0.0,0.0,0.0,0.0,0.0,0.0,0.0,-0.9456,-0.9403,-0.934,-0.9199,-0.9033,0.0,0.0,0.0,0.0,0.0,0.0,0.0,0.0,0.0,0.0,0.0,0.0,0.0,0.0,0.0,0.0,0.0,0.0,0.0,0.0,0.0,0.0,0.0,0.0,0.0,0.0,0.0,0.0,0.0,0.0,0.0,0.0,0.0,0.0,0.0,0.0,0.0,0.0,0.0,0.0,0.0,0.0,0.0,0.0,0.0,0.0,0.0,0.0,0.0,0.0,0.0,0.0,0.0,0.0,0.0,0.0,0.0,0.0,0.0,0.0,0.0,0.0,0.0,0.0,0.0,0.0,0.0,0.0,0.0,0.0,0.0,0.0,0.0,0.0,0.0,0.0,0.0,0.0,0.0,0.0,0.0,0.0,0.0,0.0,0.0,0.0,0.0,0.0,0.0,0.0,0.0,0.0,0.0,0.0,0.0,0.0,0.0,0.0,0.0,0.0,0.0,0.0,0.0,0.0,0.0,0.0,0.0,0.0,0.0,0.0,0.0,0.0,-0.9978,-0.9885,-0.9809,0.0,0.0,0.0,0.0,0.0,0.0,0.0,0.0,0.0,0.0,0.0,0.0,0.0,0.0,0.0,0.0,0.0,0.0,0.0,0.0,0.0,0.0,0.0,0.0,0.0,0.0,0.0,0.0,0.0,0.0,0.0,0.0,0.0,0.0,0.0,0.0,0.0,0.0,0.0,0.0,0.0,0.0,0.0,0.0,0.0,0.0,0.0,0.0,0.0,0.0,0.0,0.0,0.0,0.0,0.0,0.0,0.0,0.0,0.0,0.0,0.0,0.0,0.0,0.0,0.0,0.0,0.0,0.0,0.0,0.0,0.0,0.0,0.0,0.0,0.0,0.0,0.0,0.0,0.0,0.0,0.0,0.0,0.0,0.0,0.0,0.0,0.0,0.0,0.0,0.0,0.0,0.0,0.0,0.0,0.0,0.0,0.0,0.0,0.0,0.0,0.0,0.0,0.0,0.0,0.0,0.0,0.0,0.0,0.0,0.0,-1.0319,-1.1654,-1.1771,0.0,-1.1911,0.0,0.0,0.0,0.0,0.0,0.0,0.0,0.0,0.0,0.0,0.0,0.0,0.0,0.0,0.0,0.0,0.0,0.0,0.0,0.0,0.0,0.0,0.0,0.0,0.0,0.0,0.0,0.0,0.0,0.0,0.0,0.0,0.0,0.0,0.0,0.0,0.0,0.0,0.0,0.0,0.0,0.0,0.0,0.0,0.0,0.0,0.0,0.0,0.0,0.0,0.0,0.0,0.0,0.0,0.0,0.0,0.0,0.0,0.0,0.0,0.0,0.0,0.0,0.0,0.0,0.0,0.0,0.0,0.0,0.0,0.0,0.0,0.0,0.0,0.0,0.0,0.0,0.0,0.0,0.0,0.0,0.0,0.0,0.0,0.0,0.0,0.0,0.0,0.0,0.0,0.0,0.0,0.0,0.0,0.0,0.0,0.0,0.0,0.0,0.0,0.0,0.0,0.0,0.0,0.0,0.0,0.0,0.0,0.0,0.0,-1.1398,-1.2,-1.1998,-1.2057,0.0,0.0,0.0,0.0,0.0,0.0,0.0,0.0,0.0,0.0,0.0,0.0,0.0,0.0,0.0,0.0,0.0,0.0,0.0,0.0,0.0,0.0,0.0,0.0,0.0,0.0,0.0,0.0,0.0,0.0,0.0,0.0,0.0,0.0,0.0,0.0,0.0,0.0,0.0,0.0,0.0,0.0,0.0,0.0,0.0,0.0,0.0,0.0,0.0,0.0,0.0,0.0,0.0,0.0,0.0,0.0,0.0,0.0,0.0,0.0,0.0,0.0,0.0,0.0,0.0,0.0,0.0,0.0,0.0,0.0,0.0,0.0,0.0,0.0,0.0,0.0,0.0,0.0,0.0,0.0,0.0,0.0,0.0,0.0,0.0,0.0,0.0,0.0,0.0,0.0,0.0,0.0,0.0,0.0,0.0,0.0,0.0,0.0,0.0,0.0,0.0,0.0,0.0,0.0,0.0,0.0,0.0,0.0,0.0,0.0,-1.1746,0.0,-1.2737,-1.2747,-1.2567,-1.223,0.0,0.0,0.0,0.0,0.0,0.0,0.0,0.0,0.0,0.0,0.0,0.0,0.0,0.0,0.0,0.0,0.0,0.0,0.0,0.0,0.0,0.0,0.0,0.0,0.0,0.0,0.0,0.0,0.0,0.0,0.0,0.0,0.0,0.0,0.0,0.0,0.0,0.0,0.0,0.0,0.0,0.0,0.0,0.0,0.0,0.0,0.0,0.0,0.0,0.0,0.0,0.0,0.0,0.0,0.0,0.0,0.0,0.0,0.0,0.0,0.0,0.0,0.0,0.0,0.0,0.0,0.0,0.0,0.0,0.0,0.0,0.0,0.0,0.0,0.0,0.0,0.0,0.0,0.0,0.0,0.0,0.0,0.0,0.0,0.0,0.0,0.0,0.0,0.0,0.0,0.0,0.0,0.0,0.0,0.0,0.0,0.0,0.0,0.0,0.0,0.0,0.0,0.0,0.0,0.0,0.0,0.0,0.0,0.0,-1.2821,-1.2847,-1.4334,-1.4625,-1.3984,0.0,0.0,0.0,0.0,0.0,0.0,0.0,0.0,0.0,0.0,0.0,0.0,0.0,0.0,0.0,0.0,0.0,0.0,0.0,0.0,0.0,0.0,0.0,0.0,0.0,0.0,0.0,0.0,0.0,0.0,0.0,0.0,0.0,0.0,0.0,0.0,0.0,0.0,0.0,0.0,0.0,0.0,0.0,0.0,0.0,0.0,0.0,0.0,0.0,0.0,0.0,0.0,0.0,0.0,0.0,0.0,0.0,0.0,0.0,0.0,0.0,0.0,0.0,0.0,0.0,0.0,0.0,0.0,0.0,0.0,0.0,0.0,0.0,0.0,0.0,0.0,0.0,0.0,0.0,0.0,0.0,0.0,0.0,0.0,0.0,0.0,0.0,0.0,0.0,0.0,0.0,0.0,0.0,0.0,0.0,0.0,0.0,0.0,0.0,0.0,0.0,0.0,0.0,0.0,0.0,0.0,0.0,0.0,0.0,-1.1448,-1.1918,-1.3395,-1.5826,-1.4138,-1.3337,0.0,0.0,0.0,0.0,0.0,0.0,0.0,0.0,0.0,0.0,0.0,0.0,0.0,0.0,0.0,0.0,0.0,0.0,0.0,0.0,0.0,0.0,0.0,0.0,0.0,0.0,0.0,0.0,0.0,0.0,0.0,0.0,0.0,0.0,0.0,0.0,0.0,0.0,0.0,0.0,0.0,0.0,0.0,0.0,0.0,0.0,0.0,0.0,0.0,0.0,0.0,0.0,0.0,0.0,0.0,0.0,0.0,0.0,0.0,0.0,0.0,0.0,0.0,0.0,0.0,0.0,0.0,0.0,0.0,0.0,0.0,0.0,0.0,0.0,0.0,0.0,0.0,0.0,0.0,0.0,0.0,0.0,0.0,0.0,0.0,0.0,0.0,0.0,0.0,0.0,0.0,0.0,0.0,0.0,0.0,0.0,0.0,0.0,0.0,0.0,0.0,0.0,0.0,0.0,0.0,0.0,0.0,0.0,0.0,-1.145,0.0,-1.4548,0.0,-1.4122,-1.3049,0.0,0.0,0.0,0.0,0.0,0.0,0.0,0.0,0.0,0.0,0.0,0.0,0.0,0.0,0.0,0.0,0.0,0.0,0.0,0.0,0.0,0.0,0.0,0.0,0.0,0.0,0.0,0.0,0.0,0.0,0.0,0.0,0.0,0.0,0.0,0.0,0.0,0.0,0.0,0.0,0.0,0.0,0.0,0.0,0.0,0.0,0.0,0.0,0.0,0.0,0.0,0.0,0.0,0.0,0.0,0.0,0.0,0.0,0.0,0.0,0.0,0.0,0.0,0.0,0.0,0.0,0.0,0.0,0.0,0.0,0.0,0.0,0.0,0.0,0.0,0.0,0.0,0.0,0.0,0.0,0.0,0.0,0.0,0.0,0.0,0.0,0.0,0.0,0.0,0.0,0.0,0.0,0.0,0.0,0.0,0.0,0.0,0.0,0.0,0.0,0.0,0.0,0.0,0.0,0.0,0.0,0.0,0.0,-1.1558,-1.4669,-1.6124,-1.6179,-1.485,-1.4766,-1.3303,0.0,0.0,0.0,0.0,0.0,0.0,0.0,0.0,0.0,0.0,0.0,0.0,0.0,0.0,0.0,0.0,0.0,0.0,0.0,0.0,0.0,0.0,0.0,0.0,0.0,0.0,0.0,0.0,0.0,0.0,0.0,0.0,0.0,0.0,0.0,0.0,0.0,0.0,0.0,0.0,0.0,0.0,0.0,0.0,0.0,0.0,0.0,0.0,0.0,0.0,0.0,0.0,0.0,0.0,0.0,0.0,0.0,0.0,0.0,0.0,0.0,0.0,0.0,0.0,0.0,0.0,0.0,0.0,0.0,0.0,0.0,0.0,0.0,0.0,0.0,0.0,0.0,0.0,0.0,0.0,0.0,0.0,0.0,0.0,0.0,0.0,0.0,0.0,0.0,0.0,0.0,0.0,0.0,0.0,0.0,0.0,0.0,0.0,0.0,0.0,0.0,0.0,0.0,0.0,0.0,0.0,0.0,0.0,0.0,-1.3102,-1.5226,-1.6586,-1.6934,-1.4443,-1.3355,0.0,0.0,0.0,0.0,0.0,0.0,0.0,0.0,0.0,0.0,0.0,0.0,0.0,0.0,0.0,0.0,0.0,0.0,0.0,0.0,0.0,0.0,0.0,0.0,0.0,0.0,0.0,0.0,0.0,0.0,0.0,0.0,0.0,0.0,0.0,0.0,0.0,0.0,0.0,0.0,0.0,0.0,0.0,0.0,0.0,0.0,0.0,0.0,0.0,0.0,0.0,0.0,0.0,0.0,0.0,0.0,0.0,0.0,0.0,0.0,0.0,0.0,0.0,0.0,0.0,0.0,0.0,0.0,0.0,0.0,0.0,0.0,0.0,0.0,0.0,0.0,0.0,0.0,0.0,0.0,0.0,0.0,0.0,0.0,0.0,0.0,0.0,0.0,0.0,0.0,0.0,0.0,0.0,0.0,0.0,0.0,0.0,0.0,0.0,0.0,0.0,0.0,0.0,0.0,0.0,0.0,0.0,0.0,0.0,-1.484,-1.7121,-1.8391,-1.8403,-1.5586,-1.4401,-1.5009,0.0,0.0,0.0,0.0,0.0,0.0,0.0,0.0,0.0,0.0,0.0,0.0,0.0,0.0,0.0,0.0,0.0,0.0,0.0,0.0,0.0,0.0,0.0,0.0,0.0,0.0,0.0,0.0,0.0,0.0,0.0,0.0,0.0,0.0,0.0,0.0,0.0,0.0,0.0,0.0,0.0,0.0,0.0,0.0,0.0,0.0,0.0,0.0,0.0,0.0,0.0,0.0,0.0,0.0,0.0,0.0,0.0,0.0,0.0,0.0,0.0,0.0,0.0,0.0,0.0,0.0,0.0,0.0,0.0,0.0,0.0,0.0,0.0,0.0,0.0,0.0,0.0,0.0,0.0,0.0,0.0,0.0,0.0,0.0,0.0,0.0,0.0,0.0,0.0,0.0,0.0,0.0,0.0,0.0,0.0,0.0,0.0,0.0,0.0,0.0,0.0,0.0,0.0,0.0,0.0,0.0,0.0,0.0,-1.8944,-2.1248,-2.1403,-1.9247,-1.7935,-1.6272,0.0,0.0,0.0,0.0,0.0,0.0,0.0,0.0,0.0,0.0,0.0,0.0,0.0,0.0,0.0,0.0,0.0,0.0,0.0,0.0,0.0,0.0,0.0,0.0,0.0,0.0,0.0,0.0,0.0,0.0,0.0,0.0,0.0,0.0,0.0,0.0,0.0,0.0,0.0,0.0,0.0,0.0,0.0,0.0,0.0,0.0,0.0,0.0,0.0,0.0,0.0,0.0,0.0,0.0,0.0,0.0,0.0,0.0,0.0,0.0,0.0,0.0,0.0,0.0,0.0,0.0,0.0,0.0,0.0,0.0,0.0,0.0,0.0,0.0,0.0,0.0,0.0,0.0,0.0,0.0,0.0,0.0,0.0,0.0,0.0,0.0,0.0,0.0,0.0,0.0,0.0,0.0,0.0,0.0,0.0,0.0,0.0,0.0,0.0,0.0,0.0,0.0,0.0,0.0,0.0,0.0,0.0,0.0,0.0,-2.0828,-2.3237,-2.3804,-2.2317,-1.9768,-1.807,0.0,0.0,0.0,0.0,0.0,0.0,0.0,0.0,0.0,0.0,0.0,0.0,0.0,0.0,0.0,0.0,0.0,0.0,0.0,0.0,0.0,0.0,0.0,0.0,0.0,0.0,0.0,0.0,0.0,0.0,0.0,0.0,0.0,0.0,0.0,0.0,0.0,0.0,0.0,0.0,0.0,0.0,0.0,0.0,0.0,0.0,0.0,0.0,0.0,0.0,0.0,0.0,0.0,0.0,0.0,0.0,0.0,0.0,0.0,0.0,0.0,0.0,0.0,0.0,0.0,0.0,0.0,0.0,0.0,0.0,0.0,0.0,0.0,0.0,0.0,0.0,0.0,0.0,0.0,0.0,0.0,0.0,0.0,0.0,0.0,0.0,0.0,0.0,0.0,0.0,0.0,0.0,0.0,0.0,0.0,0.0,0.0,0.0,0.0,0.0,0.0,0.0,0.0,0.0,0.0,0.0,0.0,0.0,-2.0534,-2.2543,-2.437,-2.4973,-2.4269,-2.1767,-1.9898,0.0,0.0,0.0,0.0,0.0,0.0,0.0,0.0,0.0,0.0,0.0,0.0,0.0,0.0,0.0,0.0,0.0,0.0,0.0,0.0,0.0,0.0,0.0,0.0,0.0,0.0,0.0,0.0,0.0,0.0,0.0,0.0,0.0,0.0,0.0,0.0,0.0,0.0,0.0,0.0,0.0,0.0,0.0,0.0,0.0,0.0,0.0,0.0,0.0,0.0,0.0,0.0,0.0,0.0,0.0,0.0,0.0,0.0,0.0,0.0,0.0,0.0,0.0,0.0,0.0,0.0,0.0,0.0,0.0,0.0,0.0,0.0,0.0,0.0,0.0,0.0,0.0,0.0,0.0,0.0,0.0,0.0,0.0,0.0,0.0,0.0,0.0,0.0,0.0,0.0,0.0,0.0,0.0,0.0,0.0,0.0,0.0,0.0,0.0,0.0,0.0,0.0,0.0,0.0,0.0,0.0,0.0,0.0,-2.1645,-2.4159,-2.5024,-2.5437,-2.5399,-2.3697,-2.1656,0.0,0.0,0.0,0.0,0.0,0.0,0.0,0.0,0.0,0.0,0.0,0.0,0.0,0.0,0.0,0.0,0.0,0.0,0.0,0.0,0.0,0.0,0.0,0.0,0.0,0.0,0.0,0.0,0.0,0.0,0.0,0.0,0.0,0.0,0.0,0.0,0.0,0.0,0.0,0.0,0.0,0.0,0.0,0.0,0.0,0.0,0.0,0.0,0.0,0.0,0.0,0.0,0.0,0.0,0.0,0.0,0.0,0.0,0.0,0.0,0.0,0.0,0.0,0.0,0.0,0.0,0.0,0.0,0.0,0.0,0.0,0.0,0.0,0.0,0.0,0.0,0.0,0.0,0.0,0.0,0.0,0.0,0.0,0.0,0.0,0.0,0.0,0.0,0.0,0.0,0.0,0.0,0.0,0.0,0.0,0.0,0.0,0.0,0.0,0.0,0.0,0.0,0.0,0.0,0.0,0.0,0.0,0.0,-2.248,-2.4976,-2.587,-2.6332,-2.6332,-2.4678,-2.289,0.0,0.0,0.0,0.0,0.0,0.0,0.0,0.0,0.0,0.0,0.0,0.0,0.0,0.0,0.0,0.0,0.0,0.0,0.0,0.0,0.0,0.0,0.0,0.0,0.0,0.0,0.0,0.0,0.0,0.0,0.0,0.0,0.0,0.0,0.0,0.0,0.0,0.0,0.0,0.0,0.0,0.0,0.0,0.0,0.0,0.0,0.0,0.0,-1.206,0.0,0.0,0.0,0.0,0.0,0.0,0.0,0.0,0.0,0.0,0.0,0.0,0.0,0.0,0.0,0.0,0.0,0.0,0.0,0.0,0.0,0.0,0.0,0.0,0.0,0.0,0.0,0.0,0.0,0.0,0.0,0.0,0.0,0.0,0.0,0.0,0.0,0.0,0.0,0.0,0.0,0.0,0.0,0.0,0.0,0.0,0.0,0.0,0.0,0.0,0.0,0.0,0.0,0.0,0.0,0.0,0.0,0.0,0.0,-2.3333,-2.5822,-2.637,-2.6621,-2.6582,-2.5736,-2.4101,0.0,0.0,0.0,0.0,0.0,0.0,0.0,0.0,0.0,0.0,0.0,0.0,0.0,0.0,0.0,0.0,0.0,0.0,0.0,0.0,0.0,0.0,0.0,0.0,0.0,0.0,0.0,0.0,0.0,0.0,0.0,0.0,0.0,0.0,0.0,0.0,0.0,0.0,0.0,0.0,0.0,0.0,0.0,0.0,0.0,0.0,0.0,0.0,0.0,0.0,0.0,0.0,0.0,0.0,0.0,0.0,0.0,0.0,0.0,0.0,0.0,0.0,0.0,0.0,0.0,0.0,0.0,0.0,0.0,0.0,0.0,0.0,0.0,0.0,0.0,0.0,0.0,0.0,0.0,0.0,0.0,0.0,0.0,0.0,0.0,0.0,0.0,0.0,0.0,0.0,0.0,0.0,0.0,0.0,0.0,0.0,0.0,0.0,0.0,0.0,0.0,0.0,0.0,0.0,0.0,0.0,0.0,-2.1578,-2.3966,-2.6659,-2.6813,-2.6813,-2.6794,-2.6794,-2.5197,-2.1831,0.0,0.0,0.0,0.0,0.0,0.0,0.0,0.0,0.0,0.0,0.0,0.0,0.0,0.0,0.0,0.0,0.0,0.0,0.0,0.0,0.0,0.0,0.0,0.0,0.0,0.0,0.0,0.0,0.0,0.0,0.0,0.0,0.0,0.0,0.0,0.0,0.0,0.0,-1.0667,-1.2776,0.0,0.0,0.0,0.0,0.0,0.0,0.0,0.0,-1.3728,0.0,0.0,0.0,0.0,0.0,0.0,0.0,0.0,0.0,0.0,0.0,0.0,0.0,0.0,0.0,0.0,0.0,0.0,0.0,0.0,0.0,0.0,0.0,0.0,0.0,0.0,0.0,0.0,0.0,0.0,0.0,0.0,0.0,0.0,0.0,0.0,0.0,0.0,0.0,0.0,0.0,0.0,0.0,0.0,0.0,0.0,0.0,0.0,0.0,0.0,0.0,0.0,0.0,0.0,0.0,0.0,-2.2109,-2.1886,-2.3649,-2.7563,-2.7678,-2.7678,-2.7678,-2.7698,-2.6082,-2.2716,0.0,0.0,0.0,0.0,0.0,0.0,0.0,0.0,0.0,0.0,0.0,0.0,0.0,0.0,0.0,0.0,0.0,0.0,0.0,0.0,0.0,0.0,0.0,0.0,0.0,0.0,0.0,0.0,0.0,0.0,0.0,0.0,0.0,0.0,0.0,0.0,0.0,0.0,0.0,-1.4916,-1.631,0.0,0.0,0.0,0.0,0.0,0.0,0.0,0.0,-1.465,0.0,0.0,0.0,0.0,0.0,0.0,0.0,0.0,0.0,0.0,0.0,0.0,0.0,0.0,0.0,0.0,0.0,0.0,0.0,0.0,0.0,0.0,0.0,0.0,0.0,0.0,0.0,0.0,0.0,0.0,0.0,0.0,0.0,0.0,0.0,0.0,0.0,0.0,0.0,0.0,0.0,0.0,0.0,0.0,0.0,0.0,0.0,0.0,0.0,0.0,0.0,0.0,0.0,0.0,0.0,-2.137,-2.3237,-2.5378,-2.7794,-2.8294,-2.8313,-2.789,-2.7024,-2.5159,0.0,0.0,0.0,0.0,0.0,0.0,0.0,0.0,0.0,0.0,0.0,0.0,0.0,0.0,0.0,0.0,0.0,0.0,0.0,0.0,0.0,0.0,0.0,0.0,0.0,0.0,0.0,0.0,0.0,0.0,0.0,0.0,0.0,0.0,0.0,0.0,0.0,0.0,0.0,0.0,-1.6074,-1.7271,-1.7651,0.0,0.0,0.0,0.0,0.0,0.0,-1.7124,-1.6283,0.0,0.0,0.0,0.0,0.0,0.0,0.0,0.0,0.0,0.0,0.0,0.0,0.0,0.0,0.0,0.0,0.0,0.0,0.0,0.0,0.0,0.0,0.0,0.0,0.0,0.0,0.0,0.0,0.0,0.0,0.0,0.0,0.0,0.0,0.0,0.0,0.0,0.0,0.0,0.0,0.0,0.0,0.0,0.0,0.0,0.0,0.0,0.0,0.0,0.0,0.0,0.0,0.0,0.0,0.0,-2.035,-2.412,-2.6705,-2.7871,-2.869,-2.8717,-2.7909,-2.6544,-2.4466,0.0,0.0,0.0,0.0,0.0,0.0,0.0,0.0,0.0,0.0,0.0,0.0,0.0,0.0,0.0,0.0,0.0,0.0,0.0,0.0,0.0,0.0,0.0,0.0,0.0,0.0,0.0,0.0,0.0,0.0,0.0,0.0,0.0,0.0,0.0,0.0,0.0,0.0,0.0,0.0,0.0,-1.8465,-1.8484,-1.9523,0.0,0.0,0.0,0.0,-1.9931,-1.9186,0.0,0.0,0.0,0.0,0.0,0.0,0.0,0.0,0.0,0.0,0.0,0.0,0.0,0.0,0.0,0.0,0.0,0.0,0.0,0.0,0.0,0.0,0.0,0.0,0.0,0.0,0.0,0.0,0.0,0.0,0.0,0.0,0.0,0.0,0.0,0.0,0.0,0.0,0.0,0.0,0.0,0.0,0.0,0.0,0.0,0.0,0.0,0.0,0.0,0.0,0.0,0.0,0.0,0.0,0.0,0.0,-2.0254,-2.2988,-2.5529,-2.7794,-2.8679,-2.8698,-2.7909,-2.7698,-2.5678,0.0,0.0,0.0,0.0,0.0,0.0,0.0,0.0,0.0,0.0,0.0,0.0,0.0,0.0,0.0,0.0,0.0,0.0,0.0,0.0,0.0,0.0,0.0,0.0,0.0,0.0,0.0,0.0,0.0,0.0,0.0,0.0,0.0,0.0,0.0,0.0,0.0,0.0,0.0,0.0,0.0,-2.1045,-2.106,-2.0625,-2.0496,0.0,0.0,-2.0745,-2.2392,-2.1814,0.0,0.0,0.0,0.0,0.0,0.0,0.0,0.0,0.0,0.0,0.0,0.0,0.0,0.0,0.0,0.0,0.0,0.0,0.0,0.0,0.0,0.0,0.0,0.0,0.0,0.0,0.0,0.0,0.0,0.0,0.0,0.0,0.0,0.0,0.0,0.0,0.0,0.0,0.0,0.0,0.0,0.0,0.0,0.0,0.0,0.0,0.0,0.0,0.0,0.0,0.0,0.0,0.0,0.0,0.0,-1.7829,-2.0331,-2.4245,-2.6781,-2.789,-2.9179,-2.9217,-2.7909,-2.6928,-2.4678,0.0,0.0,0.0,0.0,0.0,0.0,0.0,0.0,0.0,0.0,0.0,0.0,0.0,0.0,0.0,0.0,0.0,0.0,0.0,0.0,0.0,0.0,0.0,0.0,0.0,0.0,0.0,0.0,0.0,0.0,0.0,0.0,0.0,0.0,0.0,0.0,0.0,0.0,0.0,0.0,0.0,0.0,-2.2172,-2.2354,0.0,0.0,0.0,-2.2574,-2.293,0.0,0.0,0.0,0.0,0.0,0.0,0.0,0.0,0.0,0.0,0.0,0.0,0.0,0.0,0.0,0.0,0.0,0.0,0.0,0.0,0.0,0.0,0.0,0.0,0.0,0.0,0.0,0.0,0.0,0.0,0.0,0.0,0.0,0.0,0.0,0.0,0.0,0.0,0.0,0.0,0.0,0.0,0.0,0.0,0.0,0.0,0.0,0.0,0.0,0.0,0.0,0.0,0.0,0.0,0.0,0.0,0.0,-2.035,-2.5313,-2.789,-2.7948,-2.9544,-2.9602,-2.7928,-2.6621,0.0,0.0,0.0,0.0,0.0,0.0,0.0,0.0,0.0,0.0,0.0,0.0,0.0,0.0,0.0,0.0,0.0,0.0,0.0,0.0,0.0,0.0,0.0,0.0,0.0,0.0,0.0,-0.7975,0.0,0.0,0.0,0.0,0.0,0.0,0.0,0.0,0.0,0.0,0.0,0.0,0.0,0.0,-2.2205,-2.3025,-2.3679,-2.3957,0.0,0.0,-2.3967,-2.3592,-2.4017,-2.3547,0.0,0.0,0.0,0.0,0.0,0.0,0.0,0.0,0.0,0.0,0.0,0.0,0.0,0.0,0.0,0.0,0.0,0.0,0.0,0.0,0.0,0.0,0.0,0.0,0.0,0.0,0.0,0.0,0.0,0.0,0.0,0.0,0.0,0.0,0.0,0.0,0.0,0.0,0.0,0.0,0.0,0.0,0.0,0.0,0.0,0.0,0.0,0.0,0.0,0.0,0.0,0.0,0.0,0.0,0.0,-2.0389,-2.5313,-2.7909,-2.7948,-2.9544,-2.9602,-2.7967,-2.7775,-2.539,0.0,0.0,0.0,0.0,0.0,0.0,0.0,0.0,0.0,0.0,0.0,0.0,0.0,0.0,0.0,0.0,0.0,0.0,0.0,0.0,0.0,0.0,0.0,0.0,0.0,0.0,0.0,0.0,0.0,0.0,0.0,0.0,0.0,0.0,0.0,0.0,0.0,0.0,0.0,0.0,0.0,-2.3102,-2.3889,-2.4063,-2.4351,0.0,0.0,-2.4361,-2.5111,-2.5216,-2.4409,-2.2077,0.0,0.0,0.0,0.0,0.0,0.0,0.0,0.0,0.0,0.0,0.0,0.0,0.0,0.0,0.0,0.0,0.0,0.0,0.0,0.0,0.0,0.0,0.0,0.0,0.0,0.0,0.0,0.0,0.0,0.0,0.0,0.0,0.0,0.0,0.0,0.0,0.0,0.0,0.0,0.0,0.0,0.0,0.0,0.0,0.0,0.0,0.0,0.0,0.0,0.0,0.0,0.0,0.0,-1.9078,-2.1831,-2.5832,-2.814,-2.8659,-2.9794,-2.9621,-2.7928,-2.789,-2.5705,0.0,0.0,0.0,0.0,0.0,0.0,0.0,0.0,0.0,0.0,0.0,0.0,0.0,0.0,0.0,0.0,0.0,0.0,0.0,0.0,0.0,0.0,0.0,0.0,0.0,0.0,0.0,0.0,-0.9481,-0.9651,-0.9987,0.0,0.0,0.0,0.0,0.0,0.0,0.0,0.0,0.0,0.0,-2.413,-2.5466,-2.5187,0.0,0.0,-2.5831,-2.5562,-2.536,-2.5803,-2.5504,-2.3544,-2.321,0.0,0.0,0.0,0.0,0.0,0.0,0.0,0.0,0.0,0.0,0.0,0.0,0.0,0.0,0.0,0.0,0.0,0.0,0.0,0.0,0.0,0.0,0.0,0.0,0.0,0.0,0.0,0.0,0.0,0.0,0.0,0.0,0.0,0.0,0.0,0.0,0.0,0.0,0.0,0.0,0.0,0.0,0.0,0.0,0.0,0.0,0.0,0.0,0.0,0.0,0.0,0.0,-1.9651,-2.2782,-2.6158,-2.8302,-2.9083,-2.9948,-2.9717,-2.8332,-2.8025,-2.6071,0.0,0.0,0.0,0.0,0.0,0.0,0.0,0.0,0.0,0.0,0.0,0.0,0.0,0.0,0.0,0.0,0.0,0.0,0.0,0.0,0.0,0.0,0.0,0.0,0.0,0.0,0.0,0.0,-1.0039,-1.0047,-1.0132,0.0,0.0,0.0,0.0,0.0,0.0,0.0,0.0,0.0,0.0,-2.5033,-2.6409,-2.6332,-2.6332,-2.6968,-2.6804,-2.6428,-2.5822,-2.6264,-2.6073,-2.4375,0.0,0.0,0.0,0.0,0.0,0.0,0.0,0.0,0.0,0.0,0.0,0.0,0.0,0.0,0.0,0.0,0.0,0.0,0.0,0.0,0.0,0.0,0.0,0.0,0.0,0.0,0.0,-1.1486,0.0,0.0,-1.0291,0.0,0.0,0.0,0.0,0.0,0.0,0.0,0.0,0.0,0.0,0.0,0.0,0.0,0.0,0.0,0.0,0.0,0.0,0.0,0.0,0.0,0.0,-2.025,-2.2831,-2.6203,-2.8295,-2.9102,-2.9948,-2.9967,-2.9094,-2.8313,-2.6678,-2.4043,0.0,0.0,0.0,0.0,0.0,0.0,0.0,0.0,0.0,0.0,0.0,0.0,0.0,0.0,0.0,0.0,0.0,0.0,0.0,0.0,0.0,0.0,0.0,0.0,0.0,0.0,-1.0125,-1.0113,-1.0148,0.0,0.0,0.0,0.0,0.0,0.0,0.0,0.0,0.0,0.0,-2.4321,-2.5705,-2.6631,-2.7411,-2.7892,-2.8048,-2.7306,-2.6718,-2.6687,-2.6649,-2.6034,0.0,0.0,0.0,0.0,0.0,0.0,0.0,0.0,0.0,0.0,0.0,0.0,0.0,0.0,0.0,0.0,0.0,0.0,0.0,0.0,0.0,0.0,0.0,0.0,0.0,0.0,0.0,-1.604,-1.4695,0.0,0.0,0.0,0.0,0.0,0.0,0.0,0.0,0.0,0.0,0.0,-2.4052,-2.4351,0.0,0.0,0.0,0.0,0.0,0.0,0.0,0.0,0.0,0.0,0.0,0.0,-2.1073,-2.5178,-2.7009,-2.8564,-2.9929,-3.0244,-2.9987,-2.9102,-2.8195,-2.6209,-2.3138,0.0,0.0,0.0,0.0,0.0,0.0,0.0,0.0,0.0,0.0,0.0,0.0,0.0,0.0,0.0,0.0,0.0,0.0,0.0,0.0,0.0,0.0,0.0,0.0,0.0,-1.0808,0.0,0.0,0.0,0.0,0.0,0.0,0.0,0.0,0.0,0.0,0.0,-2.3332,-2.4466,-2.6042,-2.7379,-2.8247,-2.8112,-2.8132,0.0,0.0,0.0,0.0,0.0,0.0,0.0,0.0,0.0,0.0,0.0,0.0,0.0,0.0,-2.6196,-2.2259,-2.0889,-2.0499,-2.1086,0.0,0.0,0.0,0.0,0.0,0.0,0.0,0.0,0.0,0.0,0.0,0.0,0.0,0.0,-1.912,0.0,-1.7704,0.0,0.0,0.0,0.0,0.0,0.0,0.0,0.0,-2.5331,-2.6892,-2.7904,-2.793,-2.7926,0.0,-2.6533,-2.4293,0.0,0.0,0.0,0.0,0.0,0.0,0.0,0.0,-2.2694,-2.6458,-2.7731,-2.8998,-3.0321,-3.0311,-2.9998,-2.9404,-2.8139,-2.6127,-2.3335,-2.1658,-1.9964,0.0,0.0,0.0,0.0,0.0,0.0,0.0,0.0,0.0,0.0,0.0,0.0,0.0,0.0,0.0,0.0,0.0,0.0,0.0,0.0,0.0,0.0,0.0,-1.1723,0.0,0.0,0.0,0.0,0.0,0.0,0.0,0.0,0.0,-2.3736,-2.4521,-2.5414,-2.6591,-2.764,-2.8651,-2.9528,0.0,0.0,0.0,0.0,0.0,0.0,0.0,-2.9344,-2.9525,-2.9648,-2.9956,-3.0722,-3.1553,-3.2027,-3.1742,0.0,0.0,-2.5358,-2.3698,-2.3122,-2.3698,-2.4926,-2.5894,-2.5866,-2.6993,-2.7802,0.0,0.0,0.0,0.0,0.0,0.0,0.0,0.0,-2.1322,-2.1652,0.0,-2.0556,0.0,0.0,0.0,0.0,0.0,-2.3621,0.0,0.0,-2.9072,-3.0441,-3.0477,-3.046,-3.047,-3.0567,-3.1212,-3.0294,-2.7717,-2.2207,0.0,0.0,0.0,0.0,0.0,0.0,-2.4971,-2.6708,-2.8272,-2.9529,-3.0328,-3.0136,-2.998,-2.987,-2.8165,-2.6415,-2.4783,-2.315,-2.1481,-1.9744,-1.7444,0.0,0.0,0.0,0.0,0.0,0.0,0.0,0.0,0.0,0.0,0.0,0.0,0.0,0.0,0.0,0.0,0.0,0.0,0.0,0.0,-1.2276,0.0,0.0,0.0,0.0,0.0,0.0,0.0,0.0,0.0,0.0,-2.7003,-2.6963,-2.7404,-2.8967,0.0,0.0,0.0,0.0,-3.1827,-3.1904,-3.1866,-3.1802,-3.1802,-3.1718,-3.141,-3.0679,0.0,0.0,-3.1968,-3.2468,-3.2788,-3.1973,-3.1884,-3.1499,-3.0621,-2.8904,-2.7881,-2.7948,-2.8544,-2.914,-2.9236,-2.9813,-3.041,-2.7659,0.0,0.0,0.0,0.0,-2.6083,-2.6775,-2.7765,-2.7937,-2.7064,-2.5372,-2.4988,0.0,0.0,0.0,0.0,0.0,0.0,-2.8199,-2.9561,-3.0402,-3.1401,-3.2512,-3.2105,-3.2211,-3.2787,-3.2039,-3.1333,-3.0525,-2.8275,-2.5178,-2.1427,0.0,0.0,0.0,0.0,-2.6099,-2.8266,-2.8868,-2.9436,-3.0085,-3.0052,-2.9554,-2.8668,-2.7702,-2.6634,-2.5439,-2.4535,-2.321,-2.1393,-2.0101,0.0,0.0,0.0,0.0,0.0,0.0,0.0,0.0,0.0,0.0,0.0,0.0,0.0,0.0,0.0,0.0,0.0,0.0,0.0,-1.3781,-1.4276,-1.5177,0.0,0.0,0.0,0.0,0.0,0.0,0.0,0.0,0.0,-3.014,-2.9763,-2.9763,0.0,0.0,-3.1929,-3.2244,-3.2468,-3.2602,-3.2609,-3.2602,0.0,-3.2602,-3.2083,-3.2025,-3.2949,-3.4045,-3.468,-3.4455,-3.4609,-3.468,-3.441,-3.3897,-3.3403,-3.3051,-3.1237,-3.0025,-3.0467,-3.0814,-3.116,-3.1698,-3.2025,-3.2179,-3.2672,-3.0471,-2.916,-2.8968,-2.9558,-2.9872,-3.0522,-3.134,-3.1499,-3.0816,-2.9562,-2.8943,-2.7606,-2.5764,-2.5449,0.0,0.0,0.0,-3.1165,-3.2737,-3.2802,-3.3563,-3.4767,-3.4504,-3.4429,-3.4585,-3.3783,-3.3085,-3.2535,-3.2004,-2.9934,-2.6428,0.0,0.0,-2.6601,-2.7422,-2.8589,-3.0051,-3.0335,-3.0483,-3.0506,-3.0023,-2.9362,-2.8489,-2.7494,-2.6674,-2.606,-2.5074,-2.4043,-2.2922,-2.1795,-2.0148,0.0,0.0,0.0,0.0,0.0,0.0,0.0,0.0,0.0,0.0,0.0,-1.3151,0.0,0.0,0.0,0.0,-1.2834,-1.4258,-1.639,-1.7265,0.0,0.0,0.0,0.0,0.0,0.0,0.0,-2.7909,-2.9563,-3.1121,-3.2487,-3.2526,-3.2506,-3.2743,-3.2827,-3.3045,-3.3417,0.0,-3.341,-3.341,-3.3718,-3.393,-3.393,-3.3526,-3.3564,-3.4545,-3.5141,-3.5488,-3.5507,-3.5507,-3.5507,-3.543,-3.507,-3.471,-3.473,-3.3436,-3.2295,-3.2218,-3.2468,-3.2852,-3.3353,-3.3699,-3.393,-3.6541,-3.6229,-3.3238,-3.1898,-3.1843,-3.2577,-3.2897,-3.2904,-3.2882,-3.3283,-3.3771,-3.2324,-3.1641,-3.1556,-3.1071,0.0,-3.1721,-3.2974,-3.4222,-3.5572,-3.5773,-3.6271,-3.7022,-3.7046,-3.6685,-3.5956,-3.5975,-3.5323,-3.4118,-3.3985,-3.3299,-3.2052,-3.1168,-3.0662,-3.0583,-3.1345,-3.1783,-3.1763,-3.2241,-3.2091,-3.1258,-3.0075,-2.932,-2.8998,-2.7457,-2.6612,-2.6576,-2.5052,-2.419,-2.4153,-2.2795,-2.2236,-2.2523,0.0,0.0,0.0,0.0,0.0,0.0,0.0,0.0,0.0,0.0,0.0,0.0,0.0,0.0,0.0,-1.6111,0.0,-1.9116,-2.071,0.0,0.0,0.0,-2.512,-2.6914,-2.8403,-2.9698,-3.0686,0.0,0.0,-3.4391,-3.5199,-3.5397,-3.4589,-3.3782,-3.3603,-3.4372,-3.4545,-3.4507,-3.4584,-3.5199,-3.5685,-3.5699,-3.5661,-3.5661,-3.5757,-3.5699,-3.5795,-3.5795,-3.5782,-3.5738,-3.5795,-3.5718,-3.5705,-3.5699,-3.5628,-3.5185,-3.368,-3.3833,-3.4276,-3.4334,-3.4853,-3.5334,-3.8689,-3.8065,-3.7294,-3.6248,-3.5147,-3.533,-3.5404,-3.5432,-3.5413,-3.5147,-3.4687,-3.4302,-3.3799,-3.3238,-3.3713,-3.4026,-3.4192,-3.5155,-3.5754,-3.6095,-3.615,-3.6278,-3.6507,-3.6708,-3.6686,-3.6546,-3.6718,-3.6635,-3.6302,-3.5699,-3.5229,-3.4889,-3.4074,-3.2899,-3.1475,-3.2211,-3.2512,-3.2307,-3.2441,-3.1934,-3.0801,-3.0265,-2.9692,-2.9017,-2.7457,-2.6612,-2.6594,-2.5071,-2.419,-2.419,-2.3841,-2.3695,-2.3768,-1.9651,0.0,0.0,0.0,0.0,0.0,0.0,0.0,0.0,0.0,-1.7764,-1.4028,0.0,-1.7512,0.0,-1.7505,-1.9732,-2.1481,-2.2588,0.0,0.0,-2.7246,-2.8148,-3.1053,-3.1212,-3.191,-3.4045,-3.4628,-3.5449,-3.6911,-3.7276,-3.7237,-3.6791,-3.675,-3.6873,-3.7079,-3.7118,-3.7084,-3.706,-3.718,-3.7411,-3.7353,-3.7411,-3.7373,-3.7411,-3.7373,-3.7392,-3.7411,-3.7397,-3.7411,-3.7396,-3.742,-3.7411,-3.7353,-3.7411,-3.7276,-3.6796,-3.5968,-3.5199,-3.5218,-3.5391,-3.5507,-4.0175,-3.9772,-3.9772,-3.9258,-3.8377,-3.7679,-3.7367,-3.7386,-3.7367,-3.689,-3.6101,-3.5732,-3.5329,-3.4981,-3.5752,-3.6119,-3.6174,-3.6982,-3.7367,-3.7367,-3.7367,-3.7367,-3.7367,-3.7515,-3.7393,-3.7058,-3.7211,-3.7144,-3.6916,-3.6466,-3.6314,-3.6406,-3.5635,-3.4661,-3.3636,-3.3662,-3.3628,-3.3461,-3.2975,-3.2331,-3.1496,-3.063,-2.9824,-2.8994,-2.7438,-2.6429,-2.6062,-2.485,-2.419,-2.419,-2.419,-2.4042,-2.3637,-2.0833,-1.8412,0.0,0.0,0.0,0.0,0.0,0.0,0.0,0.0,0.0,0.0,0.0,-2.0938,-1.916,-2.0739,-2.2745,-2.4936,-2.6317,-2.8044,-3.0381,-3.0669,-3.1583,-3.382,-3.3974,-3.4622,-3.6392,-3.6603,-3.7123,-3.8373,-3.845,-3.845,-3.8613,-3.8689,-3.8476,-3.7926,-3.7909,-3.7988,-3.8003,-3.7988,-3.8007,-3.8007,-3.8007,-3.8007,-3.8007,-3.7988,-3.7988,-3.7988,-3.7993,-3.8007,-3.7998,-3.8003,-3.8007,-3.7997,-3.7993,-3.8007,-3.7892,-3.7276,-3.668,-3.6622,-3.6603,-3.6622,-4.1203,-4.1097,-4.1097,-4.1097,-4.1001,-3.9606,-3.9019,-3.9001,-3.8891,-3.8377,-3.7636,-3.6909,-3.6597,-3.6633,-3.7331,-3.7643,-3.7698,-3.8377,-3.8707,-3.8707,-3.8707,-3.8707,-3.8707,-3.8707,-3.8315,-3.7668,-3.7649,-3.7413,-3.6965,-3.6853,-3.6932,-3.7099,-3.6333,-3.5904,-3.5757,-3.5092,-3.4699,-3.4626,-3.3627,-3.2947,-3.2614,-3.1146,-2.9971,-2.9122,-2.7493,-2.6264,-2.5586,-2.4685,-2.419,-2.419,-2.419,-2.3876,-2.3159,-2.1568,-2.0317,0.0,-1.8027,0.0,0.0,0.0,0.0,0.0,0.0,0.0,0.0,-2.3122,-2.4297,-2.4265,-2.4891,-2.6209,-2.8482,-3.0324,-3.1781,-3.2743,-3.3743,-3.4737,-3.5718,-3.6449,-3.7199,-3.8065,-3.8161,-3.8488,-3.9296,-3.9195,-3.9337,-3.9775,-3.9728,-3.9193,-3.8118,-3.8163,-3.8385,-3.83,-3.8315,-3.8527,-3.8488,-3.8411,-3.8411,-3.8373,-3.845,-3.8319,-3.8411,-3.8396,-3.8358,-3.8373,-3.845,-3.8396,-3.8312,-3.8362,-3.8373,-3.845,-3.8373,-3.8219,-3.795,-3.7853,-3.8007,-4.168,-4.113,-4.1097,-4.1097,-4.1093,-4.0781,-4.0653,-4.0616,-3.9945,-3.9209,-3.8469,-3.8303,-3.8248,-3.8267,-3.8414,-3.8487,-3.8487,-3.8634,-3.8707,-3.8707,-3.8707,-3.8707,-3.8707,-3.8707,-3.8634,-3.8475,-3.8487,-3.8407,-3.8302,-3.7687,-3.7385,-3.7405,-3.663,-3.5855,-3.519,0.0,0.0,0.0,-3.3884,-3.3285,-3.2588,-3.1678,-3.0779,-2.9953,-2.7787,0.0,-2.6337,-2.4979,-2.419,-2.419,-2.419,0.0,0.0,0.0,0.0,0.0,0.0,0.0,0.0,0.0,0.0,0.0,-2.4226,-2.3644,-2.2231,-2.5141,-2.7151,-2.7233,-2.8923,-3.0101,-3.0197,-3.128,-3.2728,-3.4401,-3.499,-3.5853,-3.7296,-3.7661,-3.8084,-3.8931,-3.9046,-3.9354,-4.0085,-4.0207,-4.0039,-3.9781,-3.9861,-3.9787,-3.9258,-3.9412,-3.9771,-3.9977,-3.9873,-3.9988,-4.0008,-3.995,-3.9854,-4.0027,-4.0027,-3.9988,-3.9931,-3.9969,-3.9988,-3.995,-4.0008,-3.9988,-3.9988,-4.0027,-3.9912,-3.9988,-3.9988,-3.9623,-3.8296,-3.8007,-3.8007,-4.2653,0.0,-4.2286,-4.2286,0.0,-4.2304,-4.2286,-4.2194,-4.0997,-4.0262,-3.99,-3.99,-3.968,-3.9276,-3.9294,-3.9093,-3.8707,-3.8707,-3.8707,-3.8707,-3.8707,-3.8707,-3.8707,-3.8707,-3.8707,-3.8707,-3.8707,-3.8707,-3.867,-3.8285,-3.8083,-3.8083,-3.7276,-3.6652,-3.6229,-3.5414,-3.4686,-3.3999,-3.3862,-3.3605,-3.3183,-3.2412,-3.1421,-3.021,-2.865,0.0,0.0,0.0,0.0,0.0,0.0,0.0,0.0,0.0,0.0,-2.3511,-2.3144,-2.3088,-2.3492,-2.3933,-2.4707,-2.5893,-2.6737,-2.6783,-2.5799,-2.7603,-2.908,-2.9853,-3.1531,-3.2323,-3.1713,-3.3056,-3.4433,-3.542,-3.6613,-3.7738,-3.8507,-3.8988,-3.9392,-3.9777,-3.9908,-4.0065,-4.0431,-4.0372,-4.0194,-3.9901,-3.984,-3.988,-3.988,-3.9982,-4.0195,-4.0457,-4.0489,-4.0489,-4.0489,-4.0489,-4.0489,-4.0489,-4.0489,-4.0489,-4.0489,-4.0489,-4.0489,-4.0489,-4.0489,-4.0489,-4.0489,-4.0489,-4.0489,-4.0489,-4.0489,-4.0277,-3.9373,-3.9238,-3.9219,-4.3479,-4.3479,-4.3479,-4.3479,-4.3479,-4.3479,-4.3479,-4.3387,0.0,0.0,0.0,-4.1097,-4.0744,-4.012,-4.0102,-3.9753,-3.9148,-3.8982,-3.8927,-3.8909,-3.8781,-3.8707,-3.8707,-3.8707,-3.8707,-3.8707,-3.8707,-3.8707,-3.8707,-3.8707,-3.8707,-3.8634,-3.8028,-3.7551,-3.7232,-3.5763,-3.4586,-3.3844,-3.3807,-3.3807,-3.3788,-3.3018,-3.1971,-3.065,-2.9544,-2.837,-2.709,-2.6759,-2.6284,-2.5648,-2.5608,-2.5619,-2.5588,-2.5617,-2.5897,-2.6539,-2.6612,-2.6667,-2.6796,-2.6961,-2.7145,-2.7426,-2.8803,-2.9744,-3.0031,-2.9958,-3.0549,-3.2015,-3.343,-3.3917,-3.3146,-3.4857,-3.6187,-3.6359,-3.8112,-3.9315,-3.9508,-4.0065,-4.0431,-4.0489,-4.045,-4.0489,-4.0489,-4.0319,-4.0139,-4.0081,-3.988,-3.9775,-4.0022,-4.0139,-4.025,-4.0457,-4.0489,-4.0489,-4.0489,-4.0489,-4.0489,-4.0489,-4.0489,-4.0489,-4.0489,-4.0489,-4.0489,-4.0489,-4.0489,-4.0489,-4.0489,-4.0489,-4.0489,-4.0489,-4.0489,-4.0489,-4.0489,-4.0489,-4.0412,-4.3479,-4.3479,-4.3479,-4.3479,-4.3479,-4.3479,-4.3479,-4.3424,-4.2525,-4.1745,-4.1097,-4.1119,-4.1056,-4.0946,-4.0946,-4.0891,-4.0744,-4.0065,-3.9735,-3.968,-3.9019,-3.8707,-3.8707,-3.8707,-3.8707,-3.8707,-3.8707,-3.8707,-3.8707,-3.8707,-3.8707,-3.8689,-3.8579,-3.7845,-3.6486,-3.5487,-3.4586,-3.3825,-3.3807,-3.3807,-3.3788,-3.3018,-3.2522,-3.221,-3.0131,-2.8902,-2.8645,-2.7365,-2.6557,-2.645,-2.6436,-2.6434,-2.6426,-2.6439,-2.6475,-2.6591,-2.6612,-2.6906,-2.7603,-2.826,-2.9269,-3.06,-3.1586,-3.22,-3.2454,-3.1675,-3.1799,-3.339,-3.4963,-3.5605,-3.4881,-3.6035,-3.7246,-3.791,-3.8762,-3.9565,-4.02,-4.0392,-4.0489,-4.0489,-4.0489,-4.0489,-4.0489,-4.0457,-4.0339,-4.0158,-4.0062,-4.0061,-4.012,-4.0285,-4.0441,-4.0489,-4.0489,-4.0489,-4.0489,-4.0489,-4.0489,-4.0489,-4.0489,-4.0489,-4.0489,-4.0489,-4.0489,-4.0489,-4.0489,-4.0489,-4.0489,-4.0489,-4.0489,-4.0489,-4.0489,-4.0489,-4.0489,-4.0489,-4.0489,-4.3479,-4.3479,-4.3479,-4.3479,-4.3479,-4.3479,-4.3479,-4.3461,-4.3112,-4.2766,-4.2422,-4.2399,-4.2158,-4.1772,-4.1772,-4.1534,-4.1093,-4.0726,-4.0561,-4.0487,-3.9735,-3.9344,-3.9301,-3.8903,-3.8707,-3.8707,-3.8707,-3.8707,-3.8707,-3.8707,-3.8707,-3.8707,-3.8707,-3.8102,-3.7011,-3.6554,-3.5708,-3.4486,-3.4027,-3.3807,-3.3788,-3.344,-3.3054,-3.2632,-3.1494,-3.054,-2.9677,-2.8943,-2.8168,-2.7277,-2.7258,-2.7258,-2.724,-2.7248,-2.7435,-2.7879,-2.8319,-2.8723,-2.9072,-2.9843,-3.079,-3.1942,-3.2394,-3.2857,-3.3386,-3.2991,-3.3201,-3.4357,-3.5892,-3.6547,-3.6033,-3.7209,-3.819,-3.838,-3.9316,-4.0018,-4.0243,-4.0422,-4.0489,-4.0489,-4.0489,-4.0489,-4.0489,-4.0489,-4.0473,-4.0339,-4.0321,-4.0321,-4.0302,-4.0425,-4.0489,-4.0489,-4.0489,-4.0489,-4.0489,-4.0489,-4.0489,-4.0489,-4.0489,-4.0489,-4.0489,-4.0489,-4.0489,-4.0489,-4.0489,-4.0489,-4.0489,-4.0489,-4.0489,-4.0489,-4.0489,-4.0489,-4.0489,-4.0489,-4.0489,-4.3479,-4.3479,-4.3479,-4.3479,-4.3479,-4.3479,-4.3479,-4.3479,-4.3479,-4.3479,-4.3479,-4.3479,-4.313,-4.2598,-4.258,-4.2231,-4.168,-4.146,-4.1387,-4.1313,-4.0543,-4.0092,-3.986,-3.9234,-3.8872,-3.8726,-3.8707,-3.8707,-3.8707,-3.8707,-3.8707,-3.8707,-3.8707,-3.8285,-3.7514,-3.75,-3.6691,-3.5064,-3.4376,-3.3981,-3.3807,-3.3807,-3.3495,-3.2926,-3.2687,-3.2001,-3.0834,-3.0558,-2.9892,-2.8732,-2.8599,-2.8617,-2.8607,-2.8608,-2.8893,-2.9531,-3.0136,-3.0558,-3.076,-3.1317,-3.2004,-3.2808,-3.2863,-3.314,-3.3715,-3.3807,-3.4137,-3.5018,-3.6515,-3.7368,-3.7124,-3.8165,-3.8953,-3.8783,-3.9698,-4.0257,-4.0157,-4.0281,-4.0415,-4.0403,-4.0457,-4.0489,-4.0489,-4.0489,-4.0489,-4.0489,-4.0489,-4.0489,-4.0489,-4.0489,-4.0489,-4.0489,-4.0489,-4.0489,-4.0489,-4.0489,-4.0489,-4.0489,-4.0489,-4.0489,-4.0489,-4.0489,-4.0489,-4.0489,-4.0489,-4.0489,-4.0489,-4.0489,-4.0489,-4.0489,-4.0489,-4.0489,-4.0489,-4.0489,-4.0489,-4.3479,-4.3479,-4.3479,-4.3479,-4.3479,-4.3479,-4.3479,-4.3479,-4.3479,-4.3479,-4.3479,-4.3479,-4.3442,-4.3387,-4.3351,-4.3259,-4.3149,-4.2525,-4.2176,-4.2084,-4.1368,-4.0593,-3.9939,-3.9785,-3.9405,-3.8781,-3.8707,-3.8707,-3.8707,-3.8707,-3.8707,-3.8707,-3.8707,-3.8303,-3.7606,-3.7546,-3.6692,-3.5045,-3.4935,-3.4531,-3.3844,-3.3807,-3.377,-3.3678,-3.2999,-3.2559,-3.2284,-3.1678,-3.1219,-3.1103,-3.0993,-3.1038,-3.1023,-3.1017,-3.1072,-3.1109,-3.1237,-3.1604,-3.2284,-3.2452,-3.2827,-3.3595,-3.3642,-3.3697,-3.3788,-3.3807,-3.4137,-3.5193,-3.7169,-3.8122,-3.7614,-3.8709,-3.9482,-3.9463,-3.9871,-4.0104,-4.0081,-4.0128,-4.014,-4.0139,-4.0336,-4.0489,-4.0473,-4.0473,-4.0473,-4.0457,-4.0438,-4.0473,-4.0508,-4.062,-4.0623,-4.0585,-4.0546,-4.0546,-4.0527,-4.0489,-4.0489,-4.0489,-4.0489,-4.0489,-4.0489,-4.0489,-4.0489,-4.0489,-4.0489,-4.0489,-4.0489,-4.0489,-4.0489,-4.0489,-4.0489,-4.0489,-4.0489,-4.0489,-4.0489,-4.3479,-4.3479,-4.3479,-4.3479,-4.3479,-4.3479,-4.3479,-4.3479,-4.3479,-4.3479,-4.3479,-4.3479,-4.3479,-4.3479,-4.3479,-4.3479,-4.3461,-4.3149,-4.2745,-4.2249,-4.1479,-4.0679,-3.994,-3.9392,-3.9001,-3.8726,-3.8707,-3.8707,-3.8707,-3.8707,-3.8707,-3.8707,-3.8707,-3.8524,-3.823,-3.8218,-3.7429,-3.5826,-3.5745,-3.5145,-3.3981,-3.3807,-3.3807,-3.3788,-3.3476,-3.3054,-3.2651,-3.2284,-3.1868,-3.1446,-3.1403,-3.1421,-3.1415,-3.1393,-3.1414,-3.1421,-3.1861,-3.2467,-3.3275,-3.3301,-3.3456,-3.377,-3.3807,-3.3807,-3.3807,-3.3807,-3.4321,-3.5752,-3.7569,-3.8685,-3.876,-3.9433,-3.9901,-3.9924,-4.0152,-4.0204,-3.9842,-3.9976,-4.0037,-3.987,-4.0079,-4.0252,-4.0266,-4.0269,-4.0269,-4.0269,-4.0286,-4.036,-4.0495,-4.0908,-4.1235,-4.1335,-4.1681,-4.1508,-4.0835,-4.0489,-4.0508,-4.0508,-4.0489,-4.0489,-4.0489,-4.0489,-4.0489,-4.0489,-4.0489,-4.0489,-4.0489,-4.0489,-4.0489,-4.0489,-4.0489,-4.0489,-4.0489,-4.0489,-4.0489,-4.3286,-4.3304,-4.3304,-4.3375,-4.3479,-4.3479,-4.3479,-4.3479,-4.3479,-4.3479,-4.3479,-4.3479,-4.3479,-4.3479,-4.3479,-4.3479,-4.3479,-4.3479,-4.3185,-4.2598,-4.2011,-4.1232,-4.0261,-3.9676,-3.9111,-3.8762,-3.8707,-3.8707,-3.8707,-3.8707,-3.8707,-3.8707,-3.8707,-3.8707,-3.8707,-3.8707,-3.8028,-3.6754,-3.6427,-3.5578,-3.433,-3.3917,-3.3807,-3.3807,-3.3807,-3.3513,-3.2981,-3.2944,-3.2669,-3.2082,-3.2074,-3.207,-3.2064,-3.207,-3.2049,-3.21,-3.2614,-3.3183,-3.377,-3.3807,-3.3807,-3.3807,-3.3807,-3.3899,-3.4037,-3.3927,-3.4688,-3.6468,-3.7881,-3.8913,-3.9383,-3.9775,-3.9963,-4.0081,-4.0211,-4.0043,-3.9705,-3.9751,-3.9721,-3.9545,-3.9846,-4.0133,-4.0194,-4.0158,-4.0196,-4.0425,-4.0482,-4.0635,-4.101,-4.1687,-4.2171,-4.2162,-4.2684,-4.253,-4.145,-4.1027,-4.0893,-4.0758,-4.0777,-4.0489,-4.0489,-4.0489,-4.0489,-4.0489,-4.0489,-4.0489,-4.0489,-4.0489,-4.0489,-4.0489,-4.0489,-4.0489,-4.0489,-4.0489,-4.0489,-4.2732,-4.275,-4.2732,-4.3069,-4.3479,-4.3479,-4.3479,-4.3479,-4.3479,-4.3479,-4.3479,-4.3479,-4.3479,-4.3479,-4.3479,-4.3479,-4.3479,-4.3479,-4.3406,-4.3296,-4.3259,-4.2506,-4.1097,-4.1001,-4.0175,-3.8872,-3.8726,-3.8707,-3.8707,-3.8707,-3.8707,-3.8707,-3.8707,-3.8707,-3.8707,-3.8707,-3.8267,-3.7397,-3.6712,-3.5873,-3.4945,-3.4192,-3.3862,-3.3807,-3.3807,-3.3752,-3.3715,-3.3733,-3.3678,-3.366,-3.3587,-3.3642,-3.3633,-3.3642,-3.3587,-3.3623,-3.3697,-3.3733,-3.3788,-3.3807,-3.3807,-3.3807,-3.3899,-3.4147,-3.4723,-3.4358,-3.5037,-3.7232,-3.8157,-3.8815,-3.9125,-3.9505,-3.9775,-4.0003,-3.9831,-3.9688,-3.9603,-3.937,-3.9161,-3.9229,-3.9674,-4.0093,-4.0356,-4.025,-4.052,-4.0958,-4.1226,-4.1493,-4.2144,-4.2713,-4.3006,-4.3047,-4.3148,-4.3092,-4.2915,-4.2239,-4.1797,-4.1681,-4.1316,-4.0642,-4.0527,-4.0489,-4.0527,-4.0489,-4.0489,-4.0489,-4.0489,-4.0489,-4.0489,-4.0489,-4.0489,-4.0489,-4.0489,-4.0489,-4.0489,-4.2121,-4.2162,-4.2519,-4.2826,-4.3014,-4.3321,-4.3479,-4.3479,-4.3479,-4.3479,-4.3479,-4.3479,-4.3479,-4.3479,-4.3479,-4.3479,-4.3479,-4.3479,-4.3222,-4.2782,-4.2727,-4.2158,-4.1167,-4.0584,-4.0084,-3.9485,-3.8958,-3.8707,-3.8707,-3.8707,-3.8707,-3.8707,-3.8707,-3.8707,-3.8707,-3.8707,-3.8303,-3.7581,-3.7195,-3.6395,-3.5155,-3.4697,-3.4339,-3.3844,-3.3807,-3.3807,-3.3807,-3.3807,-3.3807,-3.3807,-3.3807,-3.3807,-3.3807,-3.3807,-3.3807,-3.3807,-3.3807,-3.3807,-3.3807,-3.3807,-3.3807,-3.3862,-3.4303,-3.4668,-3.5015,-3.5255,-3.6009,-3.7276,-3.823,-3.8796,-3.909,-3.9408,-3.9645,-3.9754,-3.9859,-3.9712,-3.9371,-3.9155,-3.9038,-3.8987,-3.9388,-3.9807,-4.0057,-4.0461,-4.0959,-4.1283,-4.178,-4.2335,-4.2832,-4.3434,-4.3869,-4.3968,-4.4335,-4.4703,-4.472,-4.347,-4.2643,-4.2604,-4.2316,-4.1835,-4.1585,-4.1296,-4.1277,-4.0585,-4.0489,-4.0489,-4.0489,-4.0489,-4.0489,-4.0508,-4.0508,-4.0681,-4.0489,-4.0796,-4.0719,-4.1621,-4.1853,-4.2262,-4.2655,-4.2976,-4.3339,-4.3479,-4.3479,-4.3479,-4.3479,-4.3479,-4.3479,-4.3479,-4.3479,-4.3479,-4.3479,-4.3479,-4.3479,-4.3185,-4.2727,-4.269,-4.2268,-4.1519,-4.0932,-4.0556,-4.0184,-3.9473,-3.8964,-3.8726,-3.8707,-3.8707,-3.8707,-3.8707,-3.8707,-3.8707,-3.8707,-3.8395,-3.7936,-3.7644,-3.6911,-3.5889,-3.5522,-3.5055,-3.4339,-3.4192,-3.4045,-3.3844,-3.3807,-3.3807,-3.3807,-3.3807,-3.3807,-3.3807,-3.3807,-3.3807,-3.3807,-3.3807,-3.3807,-3.3807,-3.3807,-3.3944,-3.4164,-3.4678,-3.517,-3.5718,-3.6263,-3.6945,-3.7753,-3.8322,-3.8803,-3.898,-3.9275,-3.9462,-3.9576,-3.9721,-3.9623,-3.9171,-3.9013,-3.8951,-3.8942,-3.9308,-3.9599,-3.9851,-4.0686,-4.1301,-4.1607,-4.2466,-4.3158,-4.3714,-4.4263,-4.4718,-4.4757,-4.5141,-4.5393,-4.5355,-4.4489,-4.3701,-4.3566,-4.3104,-4.2739,-4.2335,-4.2066,-4.1604,-4.0854,-4.0489,-4.0489,-4.0508,-4.0508,-4.0546,-4.0585,-4.0893,-4.1181,-4.1181,-4.1296,-4.1296,-4.1268,-4.1707,-4.181,-4.2483,-4.3286,-4.3444,-4.3479,-4.3479,-4.3479,-4.3479,-4.3479,-4.3479,-4.3479,-4.3479,-4.3479,-4.3479,-4.3479,-4.3479,-4.3442,-4.3369,-4.3387,-4.3023,-4.2313,-4.2139,-4.1552,-4.0855,-4.0175,-3.9423,-3.8726,-3.8707,-3.8707,-3.8707,-3.8707,-3.8707,-3.8707,-3.8707,-3.8689,-3.8456,-3.7937,-3.7497,-3.7404,-3.6652,-3.5899,-3.5128,-3.4935,-3.4596,-3.3899,-3.3844,-3.3807,-3.3807,-3.3807,-3.3807,-3.3807,-3.3807,-3.3807,-3.3807,-3.3807,-3.3807,-3.3807,-3.3862,-3.4265,-3.477,-3.5064,-3.5846,-3.6888,-3.7216,-3.7569,-3.8358,-3.8676,-3.8732,-3.8792,-3.899,-3.9257,-3.9505,-3.9352,-3.9178,-3.9054,-3.8873,-3.8796,-3.8997,-3.9327,-3.969,-4.0134,-4.092,-4.1684,-4.241,-4.3329,-4.4169,-4.4743,-4.517,-4.5491,-4.5509,-4.5509,-4.5566,-4.5586,-4.549,-4.497,-4.447,-4.3855,-4.3335,-4.2835,-4.2489,-4.1989,-4.1296,-4.0585,-4.0566,-4.0912,-4.0931,-4.1008,-4.1104,-4.1431,-4.1816,-4.1912,-4.2047,-4.2143,-4.0995,-4.1268,-4.208,-4.2598,-4.2976,-4.3321,-4.3479,-4.3479,-4.3479,-4.3479,-4.3479,-4.3479,-4.3479,-4.3479,-4.3479,-4.3479,-4.3479,-4.3479,-4.3479,-4.3479,-4.3479,-4.3369,-4.3059,-4.2548,-4.1562,-4.0335,-3.9465,-3.8964,-3.8762,-3.8707,-3.8707,-3.8707,-3.8707,-3.8707,-3.8707,-3.8707,-3.8707,-3.867,-3.8456,-3.809,-3.7551,-3.7257,-3.6725,-3.5954,-3.5349,-3.4844,-3.4605,-3.4119,-3.3825,-3.3807,-3.3807,-3.3807,-3.3807,-3.3807,-3.3807,-3.3807,-3.3807,-3.3807,-3.388,-3.4301,-3.4668,-3.5165,-3.6017,-3.6863,-3.7454,-3.7931,-3.8285,-3.8701,-3.8931,-3.9027,-3.8822,-3.8952,-3.9082,-3.8998,-3.9073,-3.9027,-3.8884,-3.8762,-3.8743,-3.8836,-3.909,-3.9389,-3.9977,-4.1005,-4.2297,-4.2928,-4.4096,-4.5151,-4.5362,-4.5495,-4.5586,-4.5586,-4.5586,-4.5586,-4.5586,-4.5586,-4.5336,-4.5047,-4.4624,-4.3989,-4.3451,-4.3066,-4.2508,-4.1835,-4.1139,-4.0931,-4.1258,-4.145,-4.1585,-4.197,-4.247,-4.2662,-4.2701,-4.2854,-4.3085,-4.1041,-4.1358,-4.2302,-4.2826,-4.3014,-4.3375,-4.3479,-4.3479,-4.3479,-4.3479,-4.3479,-4.3479,-4.3479,-4.3479,-4.3479,-4.3479,-4.3479,-4.3479,-4.3479,-4.3479,-4.3479,-4.3479,-4.3369,-4.269,-4.1662,-4.0432,-3.9533,-3.8982,-3.8707,-3.8707,-3.8707,-3.8707,-3.8707,-3.8707,-3.8707,-3.8707,-3.8707,-3.8707,-3.8689,-3.8432,-3.8046,-3.7936,-3.7551,-3.6762,-3.5917,-3.5367,-3.5018,-3.4229,-3.3807,-3.3807,-3.3807,-3.3807,-3.3807,-3.3807,-3.3807,-3.3807,-3.3807,-3.3807,-3.3862,-3.4209,-3.488,-3.5515,-3.6454,-3.7345,-3.7814,-3.8493,-3.8689,-3.875,-3.8921,-3.8989,-3.8792,-3.8844,-3.8855,-3.8719,-3.8844,-3.8855,-3.8719,-3.8707,-3.8707,-3.8762,-3.8933,-3.9328,-4.009,-4.138,-4.2755,-4.3407,-4.4629,-4.5586,-4.5586,-4.5586,-4.5586,-4.5586,-4.5586,-4.5586,-4.5586,-4.5586,-4.5586,-4.5509,-4.5393,-4.4739,-4.4143,-4.3932,-4.3528,-4.2736,-4.2002,-4.2024,-4.2258,-4.2277,-4.2412,-4.2951,-4.3412,-4.3508,-4.3605,-4.4047,-4.4201,-4.1313,-4.1853,-4.2462,-4.305,-4.341,-4.3479,-4.3479,-4.3479,-4.3479,-4.3479,-4.3479,-4.3479,-4.3479,-4.3479,-4.3479,-4.3479,-4.3479,-4.3479,-4.3479,-4.3479,-4.3479,-4.3479,-4.3369,-4.2555,-4.1682,-4.0972,-4.0105,-3.935,-3.8726,-3.8707,-3.8707,-3.8707,-3.8707,-3.8707,-3.8707,-3.8707,-3.8707,-3.8707,-3.8707,-3.8652,-3.8615,-3.8634,-3.8248,-3.7452,-3.6615,-3.5826,-3.499,-3.4247,-3.3825,-3.3825,-3.3862,-3.3844,-3.3807,-3.3807,-3.3807,-3.3807,-3.3807,-3.3807,-3.3807,-3.4054,-3.4605,-3.5817,-3.638,-3.6955,-3.8187,-3.853,-3.8707,-3.8689,-3.878,-3.8762,-3.8719,-3.8743,-3.8762,-3.8689,-3.875,-3.8719,-3.8689,-3.8707,-3.8707,-3.8768,-3.8979,-3.9425,-4.0207,-4.1642,-4.2791,-4.3647,-4.469,-4.5266,-4.5494,-4.5475,-4.5547,-4.5566,-4.5586,-4.5586,-4.5586,-4.5586,-4.5586,-4.5586,-4.5586,-4.524,-4.4701,-4.4509,-4.4259,-4.3487,-4.2983,-4.3044,-4.3143,-4.3162,-4.3335,-4.3758,-4.4085,-4.4278,-4.4547,-4.4874,-4.4932,-4.208,-4.1919,-4.2865,-4.3375,-4.3479,-4.3479,-4.3479,-4.3479,-4.3479,-4.3479,-4.3479,-4.3479,-4.3479,-4.3479,-4.3479,-4.3479,-4.3479,-4.3479,-4.3479,-4.3479,-4.3479,-4.3479,-4.3167,-4.2099,-4.13,-4.0911,-3.9737,-3.8909,-3.8707,-3.8707,-3.8707,-3.8707,-3.8707,-3.8707,-3.8707,-3.8707,-3.8707,-3.8707,-3.8707,-3.8707,-3.8707,-3.8707,-3.8303,-3.7514,-3.6725,-3.5881,-3.5009,-3.4229,-3.3925,-3.4072,-3.4091,-3.3999,-3.3807,-3.3807,-3.3807,-3.3807,-3.3807,-3.3807,-3.3925,-3.4301,-3.4907,-3.5367,-3.6452,-3.7367,-3.7723,-3.8383,-3.8652,-3.875,-3.8873,-3.8894,-3.8792,-3.8884,-3.8894,-3.875,-3.8707,-3.8726,-3.8707,-3.8707,-3.8707,-3.8744,-3.9271,-3.9755,-4.0503,-4.1605,-4.2855,-4.3485,-4.426,-4.4988,-4.5163,-4.5283,-4.5336,-4.5528,-4.5586,-4.5586,-4.5586,-4.5586,-4.5586,-4.5586,-4.5586,-4.5547,-4.5105,-4.4797,-4.4489,-4.3989,-4.364,-4.3585,-4.3835,-4.3972,-4.4297,-4.4547,-4.4816,-4.5047,-4.5163,-4.5413,-4.5374,-4.2262,-4.2262,-4.2884,-4.3286,-4.3479,-4.3479,-4.3479,-4.3479,-4.3479,-4.3479,-4.3479,-4.3479,-4.3479,-4.3479,-4.3479,-4.3479,-4.3479,-4.3479,-4.3479,-4.3424,-4.3146,-4.2983,-4.2656,-4.1647,-4.0919,-4.0474,-3.9301,-3.8781,-3.8707,-3.8707,-3.8707,-3.8707,-3.8707,-3.8707,-3.8707,-3.8707,-3.8707,-3.8707,-3.8707,-3.8707,-3.8707,-3.8707,-3.8505,-3.7826,-3.6927,-3.5789,-3.4651,-3.4119,-3.4013,-3.4037,-3.4009,-3.3962,-3.3825,-3.3807,-3.3807,-3.3807,-3.3807,-3.3807,-3.388,-3.4283,-3.4815,-3.5504,-3.6574,-3.7282,-3.7906,-3.8475,-3.8707,-3.8719,-3.8961,-3.8999,-3.8961,-3.9144,-3.9152,-3.8943,-3.8877,-3.883,-3.8707,-3.8707,-3.8707,-3.8817,-3.9111,-3.979,-4.0469,-4.1656,-4.2603,-4.3446,-4.4207,-4.4651,-4.4877,-4.4995,-4.5111,-4.5304,-4.5514,-4.5532,-4.555,-4.5568,-4.5586,-4.5586,-4.5586,-4.5586,-4.5413,-4.5105,-4.497,-4.4682,-4.4335,-4.4201,-4.4489,-4.4778,-4.497,-4.522,-4.5528,-4.5586,-4.5586,-4.5586,-4.5586,-4.2221,-4.2693,-4.2732,-4.305,-4.3444,-4.3479,-4.3479,-4.3479,-4.3479,-4.3479,-4.3463,-4.3429,-4.3323,-4.3391,-4.3321,-4.3375,-4.3356,-4.3261,-4.3167,-4.2944,-4.2503,-4.2103,-4.1818,-4.1222,-4.0551,-3.997,-3.9087,-3.8762,-3.8707,-3.8707,-3.8707,-3.8707,-3.8707,-3.8707,-3.8707,-3.8707,-3.8707,-3.8707,-3.8707,-3.8707,-3.8707,-3.8689,-3.856,-3.8102,-3.6743,-3.5367,-3.4339,-3.397,-3.4042,-3.3829,-3.3815,-3.3897,-3.388,-3.388,-3.3807,-3.3807,-3.3807,-3.3807,-3.3807,-3.3925,-3.4475,-3.5697,-3.6112,-3.6925,-3.8058,-3.853,-3.8713,-3.8781,-3.8934,-3.9072,-3.9099,-3.9333,-3.9238,-3.9017,-3.8992,-3.8915,-3.8762,-3.8707,-3.8707,-3.8726,-3.8762,-3.9606,-4.0675,-4.1576,-4.2207,-4.3441,-4.4042,-4.4252,-4.4465,-4.4607,-4.4791,-4.4998,-4.522,-4.5438,-4.5495,-4.5513,-4.555,-4.5568,-4.5586,-4.5586,-4.5586,-4.5432,-4.5509,-4.5336,-4.4951,-4.4932,-4.5201,-4.5451,-4.5528,-4.5528,-4.5586,-4.5586,-4.5586,-4.5586,-4.5586,-4.2559,-4.2732,-4.3178,-4.341,-4.3479,-4.3479,-4.3479,-4.3479,-4.3479,-4.3479,-4.3394,-4.3054,-4.2865,-4.2864,-4.2884,-4.2864,-4.2886,-4.2701,-4.2249,-4.1589,-4.1507,-4.0965,-4.0537,-4.0194,-4.0068,-3.9663,-3.9068,-3.8726,-3.8707,-3.8707,-3.8707,-3.8707,-3.8707,-3.8707,-3.8707,-3.8707,-3.8707,-3.8707,-3.8707,-3.8707,-3.8707,-3.867,-3.8395,-3.7716,-3.6229,-3.4926,-3.4064,-3.3862,-3.3868,-3.3847,-3.3987,-3.4127,-3.4246,-3.4017,-3.3825,-3.3807,-3.3807,-3.3807,-3.3825,-3.388,-3.4228,-3.5293,-3.6103,-3.6694,-3.7607,-3.8401,-3.8736,-3.8965,-3.9063,-3.9107,-3.9152,-3.898,-3.898,-3.8913,-3.884,-3.8793,-3.8726,-3.8707,-3.8707,-3.8817,-3.9239,-4.0139,-4.1442,-4.1783,-4.2484,-4.3373,-4.3726,-4.3868,-4.4016,-4.4146,-4.4438,-4.4682,-4.4862,-4.5109,-4.5341,-4.54,-4.5513,-4.5568,-4.5586,-4.5586,-4.5586,-4.5586,-4.5586,-4.5586,-4.5528,-4.5586,-4.5586,-4.5586,-4.5547,-4.5586,-4.5586,-4.5586,-4.5586,-4.5586,-4.5586,-4.2693,-4.2732,-4.3032,-4.325,-4.3479,-4.3479,-4.3479,-4.3479,-4.3479,-4.3358,-4.3121,-4.2798,-4.2567,-4.2338,-4.2559,-4.2693,-4.2627,-4.2375,-4.1662,-4.0799,-4.0501,-4.0102,-3.947,-3.9331,-3.9338,-3.9283,-3.894,-3.8707,-3.8707,-3.8707,-3.8707,-3.8707,-3.8707,-3.8707,-3.8707,-3.8707,-3.8707,-3.8707,-3.8707,-3.8707,-3.8707,-3.8689,-3.8046,-3.711,-3.6009,-3.5092,-3.3954,-3.3807,-3.3807,-3.3825,-3.3944,-3.4072,-3.4228,-3.3999,-3.3825,-3.3807,-3.3807,-3.3807,-3.3825,-3.4192,-3.4743,-3.5541,-3.6371,-3.7177,-3.7857,-3.8493,-3.8711,-3.8906,-3.9024,-3.9152,-3.9308,-3.9249,-3.9082,-3.8915,-3.8894,-3.8844,-3.875,-3.8707,-3.8707,-3.8762,-3.9019,-3.9753,-4.0616,-4.1405,-4.1791,-4.2276,-4.3379,-4.3564,-4.3296,-4.3522,-4.4039,-4.4318,-4.4513,-4.4796,-4.509,-4.5302,-4.5475,-4.5549,-4.5586,-4.5586,-4.5586,-4.5586,-4.5586,-4.5586,-4.5586,-4.5586,-4.5586,-4.5586,-4.5586,-4.5586,-4.5586,-4.5586,-4.5586,-4.5586,-4.5586,-4.275,-4.2826,-4.2826,-4.3105,-4.3444,-4.3479,-4.3479,-4.3479,-4.3406,-4.3087,-4.2673,-4.2565,-4.2036,-4.1881,-4.2262,-4.2505,-4.2322,-4.19,-4.0946,-3.9845,-3.9698,-3.9386,-3.8927,-3.8817,-3.8817,-3.8707,-3.8707,-3.8707,-3.8707,-3.8707,-3.8707,-3.8707,-3.8707,-3.8707,-3.8707,-3.8707,-3.8707,-3.8707,-3.8707,-3.8707,-3.8707,-3.867,-3.7955,-3.6945,-3.656,-3.5807,-3.4743,-3.4376,-3.4211,-3.3999,-3.3972,-3.3899,-3.3807,-3.3807,-3.3807,-3.3807,-3.3807,-3.3807,-3.3899,-3.4394,-3.5073,-3.6177,-3.6835,-3.7699,-3.8383,-3.8652,-3.8738,-3.887,-3.9007,-3.9205,-3.9462,-3.9327,-3.9212,-3.9069,-3.9044,-3.8933,-3.8773,-3.8707,-3.8707,-3.8707,-3.8854,-3.9368,-3.9974,-4.0634,-4.0873,-4.1277,-4.2396,-4.3073,-4.2802,-4.2881,-4.3398,-4.3897,-4.4111,-4.4617,-4.4985,-4.5322,-4.5513,-4.5549,-4.5586,-4.5586,-4.5586,-4.5586,-4.5586,-4.5586,-4.5586,-4.5586,-4.5586,-4.5586,-4.5586,-4.5586,-4.5586,-4.5586,-4.5586,-4.5586,-4.5528,-4.2976,-4.3375,-4.3375,-4.3444,-4.3479,-4.3479,-4.3424,-4.3406,-4.2933,-4.2777,-4.2498,-4.1649,-4.119,-4.115,-4.1664,-4.1722,-4.1283,-4.0822,-3.9974,-3.9111,-3.9001,-3.8817,-3.8762,-3.8707,-3.8707,-3.8707,-3.8707,-3.8707,-3.8707,-3.8707,-3.8707,-3.8707,-3.8707,-3.8707,-3.8707,-3.8707,-3.8707,-3.8707,-3.8707,-3.8707,-3.8707,-3.8634,-3.8248,-3.7276,-3.7147,-3.6633,-3.6028,-3.5771,-3.556,-3.4898,-3.4807,-3.4431,-3.3972,-3.3807,-3.3807,-3.3807,-3.3807,-3.3807,-3.388,-3.4064,-3.4871,-3.5862,-3.6625,-3.7363,-3.8279,-3.8707,-3.8781,-3.8939,-3.9016,-3.9125,-3.916,-3.9073,-3.8873,-3.8785,-3.8785,-3.8792,-3.8719,-3.8707,-3.8707,-3.8707,-3.8781,-3.8909,-3.9496,-3.9992,-4.0286,-4.0671,-4.1442,-4.1875,-4.1709,-4.2055,-4.2667,-4.3169,-4.3618,-4.432,-4.4966,-4.5322,-4.5586,-4.5586,-4.5586,-4.5586,-4.5586,-4.5586,-4.5586,-4.5586,-4.5586,-4.5586,-4.5586,-4.5547,-4.5413,-4.5297,-4.5413,-4.5509,-4.5201,-4.4913,-4.5163,-4.3087,-4.3124,-4.3375,-4.324,-4.291,-4.2873,-4.2635,-4.2252,-4.1986,-4.1542,-4.1007,-4.0418,-3.9839,-3.9704,-4.027,-4.0502,-4.0382,-4.0139,-3.9441,-3.8854,-3.8707,-3.8707,-3.8707,-3.8707,-3.8707,-3.8707,-3.8707,-3.8707,-3.8707,-3.8707,-3.8707,-3.8707,-3.8707,-3.8707,-3.8707,-3.8707,-3.8707,-3.8707,-3.8707,-3.8707,-3.8707,-3.8707,-3.8267,-3.7734,-3.7459,-3.7055,-3.6468,-3.6285,-3.5862,-3.5183,-3.5,-3.4532,-3.4082,-3.3807,-3.3807,-3.3807,-3.3807,-3.3807,-3.4045,-3.4449,-3.557,-3.6196,-3.6953,-3.7809,-3.8456,-3.8707,-3.8762,-3.886,-3.8902,-3.8894,-3.8865,-3.8743,-3.8719,-3.8707,-3.8707,-3.8707,-3.8707,-3.8707,-3.8707,-3.8707,-3.8744,-3.8854,-3.9074,-3.9496,-3.9772,-4.0175,-4.0634,-4.0693,-4.0683,-4.1348,-4.2087,-4.3164,-4.382,-4.4499,-4.5096,-4.5362,-4.5586,-4.5586,-4.5586,-4.5586,-4.5586,-4.5586,-4.5586,-4.5586,-4.5586,-4.5432,-4.5393,-4.5278,-4.5143,-4.4893,-4.4566,-4.4335,-4.4278,-4.4297,-4.4489,-4.2796,-4.243,-4.2864,-4.2635,-4.2121,-4.2066,-4.1735,-4.117,-4.1001,-4.0528,-3.9718,-3.9495,-3.9055,-3.8646,-3.903,-3.9589,-3.9832,-3.9772,-3.9221,-3.8836,-3.8707,-3.8707,-3.8707,-3.8707,-3.8707,-3.8707,-3.8707,-3.8707,-3.8707,-3.8707,-3.8707,-3.8707,-3.8707,-3.8707,-3.8707,-3.8707,-3.8707,-3.8707,-3.8707,-3.8707,-3.8707,-3.867,-3.8432,-3.7826,-3.7734,-3.7459,-3.7055,-3.7,-3.6384,-3.5695,-3.5255,-3.4853,-3.4027,-3.3807,-3.3807,-3.3807,-3.3807,-3.3807,-3.4164,-3.51,-3.5928,-3.6417,-3.7695,-3.8389,-3.8744,-3.8762,-3.8707,-3.8707,-3.8707,-3.8719,-3.8732,-3.8707,-3.8707,-3.8707,-3.8707,-3.8707,-3.8707,-3.8707,-3.8707,-3.8707,-3.8707,-3.8781,-3.8964,-3.9019,-3.9313,-3.9406,-3.986,-4.0041,-4.0131,-4.0896,-4.1827,-4.3239,-4.4189,-4.4859,-4.5282,-4.5419,-4.5568,-4.5586,-4.5586,-4.5586,-4.5586,-4.5586,-4.549,-4.5297,-4.5163,-4.5028,-4.5028,-4.497,-4.4759,-4.4355,-4.3605,-4.3355,-4.3585,-4.3605,-4.3662,-4.1505,-4.1306,-4.139,-4.1332,-4.1258,-4.1207,-4.117,-4.095,-4.0394,-4.0268,-3.9689,-3.9519,-3.9164,-3.903,-3.8892,-3.9333,-3.9534,-3.9221,-3.8891,-3.8707,-3.8707,-3.8707,-3.8707,-3.8707,-3.8707,-3.8707,-3.8707,-3.8707,-3.8707,-3.8707,-3.8707,-3.8707,-3.8707,-3.8707,-3.8707,-3.8707,-3.8707,-3.8707,-3.8707,-3.8707,-3.8707,-3.8707,-3.8615,-3.8542,-3.8469,-3.8377,-3.8138,-3.8046,-3.7503,-3.6252,-3.6098,-3.5367,-3.4156,-3.3807,-3.3807,-3.3807,-3.3807,-3.3825,-3.4062,-3.5069,-3.6114,-3.6675,-3.7608,-3.8295,-3.8713,-3.8781,-3.8707,-3.8707,-3.8707,-3.8707,-3.8707,-3.8707,-3.8707,-3.8707,-3.8707,-3.8707,-3.8707,-3.8707,-3.8707,-3.8707,-3.8707,-3.8707,-3.8781,-3.8781,-3.8799,-3.8884,-3.9032,-3.9287,-3.9773,-4.0685,-4.1415,-4.2788,-4.3814,-4.4498,-4.4672,-4.4898,-4.5184,-4.5316,-4.5374,-4.5374,-4.5316,-4.5182,-4.4934,-4.4761,-4.4624,-4.4622,-4.466,-4.4564,-4.4355,-4.3739,-4.2912,-4.2893,-4.3143,-4.3047,-4.2739,-3.9777,-4.065,-4.065,-4.055,-4.04,-4.013,-3.9704,-3.9301,-3.9013,-3.856,-3.8117,-3.7833,-3.7848,-3.817,-3.8021,-3.8435,-3.8985,-3.8854,-3.8707,-3.8707,-3.8707,-3.8707,-3.8707,-3.8707,-3.8707,-3.8707,-3.8707,-3.8707,-3.8707,-3.8707,-3.8707,-3.8707,-3.8707,-3.8707,-3.8707,-3.8707,-3.8707,-3.8707,-3.8707,-3.8707,-3.8707,-3.8707,-3.8707,-3.8707,-3.8707,-3.8707,-3.8707,-3.867,-3.7882,-3.6705,-3.6527,-3.5789,-3.4357,-3.3807,-3.3807,-3.3807,-3.3807,-3.4018,-3.4532,-3.5403,-3.6255,-3.7088,-3.7846,-3.8524,-3.8796,-3.8781,-3.8707,-3.8707,-3.8707,-3.8707,-3.8707,-3.8707,-3.8707,-3.8707,-3.8707,-3.8707,-3.8707,-3.8707,-3.8707,-3.8707,-3.8689,-3.8732,-3.8762,-3.8822,-3.8881,-3.8989,-3.9165,-3.9464,-4.0065,-4.0939,-4.159,-4.224,-4.3137,-4.388,-4.3841,-4.3895,-4.4299,-4.4489,-4.4701,-4.472,-4.4778,-4.4662,-4.4357,-4.4011,-4.3722,-4.3835,-4.4138,-4.3698,-4.3085,-4.2624,-4.2181,-4.2104,-4.2027,-4.172,-4.1546,-3.8058,-3.9332,-3.948,-3.9426,-3.9228,-3.8882,-3.8524,-3.7964,-3.7972,-3.7523,-3.6938,-3.6907,-3.7092,-3.738,-3.765,-3.8174,-3.8695,-3.8707,-3.8707,-3.8707,-3.8707,-3.8707,-3.8707,-3.8707,-3.8707,-3.8707,-3.8707,-3.8707,-3.8707,-3.8707,-3.8707,-3.8707,-3.8707,-3.8707,-3.8707,-3.8707,-3.8707,-3.8707,-3.8707,-3.8707,-3.8707,-3.8707,-3.8707,-3.8707,-3.8707,-3.8707,-3.8707,-3.8707,-3.7918,-3.6723,-3.6582,-3.5807,-3.4174,-3.3807,-3.3807,-3.3807,-3.3807,-3.4348,-3.5128,-3.6021,-3.6779,-3.7555,-3.8252,-3.8739,-3.8681,-3.8707,-3.8707,-3.8707,-3.8707,-3.8707,-3.8707,-3.8707,-3.8707,-3.8707,-3.8707,-3.8707,-3.8707,-3.8719,-3.875,-3.8719,-3.8762,-3.8855,-3.8884,-3.8942,-3.899,-3.9099,-3.9314,-3.9622,-4.0269,-4.1082,-4.1539,-4.2036,-4.2703,-4.3352,-4.3335,-4.3316,-4.3585,-4.3701,-4.3893,-4.3989,-4.4008,-4.3893,-4.3607,-4.3261,-4.2838,-4.2566,-4.2544,-4.2159,-4.1816,-4.1835,-4.17,-4.1027,-4.07,-4.0489,-4.0585,-3.6561,-3.6678,-3.7214,-3.7498,-3.7521,-3.7845,-3.7931,-3.7843,-3.7846,-3.7739,-3.747,-3.7701,-3.756,-3.7859,-3.8117,-3.8433,-3.8707,-3.8707,-3.8707,-3.8707,-3.8707,-3.8707,-3.8707,-3.8707,-3.8707,-3.8707,-3.8707,-3.8707,-3.8707,-3.8707,-3.8707,-3.8707,-3.8707,-3.8707,-3.8707,-3.8707,-3.8707,-3.8707,-3.8707,-3.8707,-3.8707,-3.8707,-3.8707,-3.8707,-3.8707,-3.8707,-3.8707,-3.8707,-3.7967,-3.6431,-3.6318,-3.5642,-3.4156,-3.3844,-3.3807,-3.3807,-3.3807,-3.4532,-3.5679,-3.6344,-3.7034,-3.7813,-3.8485,-3.8881,-3.8719,-3.8707,-3.8707,-3.8707,-3.8707,-3.8707,-3.8707,-3.8707,-3.8707,-3.8707,-3.8719,-3.8762,-3.8792,-3.8822,-3.8822,-3.8792,-3.8855,-3.9027,-3.9197,-3.9294,-3.9327,-3.9438,-3.9697,-4.0004,-4.0329,-4.1011,-4.1357,-4.1835,-4.2425,-4.2848,-4.2951,-4.2951,-4.2739,-4.2854,-4.3104,-4.3162,-4.3181,-4.3008,-4.2857,-4.2299,-4.1838,-4.1393,-4.112,-4.1258,-4.1393,-4.1489,-4.1258,-4.0739,-4.0489,-4.0489,-4.0489,-3.5898,-3.5941,-3.6122,-3.6768,-3.756,-3.7155,-3.7155,-3.7381,-3.7108,-3.6753,-3.6545,-3.6825,-3.7155,-3.7542,-3.7998,-3.8415,-3.8658,-3.8707,-3.8707,-3.8707,-3.8707,-3.8707,-3.8707,-3.8707,-3.8707,-3.8707,-3.8707,-3.8707,-3.8707,-3.8707,-3.8707,-3.8707,-3.8658,-3.8707,-3.8707,-3.8707,-3.8707,-3.8707,-3.8707,-3.8707,-3.8707,-3.8707,-3.8707,-3.8707,-3.8707,-3.8707,-3.8707,-3.8707,-3.7717,-3.6687,-3.6098,-3.5082,-3.4119,-3.3899,-3.3844,-3.388,-3.3899,-3.4752,-3.5999,-3.6546,-3.7026,-3.8147,-3.8664,-3.8799,-3.8707,-3.8707,-3.8707,-3.8707,-3.8707,-3.8707,-3.8707,-3.8707,-3.8707,-3.8707,-3.875,-3.8803,-3.8902,-3.896,-3.9064,-3.91,-3.9223,-3.9408,-3.9552,-3.9709,-3.9731,-3.9819,-4.0101,-4.0392,-4.063,-4.0773,-4.1081,-4.1235,-4.1713,-4.1805,-4.1854,-4.1797,-4.1758,-4.2027,-4.2297,-4.2297,-4.2316,-4.2297,-4.2066,-4.1434,-4.1085,-4.0893,-4.0816,-4.0873,-4.095,-4.1027,-4.0912,-4.0604,-4.0489,-4.0489,-4.0489,-3.5639,-3.5639,-3.5639,-3.619,-3.7061,-3.6643,-3.6603,-3.6861,-3.6611,-3.6107,-3.565,-3.6293,-3.6834,-3.7283,-3.7929,-3.835,-3.8627,-3.8707,-3.8707,-3.8707,-3.8707,-3.8707,-3.8707,-3.8707,-3.8707,-3.8707,-3.8707,-3.8707,-3.8707,-3.8707,-3.8546,-3.8496,-3.8627,-3.8676,-3.8707,-3.8707,-3.8707,-3.8707,-3.8707,-3.8707,-3.8707,-3.8707,-3.8707,-3.8707,-3.8707,-3.8707,-3.8707,-3.8652,-3.8047,-3.7009,-3.6131,-3.5275,-3.4495,-3.3999,-3.3954,-3.4037,-3.4293,-3.4935,-3.6172,-3.7033,-3.7496,-3.8469,-3.8652,-3.8726,-3.8707,-3.8707,-3.8707,-3.8707,-3.8707,-3.8707,-3.8707,-3.8707,-3.8707,-3.8707,-3.8855,-3.8952,-3.9082,-3.9189,-3.9352,-3.9481,-3.9622,-3.9735,-3.9861,-4.0003,-4.0082,-4.012,-4.0248,-4.0422,-4.0511,-4.06,-4.0623,-4.07,-4.0812,-4.0735,-4.0585,-4.0893,-4.1181,-4.12,-4.1412,-4.1412,-4.1412,-4.147,-4.1412,-4.0989,-4.07,-4.0527,-4.0566,-4.0681,-4.0623,-4.0546,-4.0489,-4.0489,-4.0489,-4.0489,-4.0489,-3.5639,-3.5639,-3.5639,-3.5667,-3.5898,-3.6224,-3.6416,-3.647,-3.6352,-3.6052,-3.5739,-3.6617,-3.7132,-3.7413,-3.8135,-3.8596,-3.8658,-3.8707,-3.8707,-3.8707,-3.8707,-3.8707,-3.8707,-3.8707,-3.8707,-3.8707,-3.8707,-3.8707,-3.8707,-3.8707,-3.8465,-3.8143,-3.8255,-3.8517,-3.864,-3.8707,-3.8707,-3.8707,-3.8707,-3.8707,-3.8707,-3.8707,-3.8707,-3.8707,-3.8707,-3.8707,-3.8707,-3.8707,-3.8132,-3.7125,-3.6479,-3.5632,-3.4714,-3.4054,-3.41,-3.4623,-3.4734,-3.5622,-3.7138,-3.8022,-3.8365,-3.8597,-3.8707,-3.8707,-3.8707,-3.8707,-3.8707,-3.8707,-3.8707,-3.8707,-3.8707,-3.8707,-3.8707,-3.8803,-3.8961,-3.9117,-3.9257,-3.9432,-3.9599,-3.9645,-3.988,-4.0101,-4.0177,-4.0286,-4.0389,-4.0438,-4.0473,-4.0489,-4.0489,-4.0489,-4.0489,-4.0489,-4.0489,-4.0489,-4.0489,-4.0489,-4.0604,-4.0585,-4.0662,-4.0816,-4.0835,-4.0854,-4.0719,-4.0489,-4.0489,-4.0489,-4.0489,-4.0508,-4.0489,-4.0489,-4.0489,-4.0489,-4.0489,-4.0489,-4.0489,-3.5639,-3.5639,-3.5639,-3.5639,-3.5622,-3.5783,-3.6054,-3.6274,-3.6027,-3.5761,-3.5844,-3.6752,-3.7185,-3.7522,-3.8135,-3.8627,-3.8658,-3.8707,-3.8707,-3.8676,-3.8658,-3.8707,-3.8689,-3.8689,-3.8707,-3.8707,-3.8707,-3.8603,-3.8707,-3.8413,-3.8277,-3.8077,-3.7537,-3.7877,-3.8431,-3.8707,-3.8707,-3.8707,-3.8707,-3.8707,-3.8689,-3.8707,-3.8707,-3.8707,-3.8707,-3.8707,-3.8689,-3.867,-3.8041,-3.704,-3.6394,-3.565,-3.4614,-3.3862,-3.3972,-3.4238,-3.4284,-3.466,-3.5776,-3.6582,-3.7631,-3.8187,-3.8634,-3.8615,-3.8689,-3.8707,-3.8707,-3.8707,-3.8707,-3.8707,-3.8707,-3.8707,-3.8732,-3.8961,-3.9125,-3.9308,-3.9457,-3.9668,-3.98,-3.9735,-3.9861,-4.0139,-4.0304,-4.0356,-4.0457,-4.0489,-4.0489,-4.0489,-4.0489,-4.0489,-4.0489,-4.0489,-4.0489,-4.0489,-4.0489,-4.0489,-4.0489,-4.0527,-4.0546,-4.0585,-4.0527,-4.0489,-4.0489,-4.0489,-4.0489,-4.0489,-4.0489,-4.0489,-4.0489,-4.0489,-4.0489,-4.0489,-4.0489,-4.0489,-4.0489,-3.4861,-3.4844,-3.4861,-3.4844,-3.4945,-3.5385,-3.5827,-3.6028,-3.5756,-3.5639,-3.5824,-3.6534,-3.6917,-3.7147,-3.7721,-3.8168,-3.8168,-3.8168,-3.8168,-3.8201,-3.835,-3.8355,-3.8413,-3.8548,-3.8689,-3.8603,-3.8204,-3.7995,-3.7854,-3.7521,-3.7192,-3.6844,-3.6612,-3.6939,-3.7491,-3.7729,-3.7931,-3.8004,-3.8163,-3.8401,-3.8548,-3.8707,-3.8707,-3.8707,-3.8707,-3.8707,-3.8615,-3.8291,-3.7821,-3.6845,-3.604,-3.5412,-3.4431,-3.3962,-3.399,-3.41,-3.4614,-3.4963,-3.5659,-3.5996,-3.6966,-3.7558,-3.8071,-3.8261,-3.8383,-3.8493,-3.8652,-3.8707,-3.8689,-3.8707,-3.8707,-3.8707,-3.8815,-3.9036,-3.9186,-3.9339,-3.951,-3.9694,-3.9719,-3.9675,-3.9747,-4.0041,-4.0339,-4.0422,-4.0489,-4.0489,-4.0489,-4.0489,-4.0489,-4.0489,-4.0489,-4.0489,-4.0489,-4.0489,-4.0489,-4.0489,-4.0489,-4.0489,-4.0489,-4.0489,-4.0489,-4.0489,-4.0489,-4.0489,-4.0489,-4.0489,-4.0489,-4.0489,-4.0489,-4.0489,-4.0489,-4.0489,-4.0489,-4.0489,-4.0489,-3.3406,-3.3389,-3.3389,-3.3474,-3.3677,-3.4861,-3.5453,-3.5537,-3.5493,-3.5459,-3.5487,-3.5953,-3.6156,-3.6342,-3.6861,-3.7056,-3.7022,-3.7057,-3.7022,-3.713,-3.7252,-3.75,-3.7776,-3.7966,-3.7872,-3.7854,-3.7471,-3.6736,-3.663,-3.6052,-3.5641,-3.5627,-3.5591,-3.5882,-3.6164,-3.6303,-3.679,-3.7411,-3.7558,-3.7979,-3.8487,-3.856,-3.8469,-3.845,-3.845,-3.8358,-3.8138,-3.7716,-3.7367,-3.6659,-3.5852,-3.5248,-3.4669,-3.4209,-3.4431,-3.4871,-3.555,-3.5661,-3.5734,-3.5797,-3.5889,-3.6285,-3.6905,-3.7229,-3.7699,-3.8145,-3.8524,-3.8579,-3.856,-3.8652,-3.8707,-3.8792,-3.8855,-3.9008,-3.9167,-3.9321,-3.9467,-3.9542,-3.9528,-3.9515,-3.9588,-3.9823,-4.0139,-4.0285,-4.0489,-4.0489,-4.0489,-4.0489,-4.0489,-4.0489,-4.0489,-4.0489,-4.0489,-4.0489,-4.0489,-4.0489,-4.0489,-4.0489,-4.0489,-4.0489,-4.0489,-4.0489,-4.0489,-4.0489,-4.0489,-4.0489,-4.0489,-4.0489,-4.0489,-4.0489,-4.0489,-4.0489,-4.0489,-4.0489,-4.0489,-3.3389,-3.3389,-3.3389,-3.3389,-3.3457,-3.3863,-3.4317,-3.4723,-3.4287,-3.403,-3.4066,-3.4601,-3.4915,-3.4901,-3.5345,-3.5526,-3.5563,-3.5545,-3.5563,-3.5687,-3.5919,-3.6026,-3.614,-3.6287,-3.6314,-3.6247,-3.5912,-3.5435,-3.54,-3.4818,-3.4765,-3.501,-3.4803,-3.4865,-3.4818,-3.4692,-3.5886,-3.6732,-3.6824,-3.7448,-3.8028,-3.8065,-3.7955,-3.7845,-3.7845,-3.7661,-3.7165,-3.6872,-3.6468,-3.5648,-3.531,-3.4835,-3.4091,-3.3925,-3.4027,-3.4082,-3.4376,-3.4486,-3.4523,-3.4541,-3.4633,-3.4881,-3.5395,-3.6074,-3.6743,-3.7558,-3.8193,-3.823,-3.8469,-3.8652,-3.8773,-3.8884,-3.9045,-3.9205,-3.9321,-3.9419,-3.951,-3.9383,-3.9346,-3.9296,-3.9362,-3.9735,-4.0042,-4.0339,-4.0489,-4.0489,-4.0489,-4.0489,-4.0489,-4.0489,-4.0489,-4.0489,-4.0489,-4.0489,-4.0489,-4.0489,-4.0489,-4.0489,-4.0489,-4.0489,-4.0489,-4.0489,-4.0489,-4.0489,-4.0489,-4.0489,-4.0489,-4.0489,-4.0489,-4.0489,-4.0489,-4.0489,-4.0489,-4.0489,-4.0489,-3.2527,-3.2527,-3.2544,-3.2679,-3.2899,-3.2662,-3.2942,-3.3477,-3.345,-3.3397,-3.3444,-3.3748,-3.3887,-3.3951,-3.4198,-3.4318,-3.4335,-3.4384,-3.4366,-3.4405,-3.4442,-3.4833,-3.4889,-3.4942,-3.5226,-3.5048,-3.4623,-3.4199,-3.4164,-3.3969,-3.3845,-3.3825,-3.389,-3.4099,-3.4113,-3.4192,-3.4862,-3.5669,-3.6237,-3.6696,-3.7074,-3.7331,-3.7129,-3.7019,-3.7019,-3.667,-3.6266,-3.6046,-3.5457,-3.4942,-3.4834,-3.4348,-3.3825,-3.3807,-3.3807,-3.388,-3.3917,-3.3972,-3.399,-3.3935,-3.3844,-3.3925,-3.4246,-3.4679,-3.5597,-3.6468,-3.7165,-3.7643,-3.8279,-3.875,-3.8884,-3.9027,-3.9257,-3.9486,-3.9534,-3.9557,-3.9427,-3.9253,-3.9154,-3.9017,-3.9282,-3.9687,-4.0043,-4.0319,-4.0489,-4.0489,-4.0489,-4.0489,-4.0489,-4.0489,-4.0489,-4.0489,-4.0489,-4.0489,-4.0489,-4.0489,-4.0489,-4.0489,-4.0489,-4.0489,-4.0489,-4.0489,-4.0489,-4.0489,-4.0489,-4.0489,-4.0489,-4.0489,-4.0489,-4.0489,-4.0489,-4.0489,-4.0489,-4.0489,-4.0489,-3.1224,-3.1258,-3.119,-3.1647,-3.2093,-3.1562,-3.1685,-3.2244,-3.2866,-3.3182,-3.3117,-3.3196,-3.31,-3.3053,-3.311,-3.3145,-3.3117,-3.3117,-3.3123,-3.3228,-3.3412,-3.3692,-3.3921,-3.4286,-3.4047,-3.4001,-3.3661,-3.2936,-3.2856,-3.2915,-3.2907,-3.255,-3.3422,-3.3863,-3.3872,-3.3826,-3.4339,-3.4807,-3.5164,-3.5494,-3.6174,-3.6321,-3.6193,-3.6193,-3.6174,-3.6083,-3.5844,-3.544,-3.4899,-3.4642,-3.4348,-3.388,-3.3844,-3.3807,-3.3807,-3.3807,-3.3807,-3.3807,-3.3807,-3.3807,-3.3807,-3.3807,-3.3825,-3.4009,-3.4743,-3.533,-3.5973,-3.6982,-3.7606,-3.8354,-3.8646,-3.9077,-3.9408,-3.9607,-3.97,-3.9697,-3.9599,-3.9439,-3.9305,-3.9275,-3.9486,-3.9861,-4.0023,-4.0321,-4.0489,-4.0489,-4.0489,-4.0489,-4.0489,-4.0489,-4.0489,-4.0489,-4.0489,-4.0489,-4.0489,-4.0489,-4.0489,-4.0489,-4.0489,-4.0489,-4.0489,-4.0489,-4.0489,-4.0489,-4.0489,-4.0489,-4.0489,-4.0489,-4.0489,-4.0489,-4.0489,-4.0489,-4.0489,-4.0489,-4.0489,-3.119,-3.119,-3.119,-3.1292,-3.1444,-3.1275,-3.1309,-3.1489,-3.1624,-3.1772,-3.1732,-3.1749,-3.18,-3.1924,-3.1918,-3.1918,-3.1867,-3.2036,-3.1765,-3.185,-3.2105,-3.2491,-3.2349,-3.2539,-3.2526,-3.2325,-3.2025,-3.1824,-3.1984,-3.2214,-3.255,-3.2616,-3.3361,-3.3807,-3.3807,-3.3807,-3.399,-3.4247,-3.4312,-3.4899,-3.5844,-3.5587,-3.533,-3.533,-3.5312,-3.5018,-3.4743,-3.4357,-3.4119,-3.399,-3.3935,-3.3825,-3.3807,-3.3807,-3.3807,-3.3807,-3.3807,-3.3807,-3.3807,-3.3807,-3.3807,-3.3807,-3.3807,-3.3807,-3.399,-3.4247,-3.4926,-3.6028,-3.6875,-3.7674,-3.8532,-3.9027,-3.9534,-3.97,-3.9869,-3.9846,-3.98,-3.966,-3.9508,-3.9614,-3.9797,-3.9944,-4.012,-4.0267,-4.0441,-4.0489,-4.0489,-4.0489,-4.0489,-4.0489,-4.0489,-4.0489,-4.0489,-4.0489,-4.0489,-4.0489,-4.0489,-4.0489,-4.0489,-4.0489,-4.0489,-4.0489,-4.0489,-4.0489,-4.0489,-4.0489,-4.0489,-4.0489,-4.0489,-4.0489,-4.0489,-4.0489,-4.0489,-4.0489,-4.0489,-3.119,-3.119,-3.119,-3.119,-3.119,-3.119,-3.119,-3.119,-3.119,-3.119,-3.119,-3.119,-3.119,-3.119,-3.119,-3.119,-3.119,-3.1207,-3.1326,-3.1258,-3.1207,-3.1438,-3.1348,-3.1314,-3.1511,-3.1472,-3.1387,-3.1363,-3.1545,-3.2092,-3.2583,-3.284,-3.3494,-3.3807,-3.3807,-3.3807,-3.3807,-3.3825,-3.3807,-3.4394,-3.5293,-3.4798,-3.4486,-3.4468,-3.4394,-3.4137,-3.4064,-3.3807,-3.3807,-3.3807,-3.3807,-3.3807,-3.3807,-3.3807,-3.3807,-3.3807,-3.3807,-3.3807,-3.3807,-3.3807,-3.3807,-3.3807,-3.3807,-3.3807,-3.3807,-3.41,-3.4449,-3.5385,-3.5202,-3.5809,-3.7772,-3.8681,-3.9301,-3.9669,-3.9891,-3.9985,-3.9966,-3.9897,-3.9832,-3.9878,-4.0003,-4.012,-4.025,-4.0372,-4.0489,-4.0489,-4.0489,-4.0489,-4.0489,-4.0489,-4.0489,-4.0489,-4.0489,-4.0489,-4.0489,-4.0489,-4.0489,-4.0489,-4.0489,-4.0489,-4.0489,-4.0489,-4.0489,-4.0489,-4.0489,-4.0489,-4.0489,-4.0489,-4.0489,-4.0489,-4.0489,-4.0489,-4.0489,-4.0489,-4.0489,-3.119,-3.119,-3.119,-3.119,-3.119,-3.119,-3.119,-3.119,-3.119,-3.119,-3.119,-3.119,-3.119,-3.119,-3.119,-3.119,-3.119,-3.119,-3.119,-3.119,-3.119,-3.1241,-3.1224,-3.1207,-3.1312,-3.1372,-3.1355,-3.1623,-3.1933,-3.2451,-3.289,-3.3225,-3.3522,-3.3807,-3.3807,-3.3807,-3.3807,-3.3807,-3.3807,-3.3807,-3.3862,-3.3807,-3.388,-3.3862,-3.3807,-3.3807,-3.3807,-3.3807,-3.3807,-3.3807,-3.3807,-3.3807,-3.3807,-3.3807,-3.3807,-3.3807,-3.3807,-3.3807,-3.3807,-3.3807,-3.3807,-3.3807,-3.3807,-3.3807,-3.3807,-3.3972,-3.4302,-3.4321,-3.4137,-3.484,-3.6789,-3.8225,-3.8886,-3.9539,-3.9776,-4.0123,-4.0137,-4.0119,-4.0139,-4.0139,-4.0195,-4.0267,-4.0319,-4.0457,-4.0489,-4.0489,-4.0489,-4.0489,-4.0489,-4.0489,-4.0489,-4.0489,-4.0489,-4.0489,-4.0489,-4.0489,-4.0489,-4.0489,-4.0489,-4.0489,-4.0489,-4.0489,-4.0489,-4.0489,-4.0489,-4.0489,-4.0489,-4.0489,-4.0489,-4.0489,-4.0489,-4.0489,-4.0489,-4.0489,-4.0489,-3.119,-3.119,-3.119,-3.1173,-3.119,-3.1173,-3.119,-3.119,-3.119,-3.119,-3.119,-3.119,-3.119,-3.119,-3.119,-3.119,-3.119,-3.119,-3.119,-3.119,-3.119,-3.119,-3.119,-3.1213,-3.1394,-3.1524,-3.1629,-3.1951,-3.223,-3.2745,-3.3105,-3.3273,-3.3606,-3.3807,-3.3807,-3.3807,-3.3807,-3.3807,-3.3807,-3.3807,-3.3807,-3.3807,-3.3807,-3.3807,-3.3807,-3.3807,-3.3807,-3.3807,-3.3807,-3.3807,-3.3807,-3.3807,-3.3807,-3.3807,-3.3807,-3.3807,-3.3807,-3.3807,-3.3807,-3.3807,-3.3807,-3.3807,-3.3807,-3.3807,-3.3807,-3.3825,-3.4027,-3.4027,-3.4044,-3.4497,-3.6044,-3.7243,-3.8072,-3.8871,-3.9334,-3.9982,-4.0302,-4.0341,-4.0375,-4.0339,-4.0339,-4.0356,-4.0319,-4.0386,-4.0422,-4.0438,-4.0489,-4.0489,-4.0489,-4.0489,-4.0489,-4.0489,-4.0489,-4.0489,-4.0489,-4.0489,-4.0489,-4.0489,-4.0489,-4.0489,-4.0489,-4.0489,-4.0489,-4.0489,-4.0489,-4.0489,-4.0489,-4.0489,-4.0489,-4.0489,-4.0489,-4.0489,-4.0489,-4.0489,-4.0489]}]]